[[{"header":{"parameterUnit":"m.s-1","parameterCategory":1,"la1":30.6,"la2":28.766,"lo1":-90.7593,"lo2":-88.6598,"dy":0.0162,"dx":0.0183,"nx":116,"ny":114,"refTime":"2024-02-22T18:00:00:Z","depth":0,"parameterNumber":2,"parameterNumberName":"U-component_of_WINDS"},"data":[0.0,0.0,0.0,0.0,0.0,0.0,0.0,0.0,0.0,0.0,0.0,0.0,0.0,0.0,0.0,0.0,0.0,0.0,0.0,0.0,0.0,0.0,0.0,0.0,0.0,0.0,0.0,0.0,0.0,0.0,0.0,0.0,0.0,0.0,0.0,0.0,0.0,0.0,0.0,0.0,0.0,0.0,0.0,0.0,0.0,0.0,0.0,0.0,0.0,0.0,0.0,0.0,0.0,0.0,0.0,0.0,0.0,0.0,0.0,0.0,0.0,0.0,0.0,0.0,0.0,0.0,0.0,0.0,0.0,0.0,0.0,0.0,0.0,0.0,0.0,0.0,0.0,0.0,0.0,0.0,0.0,0.0,0.0,0.0,0.0,0.0,0.0,0.0,0.0,0.0,0.0,0.0,0.0,0.0,0.0,0.0,0.0,0.0,0.0,0.0,0.0,0.0,0.0,0.0,0.0,0.0,0.0,0.0,0.0,0.0,0.0,0.0,0.0,0.0,0.0,0.0,0.0,0.0,0.0,0.0,0.0,0.0,0.0,0.0,0.0,0.0,0.0,0.0,0.0,0.0,0.0,0.0,0.0,0.0,0.0,0.0,0.0,0.0,0.0,0.0,0.0,0.0,0.0,0.0,0.0,0.0,0.0,0.0,0.0,0.0,0.0,0.0,0.0,0.0,0.0,0.0,0.0,0.0,0.0,0.0,0.0,0.0,0.0,0.0,0.0,0.0,0.0,0.0,0.0,0.0,0.0,0.0,0.0,0.0,0.0,0.0,0.0,0.0,0.0,0.0,0.0,0.0,0.0,0.0,0.0,0.0,0.0,0.0,0.0,0.0,0.0,0.0,0.0,0.0,0.0,0.0,0.0,0.0,0.0,0.0,0.0,0.0,0.0,0.0,0.0,0.0,0.0,0.0,0.0,0.0,0.0,0.0,0.0,0.0,0.0,0.0,0.0,0.0,0.0,0.0,0.0,0.0,0.0,0.0,0.0,0.0,0.0,0.0,0.0,0.0,0.0,0.0,0.0,0.0,0.0,0.0,0.0,0.0,0.0,0.0,0.0,0.0,0.0,0.0,0.0,0.0,0.0,0.0,0.0,0.0,0.0,0.0,0.0,0.0,0.0,0.0,0.0,0.0,0.0,0.0,0.0,0.0,0.0,0.0,0.0,0.0,0.0,0.0,0.0,0.0,0.0,0.0,0.0,0.0,0.0,0.0,0.0,0.0,0.0,0.0,0.0,0.0,0.0,0.0,0.0,0.0,0.0,0.0,0.0,0.0,0.0,0.0,0.0,0.0,0.0,0.0,0.0,0.0,0.0,0.0,0.0,0.0,0.0,0.0,0.0,0.0,0.0,0.0,0.0,0.0,0.0,0.0,0.0,0.0,0.0,0.0,0.0,0.0,0.0,0.0,0.0,0.0,0.0,0.0,0.0,0.0,0.0,0.0,0.0,0.0,0.0,0.0,0.0,0.0,0.0,0.0,0.0,0.0,0.0,0.0,0.0,0.0,0.0,0.0,0.0,0.0,0.0,0.0,0.0,0.0,0.0,0.0,0.0,0.0,0.0,0.0,0.0,0.0,0.0,0.0,0.0,0.0,0.0,0.0,0.0,0.0,0.0,0.0,0.0,0.0,0.0,0.0,0.0,0.0,0.0,0.0,0.0,0.0,0.0,0.0,0.0,0.0,0.0,0.0,0.0,0.0,0.0,0.0,0.0,0.0,0.0,0.0,0.0,0.0,0.0,0.0,0.0,0.0,0.0,0.0,0.0,0.0,0.0,0.0,0.0,0.0,0.0,0.0,0.0,0.0,0.0,0.0,0.0,0.0,0.0,0.0,0.0,0.0,0.0,0.0,0.0,0.0,0.0,0.0,0.0,0.0,0.0,0.0,0.0,0.0,0.0,0.0,0.0,0.0,0.0,0.0,0.0,0.0,0.0,0.0,0.0,0.0,0.0,0.0,0.0,0.0,0.0,0.0,0.0,0.0,0.0,0.0,0.0,0.0,0.0,0.0,0.0,0.0,0.0,0.0,0.0,0.0,0.0,0.0,0.0,0.0,0.0,0.0,0.0,0.0,0.0,0.0,0.0,0.0,0.0,0.0,0.0,0.0,0.0,0.0,0.0,0.0,0.0,0.0,0.0,0.0,0.0,0.0,0.0,0.0,0.0,0.0,0.0,0.0,0.0,0.0,0.0,0.0,0.0,0.0,0.0,0.0,0.0,0.0,0.0,0.0,0.0,0.0,0.0,0.0,0.0,0.0,0.0,0.0,0.0,0.0,0.0,0.0,0.0,0.0,0.0,0.0,0.0,0.0,0.0,0.0,0.0,0.0,0.0,0.0,0.0,0.0,0.0,0.0,0.0,0.0,0.0,0.0,0.0,0.0,0.0,0.0,0.0,0.0,0.0,0.0,0.0,0.0,0.0,0.0,0.0,0.0,0.0,0.0,0.0,0.0,0.0,0.0,0.0,0.0,0.0,0.0,0.0,0.0,0.0,0.0,0.0,0.0,0.0,0.0,0.0,0.0,0.0,0.0,0.0,0.0,0.0,0.0,0.0,0.0,0.0,0.0,0.0,0.0,0.0,0.0,0.0,0.0,0.0,0.0,0.0,0.0,0.0,0.0,0.0,0.0,0.0,0.0,0.0,0.0,0.0,0.0,0.0,0.0,0.0,0.0,0.0,0.0,0.0,0.0,0.0,0.0,0.0,0.0,0.0,0.0,0.0,0.0,0.0,0.0,0.0,0.0,0.0,0.0,0.0,0.0,0.0,0.0,0.0,0.0,0.0,0.0,0.0,0.0,0.0,0.0,0.0,0.0,0.0,0.0,0.0,0.0,0.0,0.0,0.0,0.0,0.0,0.0,0.0,0.0,0.0,0.0,0.0,0.0,0.0,0.0,0.0,0.0,0.0,0.0,0.0,0.0,0.0,0.0,0.0,0.0,0.0,0.0,0.0,0.0,0.0,0.0,0.0,0.0,0.0,0.0,0.0,0.0,0.0,0.0,0.0,0.0,0.0,0.0,0.0,0.0,0.0,0.0,0.0,0.0,0.0,0.0,0.0,0.0,0.0,0.0,0.0,0.0,0.0,0.0,0.0,0.0,0.0,0.0,0.0,0.0,0.0,0.0,0.0,0.0,0.0,0.0,0.0,0.0,0.0,0.0,0.0,0.0,0.0,0.0,0.0,0.0,0.0,0.0,0.0,0.0,0.0,0.0,0.0,0.0,0.0,0.0,0.0,0.0,0.0,0.0,0.0,0.0,0.0,0.0,0.0,0.0,0.0,0.0,0.0,0.0,0.0,0.0,0.0,0.0,0.0,0.0,0.0,0.0,0.0,0.0,0.0,0.0,0.0,0.0,0.0,0.0,0.0,0.0,0.0,0.0,0.0,0.0,0.0,0.0,0.0,0.0,0.0,0.0,0.0,0.0,0.0,0.0,0.0,0.0,0.0,0.0,0.0,0.0,0.0,0.0,0.0,0.0,0.0,0.0,0.0,0.0,0.0,0.0,0.0,0.0,0.0,0.0,0.0,0.0,0.0,0.0,0.0,0.0,0.0,0.0,0.0,0.0,0.0,0.0,0.0,0.0,0.0,0.0,0.0,0.0,0.0,0.0,0.0,0.0,0.0,0.0,0.0,0.0,0.0,0.0,0.0,0.0,0.0,0.0,0.0,0.0,0.0,0.0,0.0,0.0,0.0,0.0,0.0,0.0,0.0,0.0,0.0,0.0,0.0,0.0,0.0,0.0,0.0,0.0,0.0,0.0,0.0,0.0,0.0,0.0,0.0,0.0,0.0,0.0,0.0,0.0,0.0,0.0,0.0,0.0,0.0,0.0,0.0,0.0,0.0,0.0,0.0,0.0,0.0,0.0,0.0,0.0,0.0,0.0,0.0,0.0,0.0,0.0,0.0,0.0,0.0,0.0,0.0,0.0,0.0,0.0,0.0,0.0,0.0,0.0,0.0,0.0,0.0,0.0,0.0,0.0,0.0,0.0,0.0,0.0,0.0,0.0,0.0,0.0,0.0,0.0,0.0,0.0,0.0,0.0,0.0,0.0,0.0,0.0,0.0,0.0,0.0,0.0,0.0,0.0,0.0,0.0,0.0,0.0,0.0,0.0,0.0,0.0,0.0,0.0,0.0,0.0,0.0,0.0,0.0,0.0,0.0,0.0,0.0,0.0,0.0,0.0,0.0,0.0,0.0,0.0,0.0,0.0,0.0,0.0,0.0,0.0,0.0,0.0,0.0,0.0,0.0,0.0,0.0,0.0,0.0,0.0,0.0,0.0,0.0,0.0,0.0,0.0,0.0,0.0,0.0,0.0,0.0,0.0,0.0,0.0,0.0,0.0,0.0,0.0,0.0,0.0,0.0,0.0,0.0,0.0,0.0,0.0,0.0,0.0,0.0,0.0,0.0,0.0,0.0,0.0,0.0,0.0,0.0,0.0,0.0,0.0,0.0,0.0,0.0,0.0,0.0,0.0,0.0,0.0,0.0,0.0,0.0,0.0,0.0,0.0,0.0,0.0,0.0,0.0,0.0,0.0,0.0,0.0,0.0,0.0,0.0,0.0,0.0,0.0,0.0,0.0,0.0,0.0,0.0,0.0,0.0,0.0,0.0,0.0,0.0,0.0,0.0,0.0,0.0,0.0,0.0,0.0,0.0,0.0,0.0,0.0,0.0,0.0,0.0,0.0,0.0,0.0,0.0,0.0,0.0,0.0,0.0,0.0,0.0,0.0,0.0,0.0,0.0,0.0,0.0,0.0,0.0,0.0,0.0,0.0,0.0,0.0,0.0,0.0,0.0,0.0,0.0,0.0,0.0,0.0,0.0,0.0,0.0,0.0,0.0,0.0,0.0,0.0,0.0,0.0,0.0,0.0,0.0,0.0,0.0,0.0,0.0,0.0,0.0,0.0,0.0,0.0,0.0,0.0,0.0,0.0,0.0,0.0,0.0,0.0,0.0,0.0,0.0,0.0,0.0,0.0,0.0,0.0,0.0,0.0,0.0,0.0,0.0,0.0,0.0,0.0,0.0,0.0,0.0,0.0,0.0,0.0,0.0,0.0,0.0,0.0,0.0,0.0,0.0,0.0,0.0,0.0,0.0,0.0,0.0,0.0,0.0,0.0,0.0,0.0,0.0,0.0,0.0,0.0,0.0,0.0,0.0,0.0,0.0,0.0,0.0,0.0,0.0,0.0,0.0,0.0,0.0,0.0,0.0,0.0,0.0,0.0,0.0,0.0,0.0,0.0,0.0,0.0,0.0,0.0,0.0,0.0,0.0,0.0,0.0,0.0,0.0,0.0,0.0,0.0,0.0,0.0,0.0,0.0,0.0,0.0,0.0,0.0,0.0,0.0,0.0,0.0,0.0,0.0,0.0,0.0,0.0,0.0,0.0,0.0,0.0,0.0,0.0,0.0,0.0,0.0,0.0,0.0,0.0,0.0,0.0,0.0,0.0,0.0,0.0,0.0,0.0,0.0,0.0,0.0,0.0,0.0,0.0,0.0,0.0,0.0,0.0,0.0,0.0,0.0,0.0,0.0,0.0,0.0,0.0,0.0,0.0,0.0,0.0,0.0,0.0,0.0,0.0,0.0,0.0,0.0,0.0,0.0,0.0,0.0,0.0,0.0,0.0,0.0,0.0,0.0,0.0,0.0,0.0,0.0,0.0,0.0,0.0,0.0,0.0,0.0,0.0,0.0,0.0,0.0,0.0,0.0,0.0,0.0,0.0,0.0,0.0,0.0,0.0,0.0,0.0,0.0,0.0,0.0,0.0,0.0,0.0,0.0,0.0,0.0,0.0,0.0,0.0,0.0,0.0,0.0,0.0,0.0,0.0,0.0,0.0,0.0,0.0,0.0,0.0,0.0,0.0,0.0,0.0,0.0,0.0,0.0,0.0,0.0,0.0,0.0,0.0,0.0,0.0,0.0,0.0,0.0,0.0,0.0,0.0,0.0,0.0,0.0,0.0,0.0,0.0,0.0,0.0,0.0,0.0,0.0,0.0,0.0,0.0,0.0,0.0,0.0,0.0,0.0,0.0,0.0,0.0,0.0,0.0,0.0,0.0,0.0,0.0,0.0,0.0,0.0,0.0,0.0,-6.5897,-6.5897,0.0,0.0,0.0,0.0,0.0,0.0,0.0,0.0,0.0,0.0,0.0,0.0,0.0,0.0,0.0,0.0,0.0,0.0,0.0,0.0,0.0,0.0,0.0,0.0,0.0,0.0,-7.1291,-7.1291,-7.1291,-7.1291,-7.128,-7.1258,-7.1296,-7.1327,-7.1296,-7.1481,-7.1601,-7.1601,-7.1677,-7.1443,-7.0992,-7.0762,-7.07,-7.067,0.0,0.0,0.0,0.0,0.0,0.0,0.0,0.0,0.0,0.0,0.0,0.0,0.0,0.0,0.0,0.0,0.0,0.0,0.0,0.0,0.0,0.0,0.0,0.0,0.0,0.0,0.0,0.0,0.0,0.0,0.0,0.0,0.0,0.0,0.0,0.0,0.0,0.0,0.0,0.0,0.0,0.0,0.0,0.0,0.0,0.0,0.0,0.0,0.0,0.0,0.0,0.0,0.0,0.0,0.0,0.0,0.0,0.0,0.0,0.0,0.0,0.0,0.0,0.0,0.0,0.0,0.0,0.0,0.0,0.0,-6.5897,-6.5897,0.0,0.0,0.0,0.0,0.0,0.0,0.0,0.0,0.0,0.0,0.0,0.0,0.0,0.0,0.0,0.0,0.0,0.0,0.0,0.0,0.0,0.0,0.0,-7.1291,-7.1291,-7.1291,-7.1291,-7.1291,-7.1291,-7.1334,-7.1296,-7.1231,-7.1436,-7.1508,-7.1454,-7.1521,-7.1587,-7.1587,-7.134,-7.0689,-6.9687,-6.9473,-6.9463,-6.9605,-6.8672,0.0,0.0,0.0,0.0,0.0,0.0,0.0,0.0,0.0,0.0,0.0,0.0,0.0,0.0,0.0,0.0,0.0,0.0,0.0,0.0,0.0,0.0,0.0,0.0,0.0,0.0,0.0,0.0,0.0,0.0,0.0,0.0,0.0,0.0,0.0,0.0,0.0,0.0,0.0,0.0,0.0,0.0,0.0,0.0,0.0,0.0,0.0,0.0,0.0,0.0,0.0,0.0,0.0,0.0,0.0,0.0,0.0,0.0,0.0,0.0,0.0,0.0,0.0,-6.5897,-6.5897,-6.5897,-6.5897,-6.5897,-6.5897,-6.5897,-6.5897,-6.5897,-6.5897,0.0,0.0,0.0,0.0,0.0,0.0,0.0,0.0,0.0,0.0,0.0,0.0,0.0,0.0,0.0,0.0,0.0,0.0,0.0,0.0,0.0,-7.1291,-7.1291,-7.1291,-7.1291,-7.1291,-7.1291,-7.1397,-7.1469,-7.1463,-7.1552,-7.1598,-7.156,-7.1575,-7.159,-7.159,-7.0837,-6.9925,-6.8916,-6.8091,-6.7753,-6.7852,-6.7444,-6.7244,-6.7102,0.0,0.0,0.0,0.0,0.0,0.0,0.0,0.0,0.0,0.0,0.0,0.0,0.0,0.0,0.0,0.0,0.0,0.0,0.0,0.0,0.0,0.0,0.0,0.0,0.0,0.0,0.0,0.0,0.0,0.0,0.0,0.0,0.0,0.0,0.0,0.0,0.0,0.0,0.0,0.0,0.0,-6.3657,-6.3803,0.0,0.0,0.0,0.0,0.0,0.0,0.0,0.0,0.0,0.0,0.0,0.0,0.0,-6.5897,-6.5897,-6.5897,-6.5897,-6.5897,-6.5897,-6.5897,-6.5897,-6.5897,-6.5897,-6.5897,-6.5897,0.0,-6.5897,-6.5897,0.0,0.0,0.0,0.0,0.0,0.0,0.0,0.0,0.0,0.0,0.0,0.0,0.0,0.0,0.0,0.0,0.0,0.0,0.0,0.0,0.0,-7.1368,-7.1388,-7.1302,-7.1368,-7.1397,-7.1397,-7.1452,-7.152,-7.1559,-7.1659,-7.17,-7.165,-7.1266,-7.0726,-7.0041,-6.9601,-6.8927,-6.7961,-6.7475,-6.7039,-6.6659,-6.6485,-6.6485,-6.6526,-6.6075,0.0,0.0,0.0,0.0,0.0,0.0,0.0,0.0,0.0,0.0,0.0,0.0,0.0,0.0,0.0,0.0,0.0,0.0,0.0,0.0,0.0,0.0,0.0,0.0,0.0,0.0,0.0,0.0,0.0,0.0,0.0,0.0,0.0,0.0,0.0,0.0,0.0,0.0,0.0,-6.4226,-6.4126,-6.4681,-6.3713,-6.3206,0.0,0.0,0.0,0.0,0.0,0.0,0.0,0.0,0.0,-6.5897,-6.5897,-6.5897,-6.5897,-6.5897,-6.5897,-6.5897,-6.5897,-6.5897,-6.5897,-6.5897,-6.5897,-6.5897,-6.5897,-6.5897,-6.5897,-6.5897,-6.6167,-6.6551,0.0,0.0,0.0,0.0,-6.8398,-6.9206,0.0,0.0,0.0,0.0,0.0,0.0,0.0,0.0,0.0,0.0,0.0,0.0,-7.1337,-7.1397,-7.1415,-7.1348,-7.1397,-7.1452,-7.1452,-7.1309,-7.124,-7.1297,-7.12,-7.1156,-7.1074,-7.0445,-6.9571,-6.8443,-6.8341,-6.7856,-6.6931,-6.6833,-6.65,-6.5972,-6.5923,-6.597,-6.6052,-6.5946,-6.5897,-6.5897,0.0,0.0,0.0,0.0,0.0,0.0,0.0,0.0,0.0,0.0,0.0,0.0,0.0,0.0,0.0,0.0,0.0,0.0,0.0,0.0,0.0,0.0,0.0,0.0,0.0,0.0,0.0,0.0,0.0,0.0,0.0,0.0,0.0,0.0,0.0,0.0,0.0,-6.5075,-6.4914,-6.5577,-6.4598,-6.3971,0.0,0.0,0.0,0.0,0.0,0.0,-6.5859,-6.5897,-6.5897,-6.5897,-6.5897,-6.5897,-6.5897,-6.5897,-6.5897,-6.5897,-6.5897,-6.5897,-6.5897,-6.5897,-6.5897,-6.5897,-6.5897,-6.6013,-6.6205,-6.6205,-6.6551,-6.7128,-6.7359,-6.7975,-6.8744,-6.8744,-6.9283,-7.0014,0.0,0.0,0.0,0.0,0.0,0.0,0.0,0.0,0.0,0.0,0.0,-7.1337,-7.1486,-7.1388,-7.1358,-7.1495,-7.1388,-7.1313,-7.1313,-7.0759,-7.0464,-7.044,-6.9809,-6.9419,-6.9436,-6.9063,-6.8404,-6.7386,-6.7328,-6.6832,-6.5987,-6.5948,-6.5936,-6.591,-6.5897,-6.591,-6.5923,-6.591,-6.5897,-6.5897,-6.5897,0.0,0.0,0.0,0.0,0.0,0.0,0.0,0.0,0.0,0.0,0.0,0.0,0.0,0.0,0.0,0.0,0.0,0.0,0.0,0.0,0.0,0.0,0.0,0.0,0.0,0.0,0.0,0.0,0.0,0.0,0.0,0.0,0.0,0.0,0.0,0.0,0.0,0.0,-6.6512,-6.5452,0.0,0.0,0.0,0.0,-6.5782,-6.582,-6.5859,-6.5897,-6.5897,-6.5897,-6.5897,-6.5897,-6.5897,-6.5897,-6.5897,-6.5897,-6.5897,-6.5897,-6.5897,-6.5897,-6.5897,-6.5897,-6.5897,-6.5897,-6.632,-6.7051,-6.7051,-6.7051,-6.7167,-6.8013,-6.8859,-6.9629,-6.9629,-7.0167,-7.0821,0.0,0.0,0.0,0.0,0.0,0.0,0.0,0.0,-7.1345,-7.1406,-7.1425,-7.1452,-7.1473,-7.1529,-7.1489,-7.1388,-7.1426,-7.1425,-7.1425,-7.0696,-7.0297,-7.0397,-6.9606,-6.8878,-6.8242,-6.8061,-6.7474,-6.6468,-6.6396,-6.6192,-6.5897,-6.5897,-6.5897,-6.5897,-6.5897,-6.5897,-6.5897,-6.5897,-6.5897,-6.5897,-6.5897,-6.5897,0.0,0.0,0.0,0.0,0.0,0.0,0.0,0.0,0.0,0.0,0.0,0.0,0.0,0.0,0.0,0.0,0.0,0.0,0.0,0.0,0.0,0.0,0.0,0.0,0.0,0.0,0.0,0.0,0.0,0.0,0.0,0.0,0.0,0.0,0.0,0.0,0.0,-6.6281,-6.5807,0.0,-6.5916,-6.5652,-6.5551,-6.5859,-6.5897,-6.5897,-6.5897,-6.5897,-6.5897,-6.5897,-6.5897,-6.5897,-6.5897,-6.5897,-6.6167,-6.6667,-6.6667,-6.6974,-6.7513,-6.7513,-6.7513,-6.7513,-6.7513,-6.7667,-6.7975,-6.8552,-6.8783,-6.8783,-6.9129,-6.9744,-7.0475,-7.0475,-7.0667,-7.0898,0.0,0.0,0.0,0.0,0.0,0.0,0.0,0.0,-7.1417,-7.1503,-7.1529,-7.1566,-7.1566,-7.1608,-7.1559,-7.1388,-7.1387,-7.1308,-7.1007,-7.0269,-6.9731,-6.9499,-6.8663,-6.7836,-6.7104,-6.7009,-6.6657,-6.6008,-6.5935,-6.5897,-6.5897,-6.5897,-6.5897,-6.5897,-6.5897,-6.5897,-6.5897,-6.5897,-6.5897,-6.5897,-6.5897,-6.5897,-6.5897,0.0,0.0,0.0,0.0,0.0,0.0,0.0,0.0,0.0,0.0,0.0,0.0,0.0,0.0,0.0,0.0,0.0,0.0,0.0,0.0,0.0,0.0,0.0,0.0,0.0,0.0,0.0,0.0,0.0,0.0,0.0,0.0,0.0,0.0,-6.6273,-6.6108,-6.6108,-6.5978,-6.5897,-6.5897,-6.5897,-6.5897,-6.5897,-6.5897,-6.5897,-6.5897,-6.5897,-6.5897,-6.5897,-6.6167,-6.6282,-6.6282,-6.659,-6.7013,-6.7552,-6.7552,-6.7859,-6.8385,-6.8385,-6.8385,-6.8385,-6.8385,-6.8577,-6.8898,-6.9475,-6.986,-7.009,-7.009,-7.0437,-7.0898,-7.0898,-7.0898,-7.0898,0.0,0.0,0.0,0.0,0.0,0.0,0.0,-7.1397,-7.1481,-7.1528,-7.1628,-7.1705,-7.1705,-7.1587,-7.1489,-7.1481,-7.1388,-7.0943,-7.0054,-6.9422,-6.8663,-6.7705,-6.6843,-6.6278,-6.6102,-6.6036,-6.6017,-6.5996,-6.5935,-6.5897,-6.5897,-6.5897,-6.5897,-6.5897,-6.5897,-6.5897,-6.5897,-6.5897,-6.5897,-6.5897,-6.5897,-6.5897,-6.5897,0.0,0.0,0.0,0.0,0.0,0.0,0.0,0.0,0.0,0.0,0.0,0.0,0.0,0.0,0.0,0.0,0.0,0.0,0.0,0.0,0.0,0.0,0.0,0.0,0.0,0.0,0.0,0.0,0.0,0.0,0.0,0.0,0.0,-6.6283,-6.6185,-6.6098,-6.6098,-6.5978,-6.5897,-6.5897,-6.5897,-6.5897,-6.5897,-6.5897,-6.5897,-6.5936,-6.5936,-6.5936,-6.5974,-6.6744,-6.7128,-6.7128,-6.7975,-6.8398,-6.8423,-6.8423,-6.8462,-6.8475,-6.8475,-6.8475,-6.8475,-6.8475,-6.8975,-6.9744,-6.9744,-7.0206,-7.0898,-7.0898,-7.0898,-7.0898,-7.0898,-7.0898,-7.0898,0.0,0.0,0.0,0.0,0.0,0.0,0.0,-7.1397,-7.1529,-7.1634,-7.1711,-7.1764,-7.1764,-7.1682,-7.1608,-7.1497,-7.1388,-7.0943,-7.0054,-6.9314,-6.818,-6.67,-6.639,-6.6157,-6.6036,-6.6013,-6.5993,-6.5923,-6.591,-6.5897,-6.5897,-6.5897,-6.5897,-6.5897,-6.5897,-6.5897,-6.5897,-6.5897,-6.5897,-6.5897,-6.5897,-6.5897,-6.5897,0.0,0.0,0.0,0.0,0.0,0.0,0.0,0.0,0.0,0.0,0.0,0.0,0.0,0.0,0.0,0.0,0.0,0.0,0.0,0.0,0.0,0.0,0.0,0.0,0.0,0.0,0.0,0.0,0.0,0.0,0.0,-6.6239,-6.6128,-6.6148,-6.6041,-6.597,-6.597,-6.5909,-6.5897,-6.5897,-6.5897,-6.5897,-6.5897,-6.5897,-6.6128,-6.6744,-6.6782,-6.7051,-6.7705,-6.7936,-6.8052,-6.8052,-6.8282,-6.8744,-6.936,-6.936,-6.9667,-7.0206,-7.0206,-7.0206,-7.0206,-7.0206,-7.036,-7.0552,-7.0552,-7.0706,-7.0898,-7.0898,-7.0898,-7.0898,-7.0898,-7.0898,-7.0898,0.0,0.0,0.0,0.0,0.0,0.0,0.0,-7.1542,-7.1655,-7.172,-7.1831,-7.1854,-7.1795,-7.1757,-7.1666,-7.1505,-7.1145,-7.0514,-6.9561,-6.839,-6.7464,-6.6853,-6.6429,-6.6144,-6.6047,-6.6024,-6.5967,-6.5947,-6.591,-6.5897,-6.5897,-6.5897,-6.5897,-6.5897,-6.5897,-6.5897,-6.5897,-6.5897,-6.5897,-6.5897,-6.5897,-6.5897,-6.5897,-6.5897,-6.5897,-6.5897,-6.5897,-6.5897,-6.5897,-6.5897,0.0,0.0,0.0,0.0,0.0,0.0,0.0,0.0,0.0,0.0,0.0,0.0,0.0,0.0,0.0,0.0,0.0,0.0,0.0,0.0,0.0,0.0,0.0,0.0,-6.6108,-6.6008,-6.6008,-6.5958,-6.5897,-6.5897,-6.5897,-6.5897,-6.5897,-6.6205,-6.6397,-6.6397,-6.6744,-6.7167,-6.7628,-6.7628,-6.7898,-6.8385,-6.8744,-6.8936,-6.8936,-6.9283,-6.9706,-7.0206,-7.0206,-7.0437,-7.0898,-7.0898,-7.0898,-7.0898,-7.0898,-7.0898,-7.0898,-7.0898,-7.0898,0.0,0.0,0.0,0.0,0.0,-7.0898,-7.0898,0.0,0.0,0.0,0.0,0.0,0.0,0.0,-7.1745,-7.1792,-7.1792,-7.1907,-7.1951,-7.1846,-7.1797,-7.1737,-7.1536,-7.0836,-6.9933,-6.8875,-6.7346,-6.6845,-6.7634,-6.6825,-6.6271,-6.6102,-6.6036,-6.5978,-6.6008,-6.5935,-6.5936,-6.6051,-6.6051,-6.609,-6.6167,-6.609,-6.6051,-6.6013,-6.5936,-6.5897,-6.5897,-6.5897,-6.5897,-6.5897,-6.5897,-6.5897,-6.5897,-6.5897,-6.5897,-6.5897,-6.5897,0.0,0.0,0.0,0.0,0.0,0.0,0.0,0.0,0.0,0.0,0.0,0.0,0.0,0.0,0.0,0.0,0.0,0.0,0.0,0.0,0.0,0.0,0.0,0.0,-6.599,-6.5897,-6.5897,-6.5897,-6.5897,-6.5897,-6.5897,-6.5936,-6.6013,-6.6667,-6.7128,-6.7244,-6.7975,-6.8423,-6.8552,-6.8552,0.0,0.0,0.0,-6.986,-6.986,-7.0552,-7.0898,-7.0898,-7.0898,-7.0898,-7.0898,-7.0898,-7.0898,-7.0898,-7.0898,-7.0898,-7.0898,-7.0898,-7.0898,-7.0898,-7.0898,-7.0898,-7.0898,-7.0898,-7.0898,-7.0898,0.0,0.0,0.0,0.0,0.0,0.0,0.0,-7.1745,-7.1792,-7.1792,-7.1907,-7.1992,-7.1951,-7.1854,-7.176,-7.1677,-7.077,-6.9817,-6.8865,-6.8468,-6.8063,-6.7561,-6.7366,-6.6889,-6.614,-6.6036,-6.5978,-6.6008,-6.5935,-6.6244,-6.6859,-6.6859,-6.7244,-6.7898,-6.7167,-6.6859,-6.6821,-6.6167,-6.5897,-6.5897,-6.5897,-6.5897,-6.5897,-6.5897,-6.5897,-6.5897,-6.5897,-6.5897,-6.5897,-6.5897,-6.5897,-6.5935,-6.6019,-6.599,0.0,0.0,0.0,0.0,0.0,0.0,0.0,0.0,0.0,0.0,0.0,0.0,0.0,0.0,0.0,0.0,0.0,0.0,0.0,-6.6088,-6.599,-6.5897,-6.5897,-6.5897,-6.5897,-6.5897,-6.5897,-6.6128,-6.6782,-6.7013,-6.7398,-6.809,-6.8321,-6.8706,-6.9398,-6.9436,-6.9744,-7.0398,-7.0591,-7.0667,-7.0667,-7.0821,-7.0898,-7.0898,0.0,0.0,-7.0898,-7.0898,-7.0898,-7.0898,-7.0898,-7.0898,-7.0898,-7.0898,-7.0898,-7.0898,-7.0898,-7.0898,-7.0898,-7.0898,-7.0898,-7.0898,0.0,0.0,0.0,0.0,0.0,0.0,0.0,-7.1891,-7.1903,-7.1903,-7.1951,-7.1992,-7.1992,-7.1949,-7.1848,-7.1745,-7.0865,-7.0095,-6.9616,-6.9144,-6.8656,-6.8158,-6.7733,-6.7065,-6.6183,-6.608,-6.6024,-6.6005,-6.6357,-6.6743,-6.709,-6.7552,-6.7975,-6.8385,-6.7936,-6.7513,-6.7051,-6.6667,-6.6282,-6.5897,-6.5897,-6.5897,-6.5897,-6.5897,-6.5897,-6.5897,-6.5897,-6.5897,-6.5897,-6.5897,-6.5897,-6.5923,-6.5978,-6.6013,-6.592,0.0,0.0,0.0,0.0,0.0,0.0,0.0,0.0,0.0,0.0,0.0,0.0,0.0,0.0,-6.4446,-6.4864,0.0,-6.5473,-6.5936,-6.5946,-6.5897,-6.5897,-6.6244,-6.6513,-6.6513,-6.6513,-6.6821,-6.7667,-6.8167,-6.859,-6.9013,-6.9436,-6.986,-7.0283,-7.0283,-7.0475,-7.0898,-7.0898,-7.0898,-7.0898,-7.0898,-7.0898,-7.0898,-7.0898,-7.0898,-7.0898,-7.0898,-7.0898,-7.0898,-7.0898,-7.0898,-7.0898,-7.0898,-7.0898,-7.0898,-7.0898,-7.0898,-7.0898,-7.0898,-7.0898,-7.0898,0.0,0.0,0.0,0.0,0.0,0.0,0.0,-7.1992,-7.1992,-7.1992,-7.1992,-7.1992,-7.1992,-7.1992,-7.1872,-7.1602,-7.1023,-7.0564,-7.038,-6.977,-6.9308,-6.9058,-6.8197,-6.7346,-6.6456,-6.6211,-6.6069,-6.6024,-6.6649,-6.7127,-6.7385,-6.809,-6.8577,-6.8859,-6.8552,-6.8013,-6.7321,-6.7013,-6.6474,-6.5897,-6.5897,-6.5897,-6.5897,-6.5897,-6.5897,-6.5897,-6.5897,-6.5897,-6.5897,-6.5897,-6.5897,-6.5923,-6.5943,-6.6008,-6.5902,-6.5093,-6.5308,0.0,0.0,0.0,0.0,0.0,0.0,0.0,0.0,-6.342,-6.3384,-6.3247,-6.3363,-6.3624,-6.4193,-6.4539,-6.4977,-6.555,-6.5782,-6.5936,-6.609,-6.6667,-6.7205,-6.7552,-6.7475,-6.7705,-6.859,-6.9283,-6.9744,-6.9937,-7.0514,-7.0898,-7.0898,-7.0898,-7.0898,-7.0898,-7.0898,-7.0898,-7.0898,-7.0898,-7.0898,-7.0898,-7.0898,-7.0898,-7.0898,-7.0898,-7.0898,-7.0898,-7.0898,-7.0898,-7.0898,-7.0898,-7.0898,-7.0898,-7.0898,-7.0898,-7.0898,-7.0898,-7.0898,-7.0898,0.0,0.0,0.0,0.0,0.0,0.0,0.0,0.0,-7.1992,-7.1992,-7.1992,-7.1992,-7.1992,-7.1992,-7.1677,-7.0826,-7.1257,-7.1186,-7.0285,-7.0837,-7.0822,-6.991,-6.9087,-6.8236,-6.7384,-6.652,-6.6091,-6.6091,-6.6133,-6.6882,-6.8334,-6.8385,-6.9206,-7.0552,-6.9052,-6.8359,-6.8167,-6.6667,-6.5974,-6.5897,-6.5897,-6.5897,-6.5897,-6.5897,-6.5897,-6.5897,-6.5897,-6.5897,-6.5897,-6.5897,-6.5897,-6.5946,-6.6194,-6.6108,-6.5801,-6.5222,-6.4582,-6.3891,-6.292,-6.2283,-6.1866,-6.1797,-6.1662,-6.1511,0.0,-6.1337,-6.1282,-6.1147,-6.1758,-6.2286,-6.2379,-6.3638,-6.4665,-6.4743,-6.5397,-6.6128,-6.6859,-6.7051,-6.7667,-6.9244,-6.8744,-6.859,-6.9475,-6.9629,-7.0014,-7.0706,-7.086,-7.0898,-7.0898,-7.0898,-7.0898,-7.0898,-7.0898,-7.0898,-7.0898,-7.0898,-7.0898,-7.0898,-7.0898,-7.0898,-7.0898,-7.0898,-7.0898,-7.0898,-7.0898,-7.0898,-7.0898,-7.0898,-7.0898,-7.0898,-7.0898,-7.0898,-7.0898,-7.0898,-7.0898,-7.0898,0.0,0.0,0.0,0.0,0.0,0.0,0.0,0.0,0.0,-7.1992,-7.1992,-7.1992,-7.1992,-7.1992,-7.1835,-7.1439,-7.17,-7.1663,-7.1151,-7.1458,-7.1219,-7.0144,-6.9777,-6.8946,-6.7539,-6.7132,-6.6636,-6.6102,-6.6587,-6.7147,-6.7756,-6.8232,-6.8809,-6.9398,-6.8706,-6.8129,-6.759,-6.6898,-6.632,-6.5897,-6.5897,-6.5897,-6.5897,-6.5897,-6.5897,-6.5897,-6.5897,-6.5897,0.0,-6.5897,-6.5958,-6.6041,-6.6148,-6.5857,-6.5305,-6.4567,-6.4124,-6.3696,-6.2761,-6.2074,-6.153,-6.1291,-6.1272,-6.1292,-6.1066,-6.1002,-6.0945,-6.0839,-6.1089,-6.1627,-6.2627,-6.3358,-6.4166,-6.5205,-6.5667,-6.6167,-6.6974,-6.7552,-6.8321,-6.9552,-6.9783,-7.0014,-7.036,-7.0398,-7.0552,-7.086,-7.0898,-7.0898,-7.0898,-7.0898,-7.0898,-7.0898,-7.0898,-7.0898,-7.0898,-7.0898,-7.0898,-7.0898,-7.0898,-7.0898,-7.0898,-7.0898,-7.0898,-7.0898,-7.0898,-7.0898,-7.0898,-7.0898,-7.0898,-7.0898,-7.0898,-7.0898,-7.0898,-7.0898,-7.0898,-7.0898,0.0,0.0,0.0,0.0,0.0,0.0,0.0,0.0,0.0,0.0,-7.1992,-7.1992,-7.1992,-7.1992,-7.1992,-7.1992,-7.1992,-7.1949,-7.1797,-7.1792,-7.1413,-7.0611,-7.037,-6.9616,-6.8259,-6.7784,-6.7223,-6.6525,-6.6868,-6.71,-6.7278,-6.7858,-6.8232,-6.8424,-6.8167,-6.7705,-6.709,-6.6859,-6.6436,-6.5897,-6.5897,-6.5897,-6.591,-6.5946,-6.597,-6.5958,-6.5923,-6.5897,-6.591,-6.5946,-6.6008,-6.6089,-6.5923,-6.5513,-6.4884,-6.3838,-6.3414,-6.3161,-6.2485,-6.1976,-6.158,-6.1204,-6.1298,-6.1361,-6.1103,-6.1044,-6.1039,-6.0933,-6.0888,-6.1329,-6.2811,-6.3222,-6.3806,-6.5341,-6.5947,-6.6513,-6.7321,-6.8205,-6.909,-6.9937,-7.0552,-7.0898,-7.0898,-7.0898,-7.0898,-7.0898,-7.0898,-7.0898,-7.0898,-7.0898,-7.0898,-7.0898,-7.0898,-7.0898,-7.0898,-7.0898,-7.0898,-7.0898,-7.0898,-7.0898,-7.0898,-7.0898,-7.0898,-7.0898,-7.0898,-7.0898,-7.0898,-7.0898,-7.0898,-7.0898,-7.0898,-7.0898,-7.0898,-7.0898,-7.0898,-7.0898,0.0,0.0,0.0,0.0,0.0,0.0,0.0,0.0,0.0,0.0,0.0,0.0,0.0,-7.1992,-7.1992,-7.1992,-7.1992,-7.1949,-7.1797,-7.1792,-7.1686,-7.1458,-7.0778,-7.0317,-7.0129,-6.8529,-6.7674,-6.7635,-6.6622,-6.6565,-6.7404,-6.7278,-6.7679,-6.8449,-6.7552,-6.7128,-6.7051,-6.6282,-6.5897,-6.5897,-6.5897,-6.5897,-6.5923,-6.6052,-6.6098,-6.6067,-6.5958,-6.5897,-6.5897,-6.6063,-6.6098,-6.6022,-6.5492,-6.5219,-6.4782,-6.3291,-6.2231,-6.1586,-6.1699,-6.1634,-6.149,-6.1486,-6.1367,-6.1193,-6.1186,-6.1179,-6.1179,-6.1179,-6.1087,-6.1319,-6.2354,-6.2935,-6.3623,-6.4675,-6.6106,-6.7359,-6.8244,-6.9129,-6.9975,-7.0783,-7.0898,-7.0898,-7.0898,-7.0898,-7.0898,-7.0898,-7.0898,-7.0898,-7.0898,-7.0898,-7.0898,-7.0898,-7.0898,-7.0898,-7.0898,-7.0898,-7.0898,-7.0898,-7.0898,-7.0898,-7.0898,-7.0898,-7.0898,-7.0898,-7.0898,-7.0898,-7.0898,-7.0898,-7.0898,-7.0898,-7.0898,-7.0898,-7.0898,-7.0898,-7.0898,-7.0898,0.0,0.0,0.0,0.0,0.0,0.0,0.0,0.0,0.0,0.0,0.0,0.0,0.0,0.0,0.0,0.0,-7.1992,-7.1992,-7.1949,-7.1948,-7.1852,-7.172,-7.1472,-7.0985,-7.0215,-6.9727,-6.914,-6.8423,-6.7587,-6.7277,-6.7512,-6.6791,-6.6678,-6.7088,-6.668,-6.6554,-6.6591,-6.6193,-6.6077,-6.6157,-6.6056,-6.6088,-6.6176,-6.62,-6.6226,-6.6217,0.0,-6.6167,-6.6176,-6.62,-6.6299,-6.6406,-6.6218,-6.5322,-6.4054,-6.2416,-6.1724,-6.15,-6.1569,-6.1595,-6.1588,-6.1379,-6.1367,-6.1379,-6.1214,-6.1186,-6.1186,-6.1186,-6.1616,-6.2292,-6.3199,-6.3976,-6.4754,-6.5538,-6.6587,-6.7556,-6.8296,-6.9167,-7.0014,-7.0783,-7.0898,-7.0898,-7.0898,-7.0898,-7.0898,-7.0898,-7.0898,-7.0898,-7.0898,-7.0898,-7.0898,-7.0898,-7.0898,-7.0898,-7.0898,-7.0898,-7.0898,-7.0898,-7.0898,-7.0898,-7.0898,-7.0898,-7.0898,-7.0898,-7.0898,-7.0898,-7.0898,-7.0898,-7.0898,-7.0898,-7.0898,-7.1245,-7.1745,-7.1745,-7.2129,-7.2552,0.0,0.0,0.0,0.0,0.0,0.0,0.0,0.0,0.0,0.0,0.0,0.0,0.0,0.0,0.0,0.0,0.0,-7.1992,-7.1992,-7.1992,-7.1949,-7.1795,-7.1848,-7.1543,-7.0803,-7.0562,-7.0141,-6.9446,-6.8603,-6.8182,-6.8115,-6.7135,-6.6749,-6.6834,-6.6462,-6.633,-6.6404,-6.6265,-6.642,-6.6734,-6.6346,-6.6411,-6.6749,-6.6489,-6.6393,0.0,-6.6451,-6.6468,-6.6462,-6.6413,-6.6489,-6.6561,-6.6321,-6.5047,-6.3413,-6.236,-6.181,-6.1654,-6.197,-6.1885,-6.1663,-6.1442,-6.1495,-6.1526,-6.1422,-6.1367,-6.1484,-6.1796,-6.2235,-6.2995,-6.4204,-6.4751,-6.5381,-6.6553,-6.7368,-6.8105,-6.8832,-6.9694,-7.0401,-7.0835,-7.0898,-7.0898,-7.0898,-7.0898,-7.0898,-7.0898,-7.0898,-7.0898,-7.0898,-7.0898,-7.0898,-7.0898,-7.0898,-7.0898,-7.0898,-7.0898,-7.0898,-7.0898,-7.0898,-7.0898,-7.0898,-7.0898,-7.0898,-7.0898,-7.0898,-7.0898,-7.0937,-7.1245,-7.136,-7.1398,-7.1706,-7.2168,-7.2668,-7.2668,-7.3206,-7.3822,0.0,0.0,0.0,0.0,0.0,0.0,0.0,0.0,0.0,0.0,0.0,0.0,0.0,0.0,0.0,0.0,0.0,0.0,-7.1992,-7.1992,-7.1949,-7.1839,-7.1948,-7.1949,-7.1795,-7.1056,-7.0668,-7.066,-6.9658,-6.9182,-6.9143,-6.8177,-6.7698,-6.7709,-6.6813,-6.6426,-6.6432,-6.6425,-6.6878,-6.7549,-6.6718,-6.692,-6.761,-6.6992,-6.6756,-6.6732,-6.6853,-6.6873,-6.6826,-6.6672,-6.66,-6.6503,-6.58,-6.4453,-6.3125,-6.3086,-6.2462,-6.1991,-6.2774,-6.2384,-6.1757,-6.1718,-6.1718,-6.1718,-6.1718,-6.1718,-6.1952,-6.2813,-6.2925,-6.344,-6.5262,-6.5207,-6.5549,-6.7498,-6.8311,-6.8991,-6.9744,-7.0623,-7.1112,-7.0925,-7.0898,-7.0898,-7.0898,-7.0898,-7.0898,-7.0898,-7.0898,-7.0898,-7.0898,-7.0898,-7.0898,-7.0898,-7.0898,-7.0898,-7.0898,-7.0898,-7.0898,-7.0898,-7.0898,-7.0898,-7.0898,-7.0937,-7.0975,-7.0975,-7.1014,-7.1014,-7.1091,-7.1937,-7.2283,-7.236,-7.3168,-7.3553,-7.3553,-7.3553,-7.4091,-7.4668,0.0,0.0,0.0,0.0,0.0,0.0,0.0,0.0,0.0,0.0,0.0,0.0,0.0,0.0,0.0,0.0,0.0,0.0,-7.1992,-7.1992,-7.1992,-7.195,-7.1992,-7.1949,-7.1795,-7.1708,-7.1579,-7.1434,-7.0622,-7.021,-7.0167,-6.8539,-6.7875,-6.8032,-6.7045,-6.6681,-6.6745,-6.6594,-6.7092,-6.7946,-6.7603,-6.8086,-6.8933,-6.8756,-6.8684,-6.861,-6.8,-6.7771,-6.7651,-6.6974,-6.6733,-6.6619,-6.5853,-6.5273,-6.4804,-6.414,-6.3828,-6.3555,-6.3125,-6.2852,-6.2501,-6.1874,-6.1718,-6.1718,-6.1718,-6.1718,-6.1952,-6.2813,-6.3506,-6.4241,-6.5387,-6.5975,-6.6429,-6.6873,-6.8006,-6.8867,-6.8914,-7.0127,-7.094,-7.0912,-7.0898,-7.0898,-7.0898,-7.0898,-7.0898,-7.0898,-7.0898,-7.0898,-7.0898,-7.0898,-7.0898,-7.0898,-7.0898,-7.0898,-7.0898,-7.0898,-7.0898,-7.0898,-7.0898,-7.0898,-7.0937,-7.1552,-7.186,-7.1898,-7.2552,-7.286,-7.286,-7.3091,-7.3168,-7.3206,-7.3399,-7.386,-7.4399,-7.4399,-7.4938,-7.563,0.0,0.0,0.0,0.0,0.0,0.0,0.0,0.0,0.0,0.0,0.0,0.0,0.0,0.0,0.0,0.0,0.0,0.0,0.0,-7.1992,-7.1992,-7.1992,-7.1992,-7.1951,-7.19,-7.1951,-7.1947,-7.1819,-7.1423,-7.1199,-7.1197,-6.9728,-6.916,-6.9258,-6.8311,-6.7916,-6.8,-6.7891,-6.839,0.0,0.0,-6.9146,-6.9918,-6.9567,-6.9411,-6.9333,-6.8864,-6.8435,-6.8044,-6.7537,-6.7107,-6.6678,-6.5858,-6.5585,-6.5507,-6.4999,-6.4609,-6.4299,-6.4179,-6.3867,-6.336,-6.2501,-6.2267,-6.2189,-6.1796,-6.1718,-6.1952,-6.2813,-6.3672,-6.457,-6.5429,-6.6124,-6.6844,-6.7569,-6.8334,-6.9023,-6.9639,-7.0471,-7.1005,-7.0912,-7.0898,-7.0898,-7.0898,-7.0898,-7.0898,-7.0898,-7.0898,-7.0898,-7.0898,-7.0898,-7.0898,-7.0898,-7.0898,-7.0898,-7.0898,-7.0898,-7.0898,-7.0898,-7.1283,-7.1475,-7.1514,-7.236,-7.2783,-7.2783,-7.3283,-7.3514,-7.3553,-7.3899,-7.4053,-7.4053,-7.4437,-7.4861,-7.5284,-7.5284,-7.5592,-7.6015,0.0,0.0,0.0,0.0,0.0,0.0,0.0,0.0,0.0,0.0,0.0,0.0,0.0,0.0,0.0,0.0,0.0,0.0,0.0,0.0,0.0,-7.1992,-7.1992,-7.1992,-7.1992,-7.1992,-7.1992,-7.1992,-7.1992,-7.1992,-7.1992,-7.1094,-7.0703,-7.0664,-6.9805,-6.9414,-6.9411,-6.9407,-6.9908,-7.064,-6.9887,-7.0077,-7.0777,0.0,0.0,0.0,-6.9606,-6.902,-6.8239,-6.8122,-6.7537,-6.6678,-6.5975,-6.5741,-6.5741,-6.5741,-6.5234,-6.4767,-6.5429,-6.5038,-6.4258,-6.3399,-6.3164,-6.293,-6.2071,-6.1874,-6.211,-6.3008,-6.375,-6.4611,-6.5585,-6.6093,-6.6873,-6.8527,-6.8746,-6.9234,-7.0634,-7.1037,-7.1089,-7.0925,-7.0898,-7.0898,-7.0898,-7.0898,-7.0898,-7.0898,-7.0898,-7.0898,-7.0898,-7.0898,-7.0898,-7.0898,-7.0898,-7.0898,-7.0898,-7.1014,-7.1052,-7.1091,-7.1975,-7.236,-7.2399,-7.3283,-7.3654,-7.3668,-7.3783,-7.3822,-7.3899,-7.4591,-7.4861,-7.4938,-7.5707,-7.6015,-7.6015,-7.6015,-7.6015,-7.6015,0.0,0.0,0.0,0.0,0.0,0.0,0.0,0.0,0.0,0.0,-7.1992,0.0,0.0,0.0,0.0,0.0,0.0,0.0,0.0,0.0,0.0,0.0,-7.1992,-7.1992,-7.1992,-7.1992,-7.1992,-7.1992,-7.1992,-7.1992,-7.1992,-7.1094,-7.0703,-7.0664,-6.9844,-6.9453,-6.9411,-6.9411,-6.9912,-7.0681,-7.0523,-7.0982,-7.1753,0.0,0.0,0.0,-7.0738,-6.9918,-6.9059,-6.8357,-6.7537,-6.6795,-6.6639,-6.66,-6.66,-6.66,-6.6483,-6.6249,-6.5741,-6.5507,-6.5155,-6.4297,-6.4065,-6.3867,-6.2969,-6.2774,-6.3008,-6.3906,-6.4182,-6.4767,-6.6327,-6.6661,-6.6783,-6.6995,-6.8052,-6.8924,-6.903,-7.0141,-7.0952,-7.0898,-7.0898,-7.0898,-7.0898,-7.0898,-7.0898,-7.0898,-7.0898,-7.0898,-7.0898,-7.0898,-7.0898,-7.0898,-7.0898,-7.0898,-7.0898,-7.1591,-7.1975,-7.1975,-7.286,-7.3283,-7.3322,-7.413,-7.4514,-7.4553,-7.5245,0.0,-7.5592,-7.5707,-7.5784,-7.5784,-7.5938,-7.6015,-7.6015,-7.6015,-7.6015,-7.6015,0.0,0.0,0.0,0.0,0.0,0.0,0.0,0.0,0.0,-7.1992,-7.1992,-7.1992,0.0,0.0,0.0,0.0,0.0,0.0,0.0,0.0,0.0,0.0,0.0,0.0,-7.1992,-7.1992,-7.1992,-7.1992,0.0,-7.1992,-7.1992,-7.1562,-7.1367,-7.1367,-7.0976,-7.0781,-7.0741,-7.074,-7.1009,-7.1389,-7.1384,-7.1648,0.0,0.0,0.0,0.0,0.0,-7.0816,-6.9996,-6.9606,-6.8552,-6.7381,-6.6951,-6.6795,-6.6795,-6.6795,-6.6795,-6.6717,-6.6327,-6.6209,-6.6014,-6.5194,-6.496,-6.4765,-6.3867,-6.3672,-6.3789,-6.4221,-6.4648,-6.5234,-6.6014,-6.6457,-6.6806,-6.7219,-6.8085,-6.8878,-6.9241,-7.022,-7.0898,-7.0898,-7.0898,-7.0898,-7.0898,-7.0898,-7.0898,-7.0898,-7.0898,-7.0898,-7.0898,-7.0898,-7.0898,-7.0898,-7.1321,-7.1591,-7.1591,-7.2437,-7.2899,-7.2899,-7.3707,-7.413,-7.4168,-7.4976,-7.5399,-7.5399,-7.5822,-7.6015,-7.6015,-7.6015,-7.6015,-7.6015,-7.6015,-7.6015,-7.6015,-7.6015,-7.6015,-7.6015,0.0,0.0,0.0,0.0,0.0,0.0,0.0,-7.1992,-7.1992,-7.1992,-7.1992,-7.1992,-7.1992,-7.1992,-7.1992,0.0,0.0,0.0,0.0,0.0,0.0,0.0,0.0,0.0,0.0,0.0,0.0,-7.1992,-7.1992,0.0,0.0,0.0,0.0,0.0,-7.1992,-7.1992,-7.1992,-7.1991,-7.1988,0.0,0.0,-7.2002,0.0,0.0,0.0,0.0,0.0,-7.1558,-7.0933,-7.0777,-6.9684,-6.8239,-6.7342,-6.6951,-6.6795,-6.6795,-6.6795,-6.6795,-6.6795,-6.6795,-6.6639,-6.6014,-6.5858,-6.5624,-6.4765,-6.457,-6.457,-6.457,-6.5116,-6.5663,-6.5819,-6.6283,-6.6853,-6.7525,-6.8233,-6.8907,-6.954,-7.0423,-7.0965,-7.0912,-7.0898,-7.0898,-7.0898,-7.0898,-7.0898,-7.0898,-7.0898,-7.0898,-7.0898,-7.0898,-7.0975,-7.1168,-7.1822,-7.2283,-7.2476,-7.3322,-7.3783,-7.3783,-7.4591,-7.4976,-7.5014,-7.5707,-7.6015,-7.6015,-7.6015,-7.6015,-7.6015,-7.6015,-7.6015,-7.6015,-7.6015,-7.6015,-7.6015,-7.6015,-7.6015,-7.6015,0.0,0.0,0.0,0.0,0.0,0.0,0.0,-7.1992,-7.1992,-7.1992,-7.1992,-7.1992,-7.1992,-7.1992,-7.1992,0.0,0.0,0.0,0.0,0.0,0.0,0.0,0.0,0.0,0.0,0.0,0.0,-7.1992,-7.1992,0.0,0.0,0.0,0.0,0.0,0.0,-7.1992,-7.1992,-7.1992,0.0,0.0,0.0,0.0,0.0,0.0,0.0,0.0,0.0,-7.1948,-7.1753,-7.0972,-7.0074,-6.9137,-6.8279,-6.7459,-6.6795,-6.6795,-6.6795,-6.6795,-6.6795,-6.6795,-6.6795,-6.6717,-6.6678,-6.6483,-6.5663,-6.5468,-6.5468,-6.5468,-6.5546,-6.5819,-6.6561,-6.6753,-6.6769,-6.6727,-6.8015,-6.8967,-6.8751,-7.0148,-7.1101,-7.0925,-7.0898,-7.0898,-7.0898,-7.0898,-7.0898,-7.0898,-7.0898,-7.0898,-7.0898,-7.0898,-7.1245,-7.2052,-7.2168,-7.2591,-7.336,-7.4168,-7.4591,-7.4591,-7.5476,-7.5861,-7.5861,-7.5976,-7.6015,-7.6015,-7.6015,-7.6015,0.0,-7.6015,-7.6015,-7.6015,-7.6015,-7.6015,-7.6015,-7.6015,-7.6015,-7.6092,0.0,0.0,0.0,0.0,0.0,0.0,0.0,-7.1992,-7.1992,-7.1992,-7.1992,-7.1992,-7.1992,-7.1992,-7.1992,0.0,0.0,0.0,0.0,0.0,0.0,0.0,0.0,0.0,0.0,0.0,-7.1992,-7.1992,-7.1484,0.0,0.0,0.0,0.0,0.0,0.0,-7.1992,-7.1992,-7.1992,0.0,0.0,0.0,0.0,0.0,0.0,0.0,0.0,0.0,0.0,-7.1948,-7.1597,-7.0894,-7.0035,-6.9176,-6.8279,-6.7498,-6.6951,-6.6795,-6.6795,-6.6795,-6.6795,-6.6795,-6.6795,-6.6795,-6.6717,-6.6405,-6.6327,-6.6327,-6.6327,-6.6327,-6.6405,-6.6756,-6.6795,-6.679,-6.6723,0.0,0.0,-6.8816,-7.0087,-7.0992,-7.0912,-7.0898,-7.0898,-7.0898,-7.0898,-7.0898,-7.0898,-7.0898,-7.1129,-7.1629,-7.1668,-7.1822,-7.2168,-7.3168,-7.386,-7.4207,-7.5053,-7.5476,-7.5476,-7.5822,-7.6015,-7.6015,-7.6015,-7.6015,-7.6015,-7.6015,-7.6015,0.0,-7.6015,-7.6015,-7.6015,-7.6015,-7.6015,-7.6015,-7.6015,-7.6322,-7.6823,0.0,0.0,0.0,0.0,0.0,0.0,-7.1992,-7.1992,-7.1992,-7.1992,-7.1992,-7.1992,-7.1992,-7.1992,-7.1992,-7.1992,0.0,0.0,0.0,0.0,0.0,0.0,0.0,0.0,0.0,0.0,-7.1992,-7.1992,-7.1133,-7.0703,0.0,0.0,-7.0312,-7.039,0.0,0.0,0.0,0.0,0.0,0.0,0.0,0.0,0.0,0.0,0.0,0.0,0.0,0.0,0.0,0.0,0.0,-7.0582,-6.9996,-6.902,0.0,-6.7068,-6.6795,-6.6795,-6.6795,-6.6795,-6.6795,-6.6795,-6.6795,-6.6795,-6.6795,-6.6795,-6.6795,-6.6795,-6.6795,-6.6795,-6.6795,-6.6795,-6.6795,0.0,0.0,-6.8956,-6.8909,-7.012,-7.0953,-7.0912,-7.0898,-7.0898,-7.0898,-7.0898,-7.0898,-7.0898,-7.1129,-7.1552,-7.2168,-7.2668,-7.2937,-7.2937,-7.4091,-7.4822,-7.5091,-7.5707,-7.6015,-7.6015,-7.6015,-7.6015,-7.6015,-7.6015,-7.6015,-7.6015,-7.6015,-7.6015,0.0,-7.6015,-7.6015,-7.6015,-7.6015,-7.6015,-7.6015,-7.6284,-7.6784,-7.7361,0.0,0.0,0.0,0.0,0.0,0.0,0.0,-7.1992,-7.1992,-7.1992,-7.1992,-7.1992,-7.1992,-7.1992,-7.1992,-7.1992,0.0,0.0,0.0,0.0,0.0,0.0,0.0,0.0,0.0,0.0,-7.1992,-7.1992,-7.1133,-7.0703,-7.0664,-6.9805,-6.9453,-6.9531,0.0,0.0,0.0,0.0,0.0,0.0,0.0,0.0,-7.1987,0.0,0.0,0.0,0.0,0.0,0.0,0.0,0.0,0.0,0.0,-6.9489,-6.7927,-6.7068,-6.6795,-6.6795,-6.6795,-6.6795,-6.6795,-6.6795,-6.6795,-6.6795,-6.6795,-6.6795,-6.6795,-6.6795,-6.6795,-6.6795,-6.6795,-6.6795,-6.6795,-6.6795,0.0,0.0,-6.8925,-7.0215,-7.1124,-7.0939,-7.0898,-7.0898,-7.0898,-7.0898,-7.0898,-7.0898,-7.1706,-7.2168,-7.2206,-7.3783,-7.4668,-7.4668,-7.4707,-7.513,-7.5976,-7.6015,-7.6015,-7.6015,-7.6015,-7.6015,-7.6015,-7.6015,-7.6015,-7.6015,-7.6015,-7.6015,0.0,-7.6015,-7.6015,-7.6015,-7.6015,-7.6015,-7.6092,-7.6976,-7.7284,-7.7553,0.0,0.0,0.0,0.0,0.0,0.0,0.0,-7.1854,-7.1854,-7.1854,-7.1854,-7.1903,-7.1992,-7.1992,-7.1992,-7.1992,0.0,0.0,0.0,0.0,0.0,0.0,0.0,0.0,0.0,0.0,-7.1992,-7.1992,-7.1133,-7.043,-6.9883,-6.9609,-6.914,-6.8633,-6.9453,-6.9844,0.0,0.0,0.0,0.0,0.0,-7.1987,-7.1987,0.0,0.0,0.0,0.0,0.0,0.0,0.0,0.0,0.0,0.0,0.0,0.0,-6.8122,-6.7264,-6.6795,-6.6795,-6.6795,-6.6795,-6.6795,-6.6795,-6.6795,-6.6795,-6.6795,-6.6795,-6.6795,-6.6795,-6.6795,-6.6795,-6.6795,-6.6795,-6.6795,0.0,0.0,0.0,-7.0131,-7.0966,-7.0912,-7.0898,-7.0898,-7.0898,-7.0898,-7.0898,-7.0898,-7.1706,-7.2476,-7.3053,-7.413,-7.4707,-7.4707,-7.5284,-7.5707,-7.6015,-7.6015,-7.6015,-7.6015,-7.6015,-7.6015,-7.6015,-7.6015,-7.6015,-7.6015,-7.6015,-7.6015,-7.6015,-7.6015,-7.6015,-7.6015,-7.6015,-7.6361,-7.6899,-7.7207,-7.8015,-7.9092,0.0,0.0,0.0,0.0,0.0,0.0,0.0,-7.1777,-7.1792,-7.1792,-7.1848,-7.1904,-7.1992,-7.1992,-7.1992,-7.1992,0.0,0.0,0.0,0.0,0.0,0.0,0.0,0.0,-7.1992,-7.1992,-7.1992,-7.1992,-7.1133,-7.043,-6.9922,-6.9297,-6.8711,-6.8203,-6.8711,-6.8984,0.0,0.0,0.0,0.0,-7.1527,-7.1714,-7.1987,0.0,0.0,0.0,0.0,0.0,0.0,0.0,0.0,0.0,0.0,0.0,0.0,0.0,-6.8474,-6.7654,-6.699,-6.6795,-6.6795,-6.6795,-6.6795,-6.6795,-6.6795,-6.6795,-6.6795,-6.6795,-6.6795,-6.6795,-6.6795,-6.6795,-6.6907,-6.7152,-6.817,0.0,-6.9234,-7.0201,-7.0898,-7.0898,-7.0898,-7.0898,-7.0898,-7.0898,-7.1052,-7.136,-7.2206,-7.3053,-7.3899,-7.4745,-7.5207,-7.5207,-7.5707,-7.6015,-7.6015,-7.6015,-7.6015,-7.6015,-7.6015,-7.6015,-7.6015,-7.6015,-7.6015,-7.6015,-7.6015,-7.6015,0.0,-7.6015,-7.6015,-7.6015,-7.6361,-7.6823,-7.7361,-7.8015,-7.89,-7.9862,0.0,0.0,0.0,0.0,0.0,0.0,0.0,0.0,0.0,0.0,-7.1898,-7.1951,-7.1991,-7.1992,-7.1992,0.0,0.0,0.0,0.0,0.0,0.0,0.0,0.0,0.0,-7.1992,-7.1992,-7.1992,-7.1992,-7.1172,-7.0742,-7.0664,-6.9101,-6.832,-6.8203,-6.8203,-6.8203,-6.8242,-6.8978,-6.9794,-7.0611,-7.067,-7.1167,0.0,0.0,0.0,0.0,0.0,0.0,0.0,0.0,0.0,0.0,0.0,0.0,0.0,0.0,0.0,0.0,0.0,-6.6951,-6.6873,-6.6834,-6.6795,-6.6795,-6.6795,-6.6795,0.0,-6.6795,-6.6795,-6.6795,-6.6795,-6.6795,-6.7049,-6.7774,-6.8461,-6.9144,-6.9793,-7.0478,-7.0898,-7.0898,-7.0898,-7.0898,-7.0898,-7.0898,-7.1245,-7.2129,-7.3014,-7.386,-7.4668,-7.5515,-7.6015,-7.6015,-7.6015,-7.6015,-7.6015,-7.6015,-7.6015,-7.6015,-7.6015,-7.6015,-7.6015,-7.6015,-7.6015,0.0,-7.6015,-7.6015,-7.6015,-7.6015,-7.6053,-7.6169,-7.6976,-7.7361,-7.7669,-7.9246,-7.9862,-8.0015,0.0,0.0,0.0,0.0,0.0,0.0,0.0,0.0,0.0,0.0,-7.1589,-7.1644,-7.1764,-7.1825,-7.185,0.0,0.0,0.0,0.0,0.0,0.0,0.0,0.0,0.0,-7.1992,-7.1992,-7.1992,-7.1992,-7.1797,-7.1367,-7.0703,-7.0312,-6.9414,-6.8203,-6.8203,-6.8203,-6.8201,-6.8352,-6.8893,-6.9744,-7.0431,-7.0816,0.0,0.0,0.0,0.0,-7.1987,-7.1987,0.0,0.0,0.0,0.0,0.0,0.0,0.0,0.0,-7.0543,-7.0152,-6.9098,0.0,-6.7615,-6.6951,-6.6795,-6.6795,0.0,-6.6795,-6.6795,-6.6795,-6.6795,-6.6795,-6.6795,-6.6795,-6.7049,-6.7774,-6.8461,-6.9144,-6.9793,-7.0478,-7.0898,-7.0898,-7.0898,-7.0898,-7.0898,-7.0898,-7.1245,-7.2129,-7.3014,-7.386,-7.4668,-7.5515,-7.6015,-7.6015,-7.6015,-7.6015,-7.6015,-7.6015,-7.6015,-7.6015,-7.6015,-7.6015,-7.6015,-7.6015,-7.6015,-7.6015,-7.6015,-7.6015,-7.6015,-7.6015,-7.6399,-7.7015,-7.7207,-7.8092,-7.9246,-7.9669,-8.0208,-8.0823,0.0,0.0,0.0,0.0,0.0,0.0,0.0,0.0,0.0,0.0,0.0,0.0,0.0,0.0,0.0,0.0,0.0,0.0,0.0,0.0,0.0,0.0,0.0,-7.1992,-7.1992,-7.1992,-7.1992,-7.1992,-7.1992,-7.1758,-7.1289,-7.0898,-7.0234,-6.9297,-6.8555,-6.8203,-6.8161,-6.7726,-6.8032,-6.8882,-6.9767,0.0,0.0,0.0,0.0,0.0,-7.1987,-7.1987,0.0,-7.1987,-7.1987,-7.1987,0.0,0.0,0.0,0.0,-7.1285,-7.1128,-7.023,-6.9059,-6.8005,-6.7498,-6.7107,-6.6795,-6.6795,-6.6795,-6.6795,-6.6795,-6.6795,-6.6795,-6.6795,-6.7084,-6.7547,-6.831,-6.8948,-6.9595,-7.0254,-7.0684,-7.0898,-7.0898,-7.0898,-7.0898,-7.0898,-7.1245,-7.186,-7.2745,-7.3591,-7.4437,-7.5245,-7.5745,-7.6015,-7.6015,-7.6015,-7.6015,-7.6015,-7.6015,-7.6015,-7.6015,-7.6015,-7.6015,-7.6015,-7.6015,-7.6015,-7.6015,-7.6015,-7.6015,-7.6015,-7.6015,-7.6515,-7.7323,-7.7707,-7.8631,-7.9862,-8.0246,-8.0708,-8.1093,0.0,0.0,0.0,0.0,0.0,0.0,0.0,0.0,0.0,0.0,0.0,0.0,0.0,0.0,0.0,0.0,0.0,0.0,0.0,0.0,0.0,0.0,-7.1992,-7.1992,-7.1992,-7.1992,-7.1992,-7.1992,-7.1992,-7.1992,-7.1992,-7.125,-7.082,-7.0625,-6.8945,-6.8202,-6.8122,-6.7256,-6.7289,-6.7982,-6.8986,0.0,0.0,0.0,0.0,0.0,0.0,0.0,0.0,-7.1987,-7.1987,-7.1987,-7.1987,0.0,0.0,0.0,0.0,0.0,-7.1089,-6.9723,-6.8474,-6.8318,-6.7654,-6.699,-6.699,-6.6912,-6.6795,-6.6795,-6.6795,-6.6832,-6.694,-6.7516,-6.8193,-6.9071,-6.97,-7.0254,-7.081,-7.0898,-7.0898,-7.0898,-7.0898,-7.0898,-7.0898,-7.1668,-7.2552,-7.3437,-7.4245,-7.5091,-7.5938,-7.6015,-7.6015,-7.6015,-7.6015,-7.6015,-7.6015,-7.6015,-7.6015,-7.6015,-7.6015,-7.6015,-7.6015,-7.6015,-7.6015,-7.6015,-7.6015,0.0,-7.6015,-7.613,-7.6707,-7.7553,-7.8361,-7.9246,-8.0092,-8.0823,-8.1093,-8.1093,0.0,0.0,0.0,0.0,0.0,0.0,0.0,0.0,0.0,0.0,0.0,0.0,0.0,0.0,0.0,0.0,0.0,0.0,0.0,0.0,0.0,-7.1992,-7.1992,-7.1992,-7.1992,-7.1992,-7.1992,-7.1992,-7.1992,-7.1992,-7.1992,-7.1875,-7.1406,-7.0625,-6.8944,-6.8201,-6.8122,-6.7212,-6.6891,-6.7123,-6.8752,0.0,0.0,0.0,0.0,0.0,0.0,0.0,0.0,-7.1987,-7.1987,-7.1987,-7.1987,0.0,0.0,0.0,0.0,0.0,-7.1831,-7.1089,-7.0113,-6.9372,-6.8552,-6.7888,-6.7888,-6.7342,-6.6795,-6.6795,-6.6795,-6.6974,-6.7603,-6.7914,-6.8427,-6.9594,-7.0305,-7.0785,-7.0898,-7.0898,-7.0898,-7.0898,-7.0898,-7.0898,-7.0898,-7.1668,-7.2552,-7.3437,-7.4245,-7.5091,-7.5938,-7.6015,-7.6015,-7.6015,-7.6015,-7.6015,-7.6015,-7.6015,-7.6015,-7.6015,-7.6015,-7.6015,-7.6015,-7.6015,-7.6015,-7.6015,0.0,-7.6015,-7.6053,-7.6784,-7.7592,-7.84,-7.9246,-8.0131,-8.0939,-8.1054,-8.1093,-8.1093,0.0,0.0,0.0,0.0,0.0,0.0,0.0,0.0,0.0,0.0,0.0,0.0,0.0,0.0,0.0,0.0,0.0,0.0,0.0,0.0,-7.1908,-7.1992,-7.1992,-7.1992,-7.1992,-7.1992,-7.1992,-7.1992,-7.1992,-7.1992,-7.1992,-7.1992,-7.1797,-7.1367,-7.0116,-6.9567,-6.9446,-6.8107,-6.7512,-6.7622,0.0,0.0,0.0,0.0,0.0,0.0,0.0,0.0,0.0,0.0,-7.1987,-7.1987,-7.1987,0.0,0.0,0.0,0.0,0.0,-7.1987,-7.1714,-7.1324,-7.0894,-6.9801,-6.8669,-6.82,-6.7771,-6.7381,-6.6912,-6.7185,-6.7595,-6.7852,-6.8644,-6.9498,-7.0328,-7.0797,-7.103,-7.0925,-7.0898,-7.0898,-7.0898,-7.0898,-7.0898,-7.0898,-7.2129,-7.3091,-7.3476,-7.4668,-7.5592,-7.5976,-7.6015,-7.6015,-7.6015,-7.6015,-7.6015,-7.6015,-7.6015,-7.6015,-7.6015,-7.6015,-7.6015,-7.6015,-7.6015,-7.6015,-7.6015,0.0,-7.6015,-7.6053,-7.6938,-7.7746,-7.8592,-7.9477,-8.0323,-8.1093,-8.1093,-8.1093,-8.1093,0.0,0.0,0.0,0.0,0.0,0.0,0.0,0.0,0.0,0.0,0.0,0.0,0.0,0.0,0.0,0.0,0.0,0.0,0.0,0.0,-7.1848,-7.195,-7.1992,-7.1992,-7.1992,-7.1992,-7.1992,-7.1992,-7.1992,-7.1992,-7.1992,-7.1992,-7.1992,-7.1953,-7.109,-7.0695,-7.0611,-6.908,-6.8405,-6.8474,0.0,0.0,0.0,0.0,0.0,0.0,0.0,0.0,0.0,0.0,0.0,0.0,0.0,0.0,0.0,-7.1987,-7.1987,-7.1987,-7.1987,-7.1987,-7.1987,-7.1987,-7.0855,-6.9528,-6.8864,-6.8552,-6.82,-6.7537,-6.7916,-6.8355,-6.8471,-6.9568,-7.0583,-7.0949,-7.1077,-7.1065,-7.0925,-7.0898,-7.0898,-7.0898,-7.0898,-7.0898,-7.0898,-7.2476,-7.3514,-7.3514,-7.5053,-7.6015,-7.6015,-7.6015,-7.6015,-7.6015,-7.6015,-7.6015,-7.6015,-7.6015,-7.6015,-7.6015,-7.6015,-7.6015,-7.6015,-7.6015,-7.6015,-7.6015,-7.6015,-7.613,-7.6361,-7.7207,-7.8054,-7.89,-7.9746,-8.0516,-8.1093,-8.1093,-8.1093,-8.1093,0.0,0.0,0.0,0.0,0.0,0.0,0.0,0.0,0.0,0.0,0.0,0.0,0.0,0.0,0.0,0.0,0.0,0.0,0.0,0.0,-7.1795,-7.1797,-7.1948,-7.1992,-7.1992,-7.1992,-7.1992,-7.1992,-7.1992,-7.1992,-7.1992,-7.1991,-7.199,-7.195,-7.108,-7.0683,-7.0642,-6.9692,-6.9296,-6.9372,-7.027,0.0,0.0,0.0,0.0,0.0,0.0,0.0,0.0,0.0,0.0,0.0,0.0,0.0,-7.1987,-7.1987,-7.1987,-7.1987,-7.1987,-7.1987,-7.1987,-7.1987,-7.1285,-7.0582,-7.0543,-6.9879,-6.9294,-6.9215,-6.9124,-6.9289,-7.0058,-7.0718,-7.1221,-7.1422,-7.1158,-7.0925,-7.0898,-7.0898,-7.0898,-7.0898,-7.0898,-7.0898,-7.0898,-7.2476,-7.3514,-7.3514,-7.5053,-7.6015,-7.6015,-7.6015,-7.6015,-7.6015,-7.6015,-7.6015,-7.6015,-7.6015,-7.6015,-7.6015,-7.6015,-7.6015,-7.6015,-7.6015,-7.6015,-7.6015,-7.6015,-7.6476,-7.7284,-7.8092,-7.89,-7.9785,-8.0669,-8.1054,-8.1093,-8.1093,-8.1093,-8.1093,0.0,0.0,0.0,0.0,0.0,0.0,0.0,0.0,0.0,0.0,0.0,0.0,0.0,0.0,0.0,0.0,0.0,0.0,0.0,-7.1589,-7.165,-7.172,-7.1834,-7.1897,-7.1897,-7.1951,-7.1992,-7.1992,-7.1992,-7.1992,-7.1991,-7.199,-7.1988,-7.1985,-7.1661,-7.1499,-7.146,-7.0587,-7.0191,-7.023,-7.0582,-7.0699,0.0,0.0,0.0,0.0,0.0,0.0,0.0,0.0,-7.1987,-7.1987,0.0,-7.1987,-7.1987,-7.1987,-7.1987,-7.1987,-7.1987,-7.1987,-7.1987,-7.1987,-7.1753,-7.1363,-7.0816,-7.0465,-7.0035,-6.9528,-6.9662,-7.0128,-7.0788,-7.0982,-7.1055,-7.1112,-7.1005,-7.0898,-7.0898,-7.0898,-7.0898,-7.0898,-7.0898,-7.1091,-7.1668,-7.2783,-7.3707,-7.4207,-7.5361,-7.6015,-7.6015,-7.6015,-7.6015,-7.6015,-7.6015,-7.6015,-7.6015,-7.6015,-7.6015,-7.6015,-7.6015,-7.6015,-7.6015,-7.6015,-7.6015,-7.6015,-7.6015,-7.6476,-7.7361,-7.8169,-7.9015,-7.99,-8.0746,-8.1093,-8.1093,-8.1093,-8.1093,-8.1093,0.0,0.0,0.0,0.0,0.0,0.0,0.0,0.0,0.0,0.0,0.0,0.0,0.0,0.0,0.0,0.0,0.0,0.0,-7.1851,-7.1875,-7.1847,-7.1634,-7.1741,-7.1792,-7.1792,-7.1948,-7.1992,-7.1992,-7.1992,-7.1991,-7.1989,-7.1987,-7.1982,-7.2016,-7.2006,-7.2,-7.1961,-7.1365,-7.1128,-7.1128,-7.1128,-7.1128,0.0,0.0,0.0,0.0,0.0,0.0,0.0,0.0,-7.1987,0.0,0.0,0.0,0.0,-7.1987,-7.1987,-7.1987,-7.1987,-7.1987,-7.1987,-7.1987,-7.1987,-7.1825,-7.1179,-7.1019,-7.0863,-7.0239,-7.0502,-7.0875,-7.1144,-7.1147,-7.1053,-7.1005,-7.0952,-7.0898,-7.0898,-7.0898,-7.0898,-7.0898,-7.0898,-7.1245,-7.2129,-7.2976,-7.3808,-7.463,-7.5515,-7.6015,-7.6015,-7.6015,-7.6015,-7.6015,-7.6015,-7.6015,-7.6015,-7.6015,-7.6015,-7.6015,-7.6015,-7.6015,-7.6015,-7.6015,-7.6015,-7.6015,-7.6015,-7.663,-7.7707,-7.8246,-7.9169,-8.0285,-8.0862,-8.1093,-8.1093,-8.1093,-8.1093,-8.1093,0.0,0.0,0.0,0.0,0.0,0.0,0.0,0.0,0.0,0.0,0.0,0.0,0.0,0.0,0.0,0.0,0.0,0.0,-7.2684,-7.2734,-7.2405,-7.1559,-7.1707,-7.1789,-7.1792,-7.1948,-7.1992,-7.1992,-7.1991,-7.1989,-7.1989,-7.2016,-7.2006,-7.2006,-7.1993,-7.1987,-7.1987,-7.1987,-7.1987,-7.1987,-7.1987,-7.1987,-7.1987,0.0,0.0,0.0,0.0,0.0,0.0,0.0,-7.1987,0.0,0.0,0.0,0.0,0.0,-7.1987,-7.1987,-7.1987,-7.1987,-7.1987,-7.1987,-7.1987,-7.193,-7.1765,-7.17,-7.17,-7.17,-7.17,-7.1576,-7.126,-7.1349,-7.1422,-7.1246,-7.1042,-7.0898,-7.0898,-7.0898,-7.0898,-7.0898,-7.0898,-7.1245,-7.2129,-7.2976,-7.386,-7.4668,-7.5515,-7.6015,-7.6015,-7.6015,-7.6015,-7.6015,-7.6015,-7.6015,-7.6015,-7.6015,-7.6015,-7.6015,-7.6015,-7.6015,-7.6015,-7.6015,-7.6015,-7.6015,-7.6015,-7.6938,-7.8477,-7.853,-7.9554,-8.1093,-8.1093,-8.1093,-8.1093,-8.1093,-8.1093,-8.1093,0.0,0.0,0.0,0.0,0.0,0.0,0.0,0.0,0.0,0.0,0.0,0.0,0.0,0.0,0.0,0.0,0.0,0.0,-7.3535,-7.3562,-7.3168,-7.2316,-7.2375,-7.2212,-7.1721,-7.1919,-7.1988,-7.1991,-7.1987,-7.1981,-7.2016,-7.2008,-7.2002,-7.1993,-7.199,-7.1987,-7.1987,-7.1987,-7.1987,-7.1987,-7.1987,-7.1987,-7.1987,0.0,0.0,0.0,0.0,0.0,0.0,0.0,0.0,0.0,0.0,0.0,0.0,-7.1987,-7.1987,-7.1987,-7.1987,-7.1913,-7.1803,-7.1976,-7.1828,-7.1673,-7.1689,-7.1798,-7.1846,-7.1601,-7.1465,-7.129,-7.1016,-7.1055,-7.1079,-7.1005,-7.0952,-7.0898,-7.0898,-7.0898,-7.0898,-7.0898,-7.0898,-7.1475,-7.2976,-7.336,-7.4091,-7.5515,-7.5861,-7.6015,-7.6015,-7.6015,-7.6015,-7.6015,-7.6015,-7.6015,-7.6015,-7.6015,-7.6015,-7.6015,-7.6015,-7.6015,-7.6015,-7.6015,-7.6015,-7.6015,-7.663,-7.7515,-7.8592,-7.9823,-8.0631,-8.1093,-8.1093,-8.1093,-8.1093,-8.1093,-8.1093,-8.1093,0.0,0.0,0.0,0.0,0.0,0.0,0.0,0.0,0.0,0.0,-7.6326,-7.6326,0.0,0.0,0.0,0.0,0.0,0.0,0.0,-7.4304,-7.3918,-7.3068,-7.3101,-7.2857,-7.2245,-7.2057,-7.2017,-7.1984,-7.2017,-7.2012,-7.2006,-7.2002,-7.1995,-7.1987,-7.1987,-7.1987,-7.1987,-7.1987,-7.1987,-7.1987,-7.1987,-7.1987,-7.1987,0.0,0.0,0.0,0.0,0.0,0.0,0.0,0.0,0.0,0.0,0.0,0.0,-7.1987,-7.193,-7.1866,-7.1866,-7.176,-7.1647,-7.176,-7.166,-7.1513,-7.1608,-7.1647,-7.1601,-7.132,-7.1246,-7.1147,-7.0952,-7.0953,-7.0992,-7.0912,-7.0898,-7.0898,-7.0898,-7.0898,-7.0898,-7.0898,-7.0898,-7.1591,-7.3322,-7.3514,-7.4207,-7.5861,-7.6015,-7.6015,-7.6015,-7.6015,-7.6015,-7.6015,-7.6015,-7.6015,-7.6015,-7.6015,-7.6015,-7.6015,-7.6015,-7.6015,-7.6015,-7.6015,-7.6015,-7.6053,-7.7246,-7.8246,-7.9131,-8.0516,-8.1093,-8.1093,-8.1093,-8.1093,-8.1093,-8.1093,-8.1093,-8.1093,0.0,0.0,-7.6062,-7.6029,0.0,0.0,0.0,0.0,0.0,0.0,-7.6198,-7.6198,0.0,0.0,0.0,0.0,0.0,0.0,0.0,0.0,-7.4693,-7.392,-7.3865,-7.3581,-7.3007,-7.2411,-7.2082,-7.2004,-7.2004,-7.2004,-7.2004,-7.1993,-7.1987,-7.1987,-7.1987,-7.1987,-7.1987,-7.1987,-7.1987,-7.1987,-7.1987,-7.1987,-7.1987,-7.1987,0.0,0.0,0.0,0.0,0.0,0.0,0.0,0.0,-7.1987,-7.1987,-7.1987,-7.1987,-7.1858,-7.17,-7.17,-7.1594,-7.1465,-7.152,-7.1473,-7.1456,-7.1439,-7.129,-7.1124,-7.0953,-7.1079,-7.1112,-7.0952,-7.1067,-7.1112,-7.0939,-7.0898,-7.0898,-7.0898,-7.0898,-7.0898,-7.0898,-7.0975,-7.1668,-7.336,-7.3591,-7.4284,-7.5861,-7.6015,-7.6015,-7.6015,-7.6015,-7.6015,-7.6015,-7.6015,-7.6015,-7.6015,-7.6015,-7.6015,-7.6015,-7.6015,-7.6015,-7.6015,-7.6015,-7.6092,-7.6322,-7.7823,-7.9054,-7.9977,-8.0785,-8.1093,-8.1093,-8.1093,-8.1093,-8.1093,-8.1093,-8.1093,-8.1093,0.0,0.0,-7.6029,-7.6015,0.0,0.0,0.0,0.0,0.0,0.0,0.0,0.0,0.0,-7.6198,0.0,0.0,0.0,0.0,0.0,0.0,-7.5847,-7.5158,-7.458,-7.387,-7.3002,-7.3013,-7.2693,-7.1993,-7.1993,-7.1993,-7.1993,-7.199,-7.1987,-7.1987,-7.1987,-7.1987,-7.1987,-7.1987,-7.1987,-7.1987,-7.1987,-7.1987,-7.1987,-7.1987,-7.1987,0.0,0.0,0.0,0.0,0.0,0.0,0.0,-7.1987,-7.1987,-7.1987,-7.1987,-7.1858,-7.17,-7.17,-7.1474,-7.129,-7.1448,-7.1367,-7.1208,-7.1091,-7.0992,-7.0992,-7.1112,-7.1016,-7.094,-7.0912,-7.0952,-7.0927,-7.0912,-7.0898,-7.0898,-7.0898,-7.0898,-7.0898,-7.0898,-7.1514,-7.2322,-7.3399,-7.4091,-7.4899,-7.5938,-7.6015,-7.6015,-7.6015,-7.6015,-7.6015,-7.6015,-7.6015,-7.6015,-7.6015,-7.6015,-7.6015,-7.6015,-7.6015,-7.6015,-7.6015,-7.6015,-7.6707,-7.7977,-7.8323,-7.9361,-8.0823,-8.1016,-8.1093,-8.1093,-8.1093,-8.1093,-8.1093,-8.1093,-8.1093,-8.1093,0.0,0.0,0.0,0.0,0.0,0.0,0.0,0.0,0.0,0.0,0.0,0.0,0.0,-7.609,0.0,0.0,-7.609,0.0,0.0,-7.6355,-7.6283,-7.6054,-7.5372,-7.4756,-7.4272,-7.363,-7.308,-7.2612,-7.2182,-7.1987,-7.1987,-7.1987,-7.1987,-7.1987,-7.1987,-7.1987,-7.1987,-7.1987,-7.1987,-7.1987,-7.1987,-7.1987,-7.1987,-7.1987,-7.1987,-7.1987,-7.1987,0.0,0.0,0.0,0.0,0.0,0.0,0.0,-7.1987,-7.1987,-7.1858,-7.1689,-7.1628,-7.1422,-7.1214,-7.1225,-7.1136,-7.1042,-7.0939,-7.0898,-7.0939,-7.1042,-7.0966,-7.0898,-7.0898,-7.0898,-7.0898,-7.0898,-7.0898,-7.0898,-7.0898,-7.0898,-7.0898,-7.0898,-7.1668,-7.2552,-7.3437,-7.4245,-7.5053,-7.5938,-7.6015,-7.6015,-7.6015,-7.6015,-7.6015,-7.6015,-7.6015,-7.6015,-7.6015,-7.6015,-7.6015,-7.6015,-7.6015,-7.6015,-7.6015,-7.6438,-7.7323,-7.8515,-7.8938,-7.9862,-8.1093,-8.1093,-8.1093,-8.1093,-8.1093,-8.1093,-8.1093,-8.1093,-8.1093,-8.1093,0.0,0.0,0.0,0.0,0.0,0.0,0.0,0.0,0.0,0.0,0.0,0.0,0.0,0.0,-7.6015,0.0,0.0,0.0,0.0,-7.6246,-7.6448,-7.6613,-7.6144,-7.578,-7.5624,-7.4219,-7.3432,-7.3312,-7.2417,-7.1987,-7.1987,-7.1987,-7.1987,-7.1987,-7.1987,-7.1987,-7.1987,-7.1987,-7.1987,-7.1987,-7.1987,-7.1987,-7.1987,-7.1987,-7.1987,-7.1987,-7.1987,-7.1987,-7.1987,-7.1987,0.0,0.0,0.0,0.0,-7.193,-7.1916,-7.177,-7.1615,-7.1513,-7.1339,-7.1158,-7.0927,-7.0898,-7.0898,-7.0898,-7.0898,-7.0898,-7.0898,-7.0898,-7.0898,-7.0898,-7.0898,-7.0898,-7.0898,-7.0898,-7.0898,-7.0898,-7.0898,-7.0898,-7.0898,-7.1783,-7.2706,-7.3437,-7.4361,-7.5207,-7.5938,-7.6015,-7.6015,-7.6015,-7.6015,-7.6015,-7.6015,-7.6015,-7.6015,-7.6015,-7.6015,-7.6015,-7.6015,-7.6015,-7.6015,-7.6015,-7.7053,-7.7861,-7.8554,-7.9438,-8.0285,-8.1093,-8.1093,-8.1093,-8.1093,-8.1093,-8.1093,-8.1093,-8.1093,-8.1093,-8.1093,0.0,0.0,0.0,0.0,0.0,0.0,0.0,0.0,0.0,0.0,-7.6015,-7.6015,0.0,0.0,0.0,-7.6015,-7.6015,0.0,-7.626,0.0,0.0,-7.6774,-7.6847,-7.6542,-7.5801,-7.4834,-7.4017,-7.3312,-7.2417,-7.1987,-7.1987,-7.1987,-7.1987,-7.1987,-7.1987,-7.1987,-7.1987,-7.1987,-7.1987,-7.1987,-7.1987,-7.1987,-7.1987,-7.1987,-7.1987,-7.1987,-7.1987,-7.1987,-7.1987,-7.1987,-7.1987,0.0,0.0,0.0,-7.1705,-7.1587,-7.1422,-7.13,-7.1448,-7.1339,-7.1158,-7.0927,-7.0898,-7.0898,-7.0898,-7.0898,-7.0898,-7.0898,-7.0898,-7.0898,-7.0898,-7.0898,-7.0898,-7.0898,-7.0898,-7.0898,-7.0898,-7.0898,-7.0898,-7.0898,-7.236,-7.336,-7.35,-7.4899,-7.5861,-7.5976,-7.6015,-7.6015,-7.6015,-7.6015,-7.6015,-7.6015,-7.6015,-7.6015,-7.6015,-7.6015,-7.6015,-7.6015,-7.6015,-7.6015,-7.6053,-7.763,-7.84,-7.8554,-7.9438,-8.0285,-8.1093,-8.1093,-8.1093,-8.1093,-8.1093,-8.1093,-8.1093,-8.1093,-8.1093,-8.1093,0.0,0.0,0.0,0.0,0.0,0.0,0.0,0.0,0.0,0.0,0.0,-7.6015,0.0,0.0,0.0,-7.6015,-7.6015,-7.6104,-7.6308,-7.6438,0.0,-7.6684,-7.6861,-7.6761,-7.637,-7.5638,-7.4837,-7.3978,-7.3158,-7.2495,-7.1987,-7.1987,-7.1987,-7.1987,-7.1987,-7.1987,-7.1987,-7.1987,-7.1987,-7.1987,-7.1987,-7.1927,-7.1854,-7.1976,-7.1897,-7.1728,-7.1789,-7.1775,-7.1716,-7.1716,-7.1716,-7.171,-7.1608,0.0,0.0,0.0,-7.1422,-7.1358,-7.1329,-7.1203,-7.1017,-7.0925,-7.0898,-7.0898,-7.0898,-7.0898,-7.0898,-7.0898,-7.0898,-7.0898,-7.0898,-7.0898,-7.0898,-7.0898,-7.0898,-7.0898,-7.0898,-7.0898,-7.0898,-7.0898,-7.2437,-7.3514,-7.3514,-7.5014,-7.6015,-7.6015,-7.6015,-7.6015,-7.6015,-7.6015,-7.6015,-7.6015,-7.6015,-7.6015,-7.6015,-7.6015,-7.6015,-7.6015,-7.6015,-7.6245,-7.6784,-7.7938,-7.8477,-7.8592,-7.9939,-8.0746,-8.1093,-8.1093,-8.1093,-8.1093,-8.1093,-8.1093,-8.1093,-8.1093,-8.1093,-8.117,0.0,0.0,0.0,0.0,0.0,0.0,0.0,0.0,0.0,0.0,0.0,0.0,0.0,0.0,0.0,0.0,-7.6015,-7.6076,-7.6211,0.0,0.0,0.0,0.0,-7.6804,-7.6804,-7.6127,-7.5384,-7.4486,-7.3705,-7.2846,-7.1987,-7.1987,-7.1987,-7.1987,-7.1987,-7.1987,-7.1987,-7.1987,-7.1987,-7.1987,-7.193,-7.1846,-7.1705,-7.1837,-7.1716,-7.1497,-7.1615,-7.1587,-7.1481,-7.1481,-7.1481,-7.1473,-7.143,-7.1413,0.0,0.0,0.0,-7.1367,-7.1192,-7.1029,-7.0953,-7.0912,-7.0898,-7.0898,-7.0898,-7.0898,-7.0898,-7.0898,-7.0898,-7.0898,-7.0898,-7.0898,-7.0898,-7.0898,-7.0898,-7.0898,-7.0898,-7.0898,-7.0975,-7.1206,-7.2591,-7.3591,-7.3783,-7.513,-7.6015,-7.6015,-7.6015,-7.6015,-7.6015,-7.6015,-7.6015,-7.6015,-7.6015,-7.6015,-7.6015,-7.6015,-7.6015,-7.6015,-7.6207,-7.6669,-7.7323,-7.8361,-7.8823,-7.89,-8.0439,-8.1093,-8.1093,-8.1093,-8.1093,-8.1093,-8.1093,-8.1093,-8.1093,-8.1093,-8.1093,-8.1208,0.0,0.0,0.0,0.0,0.0,0.0,0.0,0.0,0.0,0.0,0.0,0.0,-7.6015,-7.6015,-7.6015,-7.6015,-7.6015,-7.5976,-7.6005,-7.6186,0.0,0.0,0.0,0.0,-7.6804,-7.6127,-7.5384,-7.4486,-7.3705,-7.2846,-7.1987,-7.1987,-7.1987,-7.1987,-7.1987,-7.1987,-7.1987,-7.1987,-7.1987,-7.1982,-7.1789,-7.1705,-7.1689,-7.1566,-7.1536,-7.1481,-7.1489,-7.1528,-7.1481,-7.1481,-7.1481,-7.1456,-7.126,-7.1236,-7.1192,0.0,0.0,0.0,-7.0966,-7.1067,-7.1147,-7.0965,-7.0898,-7.0898,-7.0898,-7.0898,-7.0898,-7.0898,-7.0898,-7.0898,-7.0898,-7.0898,-7.0898,-7.0898,-7.0898,-7.0898,-7.0898,-7.0898,-7.1206,-7.2014,-7.2937,-7.3822,-7.4553,-7.5476,-7.6015,-7.6015,-7.6015,-7.6015,-7.6015,-7.6015,-7.6015,-7.6015,-7.6015,-7.6015,-7.6015,-7.6015,-7.6015,-7.6015,-7.6823,-7.7246,-7.7361,-7.8977,-7.9746,-7.9785,-8.0708,-8.1093,-8.1093,-8.1093,-8.1093,-8.1093,-8.1093,-8.1093,-8.1093,-8.1093,-8.1093,-8.1208,0.0,0.0,0.0,0.0,0.0,0.0,0.0,0.0,0.0,0.0,0.0,0.0,0.0,-7.6015,-7.6015,-7.6015,-7.6015,-7.6015,-7.6015,-7.6076,0.0,0.0,0.0,0.0,0.0,-7.645,-7.6044,-7.5225,-7.4425,-7.3666,-7.2807,-7.226,-7.1927,-7.1798,-7.193,-7.1987,-7.1984,-7.1862,-7.1798,-7.1789,-7.1628,-7.1505,-7.1374,-7.1465,-7.1329,-7.1136,-7.125,-7.1208,-7.1112,-7.1112,-7.1112,-7.1101,-7.1042,-7.1017,-7.0992,-7.0925,-7.094,-7.0992,-7.0925,-7.094,-7.0992,-7.0925,-7.0898,-7.0898,-7.0898,-7.0898,-7.0898,-7.0898,-7.0898,-7.0898,-7.0898,-7.0898,-7.0898,-7.0898,-7.0898,-7.0898,-7.0898,-7.0898,-7.1206,-7.2091,-7.2976,-7.3822,-7.463,-7.5476,-7.6015,-7.6015,-7.6015,-7.6015,-7.6015,-7.6015,-7.6015,-7.6015,-7.6015,-7.6015,-7.6015,-7.6015,-7.6015,-7.6015,-7.6861,-7.7553,-7.8092,-7.9285,-8.0131,-8.0669,-8.0977,-8.1093,-8.1093,-8.1093,-8.1093,-8.1093,-8.1093,-8.1093,-8.1093,-8.1093,-8.1439,-8.1977,0.0,0.0,0.0,0.0,0.0,0.0,0.0,0.0,0.0,-7.6015,0.0,0.0,0.0,0.0,-7.6015,-7.6015,-7.6015,-7.6015,-7.6015,-7.6015,-7.6015,-7.6015,0.0,0.0,0.0,-7.6285,-7.6034,-7.5489,-7.4717,-7.3895,-7.3076,-7.2491,-7.2028,-7.1641,-7.176,-7.1833,-7.1828,-7.1671,-7.1634,-7.1628,-7.1465,-7.131,-7.1225,-7.126,-7.1136,-7.0925,-7.1029,-7.1017,-7.0898,-7.0898,-7.0898,-7.0898,-7.0898,-7.0898,-7.0898,-7.0898,-7.0898,-7.0898,-7.0898,-7.0898,-7.0898,-7.0898,-7.0898,-7.0898,-7.0898,-7.0898,-7.0898,-7.0898,-7.0898,-7.0898,-7.0898,-7.0898,-7.0898,-7.0898,-7.0898,-7.0898,-7.0898,-7.0898,-7.1321,-7.2514,-7.3168,-7.3937,-7.5014,-7.5668,-7.6015,-7.6015,-7.6015,-7.6015,-7.6015,-7.6015,-7.6015,-7.6015,-7.6015,-7.6015,-7.6015,-7.6015,-7.613,-7.6438,-7.7284,-7.813,-7.8977,-7.9823,-8.0554,-8.1093,-8.1093,-8.1093,-8.1093,-8.1093,-8.1093,-8.1093,-8.1093,-8.1093,-8.1093,-8.1093,-8.1593,-8.2401,0.0,0.0,0.0,0.0,0.0,0.0,0.0,0.0,0.0,-7.6015,0.0,0.0,0.0,0.0,0.0,-7.6015,-7.6015,-7.6015,-7.6015,-7.6015,-7.6015,-7.6015,0.0,0.0,0.0,-7.5653,-7.5327,-7.5348,-7.4464,-7.3618,-7.2794,-7.2716,-7.2289,-7.1512,-7.1512,-7.1473,-7.1465,-7.1473,-7.1473,-7.1456,-7.126,-7.1203,-7.1181,-7.0966,-7.0898,-7.0898,-7.0898,-7.0898,-7.0898,-7.0898,-7.0898,-7.0898,-7.0898,-7.0898,-7.0898,-7.0898,-7.0898,-7.0898,0.0,0.0,0.0,-7.0898,-7.0898,-7.0898,-7.0898,-7.0898,-7.0898,-7.0898,-7.0898,-7.0898,-7.0898,-7.0898,-7.0898,-7.0898,-7.0898,-7.0898,-7.0898,-7.0937,-7.1591,-7.3322,-7.3514,-7.4168,-7.5822,-7.6015,-7.6015,-7.6015,-7.6015,-7.6015,-7.6015,-7.6015,-7.6015,-7.6015,-7.6015,-7.6015,-7.6015,-7.6015,-7.6476,-7.7323,-7.813,-7.8977,-7.9823,-8.0708,-8.1093,-8.1093,-8.1093,-8.1093,-8.1093,-8.1093,-8.1093,-8.1093,-8.1093,-8.1093,-8.1093,-8.1131,-8.1631,-8.2439,0.0,0.0,0.0,0.0,0.0,0.0,0.0,0.0,-7.6015,0.0,0.0,0.0,-7.6015,-7.6015,-7.6015,-7.6015,-7.6015,-7.6015,-7.6015,-7.6015,-7.6015,-7.6015,-7.6062,0.0,0.0,-7.6026,-7.6034,-7.6034,-7.5294,-7.4813,0.0,0.0,-7.2529,-7.22,-7.158,-7.1214,-7.1065,-7.1197,-7.127,-7.125,-7.1053,-7.0979,-7.0966,-7.0925,-7.0898,-7.0898,-7.0898,-7.0898,-7.0898,-7.0898,-7.0898,-7.0898,-7.0898,-7.0898,-7.0898,-7.0898,-7.0898,-7.0898,-7.0898,0.0,0.0,0.0,0.0,0.0,-7.0898,-7.0898,-7.0898,-7.0898,-7.0898,-7.0898,-7.0898,-7.0898,-7.0898,-7.0898,-7.0898,-7.0898,-7.0898,-7.1437,-7.2245,-7.336,-7.4014,-7.4822,-7.5899,-7.6015,-7.6015,0.0,-7.6015,-7.6015,-7.6015,-7.6015,-7.6015,-7.6015,-7.6015,-7.6015,-7.6015,-7.663,-7.7053,-7.7323,-7.8746,-7.9592,-7.9823,-8.0708,-8.1093,-8.1093,-8.1093,-8.1093,-8.1093,-8.1093,-8.1093,-8.1093,-8.1093,-8.1093,-8.117,-8.1747,-8.2516,-8.3362,0.0,0.0,0.0,0.0,0.0,0.0,0.0,0.0,-7.6015,0.0,0.0,0.0,-7.6015,-7.6015,-7.6015,-7.6015,-7.6015,-7.6015,-7.6015,-7.6015,-7.6015,-7.6015,-7.6015,0.0,0.0,0.0,-7.5813,-7.616,0.0,0.0,0.0,0.0,0.0,-7.2339,-7.1837,-7.1364,-7.0912,-7.103,-7.1065,-7.1053,-7.0965,-7.0898,-7.0898,-7.0898,-7.0898,-7.0898,-7.0898,-7.0898,-7.0898,-7.0898,-7.0898,-7.0898,-7.0898,-7.0898,-7.0898,-7.0898,-7.0898,-7.0898,-7.0898,-7.0898,-7.0898,-7.0898,0.0,0.0,-7.0898,-7.0898,-7.0898,-7.0898,-7.0898,-7.0898,-7.0898,-7.0898,-7.0898,-7.0898,-7.0898,-7.0898,-7.0898,-7.1629,-7.2514,-7.3399,-7.4207,-7.5053,-7.5938,-7.6015,-7.6015,-7.6015,-7.6015,-7.6015,-7.6015,-7.6015,-7.6015,-7.6015,-7.6015,-7.6015,-7.6015,-7.6861,-7.7476,-7.7823,-7.9169,-7.9977,-8.0362,-8.0862,-8.1093,-8.1093,-8.1093,-8.1093,-8.1093,-8.1093,-8.1093,-8.1093,-8.1093,-8.1323,-8.167,-8.2131,-8.3093,-8.4209,0.0,0.0,-7.6015,-7.6015,-7.6015,0.0,0.0,0.0,-7.6015,0.0,-7.6015,-7.6015,-7.6015,-7.6015,-7.6015,-7.6015,-7.6015,-7.6015,-7.6015,-7.6015,-7.6015,0.0,0.0,0.0,0.0,0.0,0.0,0.0,0.0,0.0,0.0,0.0,0.0,-7.2476,-7.236,-7.1898,-7.1168,-7.1091,-7.1052,-7.1052,-7.0937,-7.0898,-7.0898,-7.0898,-7.0898,-7.0898,-7.0898,-7.0898,-7.0898,-7.0898,-7.0898,-7.0898,-7.0898,-7.0898,-7.0898,-7.0898,-7.0898,-7.0898,-7.0898,-7.0898,-7.0898,-7.0898,-7.0898,0.0,-7.0898,-7.0898,-7.0898,-7.0898,-7.0898,-7.0898,-7.0898,-7.0898,-7.0898,-7.0898,-7.0898,-7.0937,-7.1014,-7.1783,-7.2668,-7.3553,-7.4361,-7.5168,-7.5938,-7.6015,-7.6015,-7.6015,-7.6015,-7.6015,-7.6015,-7.6015,-7.6015,-7.6015,-7.6015,-7.6053,-7.613,-7.7015,-7.7823,-7.8631,-7.9515,-8.0362,-8.1093,-8.1093,-8.1093,-8.1093,-8.1093,-8.1093,-8.1093,-8.1093,-8.1093,-8.1093,-8.1208,-8.167,-8.2324,-8.2516,-8.3555,-8.4901,-7.6015,-7.6015,-7.6015,-7.6015,0.0,0.0,0.0,0.0,-7.6015,-7.6015,-7.6015,-7.6015,-7.6015,-7.6015,-7.6015,-7.6015,-7.6015,-7.6015,-7.6015,-7.6015,0.0,0.0,0.0,0.0,0.0,0.0,0.0,0.0,0.0,0.0,0.0,0.0,0.0,0.0,-7.3553,-7.3168,-7.2937,-7.2245,-7.1937,-7.1898,-7.1168,-7.0898,-7.0898,-7.0898,-7.0898,-7.0898,-7.0898,-7.0898,-7.0898,-7.0898,-7.0898,-7.0898,-7.0898,-7.0898,-7.0898,-7.0898,-7.0898,-7.0898,-7.0898,-7.0898,-7.0898,-7.0898,-7.0898,0.0,-7.0898,-7.0898,-7.0898,-7.0898,-7.0898,-7.0898,-7.0898,-7.0898,-7.0898,-7.0898,-7.0898,-7.1129,-7.186,-7.2706,-7.3553,-7.4361,-7.5207,-7.5822,-7.5976,-7.6015,-7.6015,-7.6015,-7.6015,-7.6015,-7.6015,-7.6015,-7.6015,-7.6015,-7.6015,-7.6322,-7.7053,-7.7861,-7.8707,-7.9554,-8.0439,-8.0939,-8.1093,-8.1093,-8.1093,-8.1093,-8.1093,-8.1093,-8.1093,-8.1093,-8.1093,-8.117,-8.1823,-8.217,-8.2477,-8.3862,-8.4632,-8.4978,-7.6015,-7.6015,-7.6015,-7.6015,0.0,0.0,0.0,0.0,-7.6015,-7.6015,-7.6015,-7.6015,-7.6015,-7.6015,-7.6015,-7.6015,-7.6015,-7.6015,-7.6015,-7.6015,0.0,0.0,0.0,0.0,0.0,0.0,0.0,0.0,0.0,0.0,0.0,0.0,0.0,0.0,-7.4284,-7.3899,-7.3476,-7.3014,-7.286,-7.2745,-7.1437,-7.0898,-7.0937,-7.136,-7.1552,-7.1591,-7.2052,-7.2206,-7.2206,-7.2206,-7.2206,-7.2206,-7.2206,-7.1898,-7.1552,-7.1552,-7.1245,-7.0898,-7.0898,-7.0898,-7.0898,-7.0898,-7.0898,0.0,0.0,-7.0898,-7.0898,-7.0898,-7.0898,-7.0898,-7.0898,-7.0898,-7.0898,-7.0898,-7.1245,-7.1706,-7.2129,-7.2937,-7.3822,-7.4591,-7.5476,-7.6015,-7.6015,-7.6015,-7.6015,-7.6015,-7.6015,-7.6015,-7.6015,-7.6015,-7.6015,-7.6015,-7.6015,-7.6399,-7.7284,-7.8092,-7.8938,-7.9823,-8.0669,-8.1093,-8.1093,-8.1093,-8.1093,-8.1093,-8.1093,-8.1093,-8.1093,-8.1093,-8.1323,-8.1747,-8.2131,-8.2554,-8.3093,-8.4439,-8.517,-8.5555,-7.6015,-7.6015,-7.6015,-7.6015,0.0,0.0,0.0,0.0,-7.6015,-7.6015,-7.6015,-7.6015,-7.6015,-7.6015,-7.6015,-7.6015,-7.6015,-7.6015,-7.6015,-7.6015,0.0,0.0,0.0,-7.6015,0.0,0.0,0.0,0.0,0.0,0.0,0.0,0.0,0.0,0.0,0.0,-7.4591,-7.3976,-7.3822,-7.3745,-7.3591,-7.2014,-7.1398,-7.1475,-7.2168,-7.2437,-7.2552,-7.3245,-7.3514,-7.3514,-7.3514,-7.3514,-7.3514,-7.3514,-7.3014,-7.2437,-7.2437,-7.1937,-7.1398,-7.1398,-7.1398,-7.1398,-7.1398,-7.1398,-7.1398,0.0,0.0,0.0,-7.1398,-7.1398,-7.136,-7.1168,0.0,0.0,-7.0937,0.0,0.0,0.0,-7.3206,0.0,-7.463,-7.5476,-7.6015,-7.6015,-7.6015,-7.6015,-7.6015,-7.6015,-7.6015,-7.6015,-7.6015,-7.6015,-7.6015,-7.6169,-7.6669,-7.7515,-7.8323,-7.9169,-8.0054,-8.0746,-8.1093,-8.1093,-8.1093,-8.1093,-8.1093,-8.1093,-8.1093,-8.1093,-8.1285,-8.1708,-8.2324,-8.2477,-8.3093,-8.3939,-8.4824,-8.5555,-8.6094,-7.6015,-7.6015,-7.6015,-7.6015,0.0,0.0,0.0,0.0,0.0,-7.6015,-7.6015,-7.6015,-7.6015,-7.6015,-7.6015,-7.6015,-7.6015,-7.6015,-7.6015,-7.6015,0.0,0.0,0.0,0.0,-7.6015,0.0,0.0,0.0,0.0,0.0,0.0,0.0,0.0,0.0,-7.5861,-7.5784,-7.5668,-7.4899,-7.4553,-7.4476,-7.3591,-7.3206,-7.3206,-7.3322,-7.336,-7.336,-7.3476,-7.3514,-7.3514,0.0,-7.3514,-7.3514,0.0,-7.3437,-7.336,-7.336,0.0,0.0,-7.3206,-7.3206,-7.3206,-7.3206,-7.3206,-7.3206,-7.3206,0.0,-7.3206,-7.3206,0.0,-7.2976,-7.2168,0.0,0.0,0.0,0.0,0.0,-7.3245,-7.4053,-7.4591,-7.4707,-7.5476,-7.6015,-7.6015,-7.6015,-7.6015,-7.6015,-7.6015,-7.6015,-7.6015,-7.6015,-7.6015,-7.6015,-7.6746,-7.7553,-7.8361,-7.9208,-8.0092,-8.0939,-8.1054,-8.1093,-8.1093,-8.1093,-8.1093,-8.1093,-8.1093,-8.1093,-8.117,-8.1862,-8.2208,-8.2362,-8.3131,-8.3978,-8.4863,-8.567,-8.6017,-8.6094,-7.6015,-7.6015,-7.6015,-7.6015,0.0,0.0,0.0,0.0,0.0,-7.6015,-7.6015,-7.6015,-7.6015,-7.6015,-7.6015,-7.6015,-7.6015,-7.6015,-7.6015,-7.6015,0.0,0.0,0.0,0.0,0.0,0.0,0.0,0.0,-7.6015,0.0,0.0,0.0,0.0,0.0,-7.6015,-7.6015,-7.5976,-7.563,-7.5438,-7.5438,-7.5091,-7.4938,0.0,-7.4399,-7.4514,-7.4938,-7.4938,-7.4938,-7.4938,0.0,-7.4938,0.0,0.0,0.0,0.0,-7.4207,0.0,0.0,0.0,0.0,-7.3514,-7.3514,-7.3514,-7.3514,-7.3514,-7.3514,-7.3514,-7.3514,0.0,0.0,0.0,0.0,0.0,0.0,-7.3129,0.0,0.0,0.0,-7.5438,-7.5438,0.0,0.0,-7.6015,-7.6015,-7.6015,-7.6015,-7.6015,-7.6015,-7.6015,-7.6015,-7.6245,-7.6746,-7.7092,-7.7938,-7.9246,-7.9631,-8.0246,-8.1093,-8.1093,-8.1093,-8.1093,-8.1093,-8.1093,-8.1093,-8.1093,-8.1362,-8.1823,-8.217,-8.2901,-8.3862,-8.4209,-8.4593,-8.5016,-8.5786,-8.6094,-8.6094,-7.6015,-7.6015,-7.6015,-7.6015,0.0,0.0,0.0,0.0,-7.6015,-7.6015,-7.6015,-7.6015,-7.6015,-7.6015,-7.6015,-7.6015,-7.6015,-7.6015,-7.6015,-7.6015,-7.6015,-7.6015,-7.6015,-7.6015,0.0,0.0,0.0,0.0,0.0,0.0,0.0,0.0,0.0,0.0,0.0,-7.6015,-7.6015,-7.6015,-7.6015,-7.6015,-7.6015,-7.6015,-7.5938,-7.5284,-7.5438,-7.6015,-7.6015,-7.6015,-7.6015,-7.6015,-7.6015,0.0,-7.6015,-7.5553,-7.5053,0.0,0.0,0.0,-7.4207,0.0,0.0,0.0,0.0,0.0,0.0,0.0,0.0,0.0,0.0,0.0,0.0,0.0,0.0,0.0,0.0,-7.4514,0.0,-7.5091,0.0,0.0,0.0,0.0,0.0,-7.6015,-7.6015,-7.6015,-7.6015,-7.6015,-7.6015,-7.6015,-7.6399,-7.7284,-7.7515,-7.8323,-7.9785,-8.0054,-8.0477,-8.1093,-8.1093,-8.1093,-8.1093,-8.1093,-8.1093,-8.1093,-8.1323,-8.1747,-8.2324,-8.2824,-8.3747,-8.4939,-8.5132,-8.5247,-8.5286,-8.5901,-8.6094,-8.6094,-7.6015,-7.6015,0.0,0.0,0.0,0.0,0.0,0.0,-7.6015,-7.6015,-7.6015,-7.6015,-7.6015,-7.6015,-7.6015,-7.6015,-7.6015,-7.6015,-7.6015,-7.6015,-7.6015,-7.6015,-7.6015,-7.6015,-7.6015,0.0,0.0,0.0,0.0,0.0,0.0,0.0,0.0,0.0,0.0,-7.6015,-7.6015,-7.6015,-7.6015,-7.6015,-7.6015,-7.6015,-7.6015,0.0,-7.5976,-7.6015,-7.6015,0.0,0.0,-7.6015,-7.6015,0.0,0.0,0.0,0.0,0.0,0.0,0.0,0.0,0.0,0.0,-7.5938,0.0,0.0,0.0,0.0,-7.5938,0.0,0.0,0.0,0.0,0.0,0.0,0.0,0.0,0.0,0.0,0.0,0.0,0.0,0.0,0.0,0.0,-7.6015,-7.6015,-7.6015,-7.6015,-7.6015,-7.6015,-7.6015,-7.6399,-7.7284,-7.8054,-7.89,-7.9785,-8.0631,-8.1054,-8.1093,-8.1093,-8.1093,-8.1093,-8.1093,-8.1093,-8.1131,-8.19,-8.2285,-8.2439,-8.4132,-8.4863,-8.4978,-8.5747,-8.6055,-8.6055,-8.6094,-8.6094,-8.6094,-7.6015,-7.6015,-7.6015,-7.6015,-7.6015,-7.6015,0.0,-7.6015,-7.6015,-7.6015,-7.6015,-7.6015,-7.6015,-7.6015,-7.6015,-7.6015,-7.6015,-7.6015,-7.6015,-7.6015,-7.6015,-7.6015,-7.6015,-7.6015,-7.6015,0.0,0.0,0.0,0.0,0.0,0.0,0.0,0.0,0.0,0.0,-7.6015,0.0,0.0,0.0,0.0,0.0,-7.6015,-7.6015,0.0,-7.6015,-7.6015,-7.6015,-7.6015,0.0,-7.6015,-7.6015,-7.6015,-7.6015,-7.6015,-7.6015,-7.6015,-7.6015,-7.6015,0.0,0.0,-7.6015,-7.6015,0.0,0.0,0.0,0.0,0.0,0.0,0.0,0.0,0.0,0.0,0.0,0.0,0.0,0.0,0.0,0.0,0.0,0.0,0.0,0.0,0.0,0.0,-7.6015,-7.6015,-7.6015,-7.6015,-7.6015,-7.6553,-7.7246,-7.8054,-7.89,-7.9785,-8.0669,-8.0939,-8.1093,-8.1093,-8.1093,-8.1093,-8.1093,-8.1093,-8.14,-8.19,-8.217,-8.2939,-8.4055,-8.467,-8.5209,-8.5709,-8.5978,-8.6094,-8.6094,-8.6094,-8.6094,-8.6094,-7.6053,-7.6015,-7.6015,-7.6015,-7.6015,-7.6015,-7.6015,-7.6015,-7.6015,-7.6015,-7.6015,-7.6015,-7.6015,-7.6015,-7.6015,-7.6015,-7.6015,-7.6015,-7.6015,-7.6015,-7.6015,-7.6015,-7.6015,-7.6015,-7.6015,-7.6015,0.0,0.0,0.0,-7.6015,0.0,0.0,0.0,0.0,0.0,-7.6284,-7.6053,-7.663,-7.6707,0.0,0.0,-7.6899,0.0,0.0,-7.6515,-7.6015,0.0,-7.6015,-7.6015,-7.6015,-7.6015,-7.6015,-7.6015,-7.6015,-7.6015,-7.6015,-7.6015,-7.6015,-7.6015,-7.6015,0.0,-7.6015,-7.6015,0.0,-7.6015,0.0,-7.6015,0.0,0.0,0.0,0.0,0.0,0.0,0.0,0.0,0.0,0.0,-7.6015,0.0,0.0,-7.6015,-7.6015,0.0,-7.6015,-7.6015,-7.6015,-7.6015,-7.6015,0.0,-7.6823,-7.7669,-7.8477,-7.9361,-8.0208,-8.1093,-8.1093,-8.1093,-8.1093,-8.1093,-8.1093,-8.1093,-8.1093,-8.1554,-8.2324,-8.2631,-8.3593,-8.4939,-8.5209,-8.5632,-8.6094,-8.6094,-8.6094,-8.6094,-8.6094,-8.6094,-8.6094,-7.6245,-7.6015,-7.6015,-7.6015,-7.6015,-7.6015,-7.6015,-7.6015,-7.6015,-7.6015,-7.6015,-7.6015,-7.6015,-7.6015,-7.6015,-7.6015,-7.6015,-7.6015,-7.6015,-7.6015,-7.6015,-7.6015,-7.6015,-7.6015,-7.6015,-7.6015,-7.6015,0.0,0.0,0.0,0.0,0.0,0.0,0.0,-7.6976,0.0,-7.6245,-7.7823,-7.8054,-7.7438,-7.8169,-7.8477,-7.8477,-7.8477,-7.7515,-7.613,-7.613,-7.613,-7.613,-7.6092,-7.6053,-7.6053,-7.6015,-7.6015,-7.6015,-7.6015,-7.6015,-7.6015,-7.6015,-7.6015,-7.6015,-7.6015,-7.6015,0.0,0.0,0.0,-7.6015,0.0,0.0,0.0,0.0,0.0,0.0,0.0,0.0,0.0,0.0,0.0,-7.6015,0.0,-7.6015,-7.6015,-7.6015,-7.6015,-7.6015,-7.6015,-7.6015,-7.6015,0.0,-7.6899,-7.7707,-7.8515,-7.94,-8.0246,-8.1093,-8.1093,-8.1093,-8.1093,-8.1093,-8.1093,-8.1093,-8.1131,-8.1593,-8.2401,-8.3285,-8.417,-8.5016,-8.5786,-8.6094,-8.6094,-8.6094,-8.6094,-8.6094,-8.6094,-8.6094,-8.6094,-7.7015,-7.6438,-7.6015,-7.6015,-7.6015,-7.6015,-7.6015,-7.6015,-7.6015,-7.6015,-7.6015,-7.6015,-7.6015,-7.6015,-7.6015,-7.6015,-7.6015,-7.6015,-7.6015,-7.6015,-7.6015,-7.6015,-7.6015,-7.6015,-7.6015,-7.6015,-7.6015,-7.6015,0.0,0.0,-7.6976,0.0,0.0,0.0,0.0,0.0,-7.79,-7.8323,-7.8361,-7.8207,-7.84,-7.8477,-7.8477,0.0,-7.8207,-7.7861,-7.7861,-7.7861,-7.7746,-7.7169,-7.6976,-7.6861,-7.6207,-7.6015,-7.6015,-7.6015,-7.6015,-7.6015,-7.6015,-7.6015,-7.6015,-7.6015,-7.6015,-7.6015,0.0,0.0,0.0,0.0,0.0,0.0,0.0,0.0,0.0,0.0,0.0,0.0,0.0,0.0,0.0,-7.6015,-7.6015,-7.6015,-7.6015,-7.6015,-7.6015,-7.6015,-7.6015,0.0,0.0,0.0,-7.8592,-7.9438,-8.0323,-8.0862,-8.1093,-8.1093,-8.1093,-8.1093,-8.1093,-8.1093,-8.1131,-8.1708,-8.2439,-8.3324,-8.417,-8.5016,-8.5824,-8.6017,-8.6094,-8.6094,-8.6094,-8.6094,-8.6094,-8.6094,-8.6094,-8.6094,-7.7361,-7.6592,-7.613,-7.6515,-7.6553,-7.6438,-7.6053,-7.6322,-7.6553,-7.6553,-7.6861,-7.7092,-7.7092,-7.7092,-7.7092,-7.7092,-7.7092,-7.7092,-7.7092,-7.7092,-7.7092,-7.7092,-7.7092,-7.7092,-7.7092,-7.7092,-7.7092,-7.7092,0.0,0.0,-7.7823,0.0,0.0,0.0,0.0,-7.8861,-7.8515,-7.89,-7.9285,-7.9631,-7.9631,-7.9631,0.0,-7.9631,-7.9631,-7.9631,-7.9631,-7.9131,-7.8438,-7.7977,-7.7823,-7.7746,-7.7246,-7.7092,-7.7015,-7.6669,-7.6553,-7.6476,-7.6092,-7.6015,-7.6015,-7.6015,-7.6015,-7.6015,-7.6015,-7.6015,-7.6015,0.0,-7.6015,-7.6015,0.0,0.0,0.0,0.0,0.0,0.0,0.0,0.0,0.0,0.0,-7.6015,-7.6015,-7.6015,-7.6015,-7.6015,-7.6015,-7.6015,0.0,0.0,0.0,-7.89,-7.9785,-8.0669,-8.1093,-8.1093,-8.1093,-8.1093,-8.1093,-8.1093,-8.1285,-8.1631,-8.2093,-8.2978,-8.4209,-8.4709,-8.5363,-8.6094,-8.6094,-8.6094,-8.6094,-8.6094,-8.6094,-8.6094,-8.6094,-8.6094,-8.6094,-7.763,-7.6861,-7.6553,-7.7323,-7.7438,-7.7207,-7.6438,-7.6976,-7.7438,-7.7438,-7.8054,-7.8477,-7.8477,-7.8477,-7.8477,-7.8477,-7.8477,-7.8477,-7.8477,-7.8477,-7.8477,-7.8477,-7.8477,-7.8477,-7.8477,-7.8477,-7.8477,0.0,0.0,0.0,0.0,0.0,0.0,0.0,0.0,0.0,0.0,-7.9669,-8.04,-8.1093,-8.1093,-8.1093,-8.1093,-8.1093,-8.1093,-8.1093,-8.1093,-8.0131,-7.8823,-7.8707,-7.8669,-7.8631,-7.8515,-7.8477,-7.8361,-7.7669,-7.7438,-7.7284,-7.6515,-7.6245,-7.6169,-7.6169,-7.6092,-7.6015,-7.6015,-7.6015,-7.6015,-7.6015,-7.6015,-7.6015,0.0,0.0,0.0,0.0,0.0,0.0,0.0,0.0,0.0,0.0,0.0,0.0,-7.6015,-7.6015,-7.6015,-7.6015,-7.6092,0.0,0.0,0.0,-7.9054,-7.9939,-8.0708,-8.1093,-8.1093,-8.1093,-8.1093,-8.1093,-8.1208,-8.1631,-8.2324,-8.2554,-8.3478,-8.4901,-8.5016,-8.544,-8.6094,-8.6094,-8.6094,-8.6094,-8.6094,-8.6094,-8.6094,-8.6094,-8.6094,-8.6094,-7.8438,-7.8169,-7.8092,-7.8246,-7.8299,-7.8246,-7.8092,-7.8169,-7.8299,-7.8299,-7.84,-7.8477,-7.8477,-7.8477,-7.8477,-7.8477,-7.8477,0.0,-7.8477,0.0,0.0,-7.8477,-7.8477,-7.8477,-7.8477,-7.8477,-7.8477,0.0,0.0,0.0,0.0,0.0,0.0,0.0,0.0,0.0,-8.0631,-8.0823,0.0,-8.1093,-8.1093,-8.1093,-8.1093,-8.1093,-8.1093,-8.1093,-8.1093,-8.09,-8.0516,-7.9823,-7.9592,-7.9438,-7.8707,-7.8477,-7.8477,-7.8323,-7.8299,-7.8246,-7.8092,-7.7592,-7.7053,-7.7053,-7.6515,-7.6015,-7.6015,-7.6015,-7.6015,-7.6015,-7.6015,-7.6015,-7.6015,0.0,0.0,0.0,0.0,0.0,0.0,0.0,0.0,0.0,0.0,-7.6015,-7.6015,-7.6015,-7.6015,-7.6015,0.0,0.0,0.0,0.0,-7.9977,0.0,-8.1016,0.0,0.0,0.0,-8.1093,-8.1093,-8.1785,-8.217,-8.2362,-8.3785,-8.4632,-8.4939,-8.5593,-8.5978,-8.6094,-8.6094,-8.6094,-8.6094,-8.6094,-8.6094,-8.6094,-8.6094,-8.6094,-8.6094,-7.8669,-7.8477,-7.8631,-7.9092,-7.9169,-7.9323,-7.9785,-7.9862,-7.9669,-7.9246,-7.9554,-7.9862,-7.9862,-7.9862,-7.9862,-7.9862,-7.9862,-7.9862,-7.9862,-7.9862,-7.9862,-7.9862,-7.9862,-7.9862,-7.9862,-7.9862,-7.9862,-7.9862,0.0,0.0,0.0,0.0,0.0,0.0,0.0,-8.1093,0.0,0.0,0.0,-8.1093,-8.1093,-8.1093,-8.1093,-8.1093,-8.1093,-8.1093,-8.1093,-8.1093,-8.1054,-8.0631,-8.0477,-8.04,-7.9977,-7.9862,-7.9746,-7.9323,-7.9169,-7.9092,-7.8631,-7.8207,-7.79,-7.79,-7.7592,-7.7284,-7.7284,-7.6976,-7.6669,-7.6669,-7.6322,-7.6015,-7.6015,-7.6015,0.0,0.0,0.0,0.0,0.0,0.0,-7.6169,0.0,0.0,0.0,0.0,0.0,0.0,0.0,0.0,0.0,0.0,0.0,-8.0208,0.0,0.0,0.0,-8.1093,0.0,-8.1323,-8.1747,-8.2093,-8.2785,-8.367,-8.4516,-8.5132,-8.5555,-8.594,-8.6094,-8.6094,-8.6094,-8.6094,-8.6094,-8.6094,-8.6094,-8.6094,-8.6094,-8.6094,-8.6094,-7.9169,-7.9054,-7.9285,-7.9977,-8.0092,-8.0323,-8.1016,-8.1093,-8.0862,-8.0169,-8.0669,-8.1093,-8.1093,-8.1093,-8.1093,-8.1093,-8.1093,-8.1093,-8.1093,-8.1093,-8.1093,-8.1093,-8.1093,-8.1093,-8.1093,-8.1093,-8.1093,0.0,0.0,0.0,0.0,0.0,0.0,0.0,0.0,0.0,0.0,0.0,-8.1093,-8.1093,-8.1093,-8.1093,-8.1093,-8.1093,-8.1093,-8.1093,-8.1093,-8.1093,-8.1093,-8.1093,-8.1093,-8.1093,-8.1093,-8.1093,-8.0977,-8.0285,-8.0092,-7.9939,-7.9246,-7.89,-7.8784,-7.8784,-7.8631,-7.8477,-7.8477,-7.8015,-7.7553,-7.7553,-7.7015,-7.6515,-7.6515,-7.6515,0.0,0.0,0.0,0.0,0.0,0.0,0.0,0.0,0.0,0.0,-7.8438,0.0,0.0,0.0,0.0,0.0,-7.9746,0.0,0.0,0.0,0.0,-8.1093,-8.1093,0.0,-8.1516,-8.2285,-8.2477,-8.3401,-8.4901,-8.5093,-8.5517,-8.6094,-8.6094,-8.6094,-8.6094,-8.6094,-8.6094,-8.6094,-8.6094,-8.6094,-8.6094,-8.6094,-8.6094,-8.6094,-8.0862,-8.0862,-8.0862,-8.0977,-8.0977,-8.1016,-8.1093,-8.1093,-8.1054,-8.0977,-8.1054,-8.1093,-8.1093,-8.1093,-8.1093,-8.1093,-8.1093,-8.1093,-8.1093,-8.1093,-8.1093,-8.1093,-8.1093,-8.1093,-8.1093,-8.1093,-8.1093,0.0,0.0,-8.0708,0.0,0.0,0.0,0.0,0.0,0.0,0.0,-8.1093,-8.1093,-8.1093,-8.1093,-8.1093,-8.1093,-8.1093,-8.1093,-8.1093,-8.1093,-8.1093,-8.1093,-8.1093,-8.1093,-8.1093,-8.1093,-8.1093,-8.1093,-8.1016,-8.0977,-8.0977,-8.0862,-8.0285,-7.9669,-7.9669,-7.9092,-7.8477,-7.8477,-7.8438,-7.84,-7.84,-7.8323,-7.8246,-7.8246,-7.8246,-7.8246,0.0,0.0,0.0,0.0,0.0,-7.8284,-7.8361,0.0,0.0,-7.8477,-7.9208,0.0,0.0,-7.9631,0.0,0.0,0.0,0.0,-8.1093,-8.1093,-8.1093,-8.1093,-8.1093,-8.1516,-8.2324,-8.3093,-8.3978,-8.4939,-8.567,-8.6017,-8.6094,-8.6094,-8.6094,-8.6094,-8.6094,-8.6094,-8.6094,-8.6094,-8.6094,-8.6094,-8.6094,-8.6094,-8.6094,-8.1093,-8.1477,-8.1823,-8.1823,-8.2247,0.0,0.0,-8.2593,-8.2593,-8.2593,-8.2131,-8.2016,-8.2554,-8.2593,-8.2593,-8.2593,-8.2593,-8.2593,-8.2593,-8.2593,-8.2593,-8.2593,-8.2593,-8.2362,-8.1823,-8.1823,-8.1593,0.0,0.0,0.0,0.0,0.0,0.0,0.0,0.0,-8.2593,-8.2593,-8.2593,-8.2593,-8.2593,-8.2593,-8.2285,-8.1823,-8.1823,-8.1516,-8.1093,-8.1093,-8.1093,-8.1093,-8.1093,-8.1093,-8.1093,-8.1093,-8.1093,-8.1093,-8.1093,-8.1093,-8.1093,-8.1093,-8.0862,-8.0592,-8.0592,-8.0323,-8.0054,-8.0054,-7.9669,-7.9285,-7.9285,-7.8861,-7.8477,-7.8477,-7.8477,-7.8477,-7.8477,0.0,0.0,0.0,0.0,0.0,-7.9208,0.0,-7.9477,0.0,-8.0362,0.0,0.0,0.0,0.0,0.0,0.0,0.0,-8.1093,0.0,-8.1093,-8.1093,-8.1593,-8.2247,-8.3093,-8.3978,-8.4824,-8.5632,-8.594,-8.6094,-8.6094,-8.6094,-8.6094,-8.6094,-8.6094,-8.6094,-8.6094,-8.6094,-8.6094,-8.6094,-8.6094,-8.6094,-8.6094,-8.1823,-8.2285,-8.267,-8.267,-8.317,-8.3593,-8.3593,-8.3593,-8.367,-8.3939,-8.3439,-8.3208,-8.3555,-8.3593,-8.3593,-8.3593,-8.3593,-8.3593,-8.3593,-8.3593,-8.3593,-8.3593,-8.3593,0.0,-8.2708,-8.267,-8.2401,-8.1823,-8.1823,0.0,0.0,0.0,0.0,0.0,-8.3593,-8.3593,-8.3593,-8.3593,-8.3593,-8.3593,-8.3593,-8.3208,-8.267,-8.267,-8.2324,-8.1823,-8.1823,-8.167,-8.1439,-8.1439,-8.1285,-8.1093,-8.1093,-8.1093,-8.1093,-8.1093,-8.1093,-8.1093,-8.1093,-8.1093,-8.1093,-8.1093,-8.1093,-8.1093,-8.1093,-8.0631,-8.0169,-8.0169,-7.9708,-7.9246,-7.9246,-7.9246,-7.9246,-7.9246,0.0,0.0,0.0,-7.9246,0.0,-8.0131,-8.0169,-8.0439,-8.1054,-8.1093,0.0,0.0,0.0,0.0,0.0,0.0,0.0,0.0,0.0,0.0,-8.1439,-8.2016,-8.2862,-8.3978,-8.4593,-8.5324,-8.6094,-8.6094,-8.6094,-8.6094,-8.6094,-8.6094,-8.6094,-8.6094,-8.6094,-8.6094,-8.6094,-8.6094,-8.6094,-8.6094,-8.6094,-8.6094,-8.3555,-8.3555,-8.3555,-8.3555,-8.3593,-8.3593,-8.3593,-8.3593,-8.3901,-8.4786,-8.4901,-8.4555,-8.367,-8.3593,-8.3593,-8.3593,-8.3593,-8.3593,-8.3593,-8.3593,-8.3593,0.0,0.0,-8.3593,-8.3555,-8.3555,-8.3555,-8.3555,0.0,0.0,-8.2285,0.0,-8.2747,-8.3593,-8.3593,-8.3593,-8.3593,-8.3593,-8.3593,-8.3593,-8.3593,-8.3593,-8.3555,-8.3555,-8.3555,-8.3555,-8.3555,-8.3016,-8.2285,-8.2285,-8.1747,-8.1093,-8.1093,-8.1093,-8.1093,-8.1093,-8.1093,-8.1093,-8.1093,-8.1093,-8.1093,-8.1093,-8.1093,-8.1093,-8.1093,-8.1093,-8.1093,-8.1093,-8.1093,-8.1054,-8.1054,-8.1054,-8.1054,-8.1054,0.0,0.0,0.0,-8.1054,0.0,-8.1093,-8.1093,-8.1093,-8.1093,-8.1093,0.0,0.0,0.0,0.0,0.0,0.0,0.0,-8.1093,-8.1093,0.0,-8.2285,-8.2285,-8.317,-8.4901,-8.4901,-8.5324,-8.6094,-8.6094,-8.6094,-8.6094,-8.6094,-8.6094,-8.6094,-8.6094,-8.6094,-8.6094,-8.6094,-8.6094,-8.6094,-8.6094,-8.6094,-8.6094,-8.3593,-8.4093,-8.4478,-8.4478,-8.4939,-8.5286,-8.5286,-8.5286,-8.5401,-8.567,-8.5709,-8.5593,-8.5324,-8.5286,-8.5286,0.0,-8.5286,-8.5286,0.0,-8.5286,-8.5286,-8.5286,-8.5286,-8.5055,-8.4516,-8.4478,-8.4209,-8.3593,0.0,0.0,0.0,-8.4632,-8.5055,-8.5286,-8.5286,-8.5286,-8.5286,-8.5286,-8.5286,-8.5286,-8.5286,-8.4978,-8.4478,-8.4478,-8.4132,-8.3593,-8.3593,-8.3401,-8.317,-8.317,-8.3016,-8.2708,-8.2093,-8.1554,-8.1093,-8.1093,-8.1093,-8.1093,-8.1093,-8.1093,-8.1093,-8.1093,-8.1093,-8.1093,-8.1093,-8.1093,-8.1093,-8.1093,-8.1093,-8.1093,-8.1093,-8.1093,-8.1093,-8.1093,-8.1093,0.0,-8.1093,0.0,-8.1093,-8.1093,-8.1093,-8.1093,-8.1093,-8.1093,0.0,0.0,0.0,0.0,0.0,0.0,0.0,0.0,-8.19,0.0,-8.317,-8.3785,-8.4362,-8.4901,-8.5478,-8.5863,-8.6094,-8.6094,-8.6094,-8.6094,-8.6094,-8.6094,-8.6094,-8.6094,-8.6094,-8.6094,-8.6094,-8.6094,-8.6094,-8.6094,-8.6094,-8.6094,-8.4555,-8.4978,-8.5363,-8.5363,-8.5786,-8.6094,-8.6094,-8.6094,-8.6094,-8.6094,-8.6094,-8.6094,-8.6094,-8.6094,0.0,-8.6094,-8.6094,-8.6094,-8.6094,-8.6094,-8.6094,-8.6094,-8.6094,-8.5863,-8.5363,-8.5363,0.0,-8.4555,-8.4555,-8.4824,-8.5363,-8.5863,-8.6094,-8.6094,-8.6094,-8.6094,-8.6094,-8.6094,-8.6094,-8.6094,-8.6094,-8.5786,-8.5363,-8.5363,-8.5016,-8.4555,-8.4555,-8.4324,-8.4093,-8.4093,-8.3862,-8.3478,-8.2939,-8.2439,-8.19,-8.1285,-8.1093,-8.1093,-8.1093,-8.1093,-8.1093,-8.1093,-8.1093,-8.1093,-8.1093,-8.1093,-8.1093,-8.1093,-8.1093,-8.1093,-8.1093,-8.1093,-8.1093,-8.1093,-8.1093,-8.1093,-8.1093,0.0,-8.1093,0.0,0.0,0.0,0.0,-8.1093,-8.1093,0.0,0.0,0.0,0.0,0.0,-8.1785,-8.2285,-8.2631,-8.3208,-8.4093,-8.4632,-8.5055,-8.5363,-8.5863,-8.6094,-8.6094,-8.6094,-8.6094,-8.6094,-8.6094,-8.6094,-8.6094,-8.6094,-8.6094,-8.6094,-8.6094,-8.6094,-8.6094,-8.6094,-8.6094,-8.6094,-8.6094,-8.6094,-8.6094,-8.6094,-8.6094,-8.6094,-8.6094,-8.6094,-8.6094,-8.6094,-8.6094,-8.6094,-8.6094,-8.6094,-8.6094,-8.6094,0.0,0.0,-8.6094,-8.6094,-8.6094,-8.6094,-8.6094,-8.6094,-8.6094,-8.6094,-8.6094,-8.6094,-8.6094,-8.6094,-8.6094,-8.6094,-8.6094,-8.6094,-8.6094,-8.6094,-8.6094,-8.6094,-8.6094,-8.6094,-8.6094,-8.6094,-8.6094,-8.6094,-8.6094,-8.6094,-8.6094,-8.5632,-8.4978,-8.4978,-8.4439,-8.3747,-8.3708,-8.367,-8.3362,-8.167,-8.117,-8.117,-8.1131,-8.1093,-8.1093,-8.1093,-8.1093,-8.1093,-8.1093,-8.1093,-8.1093,-8.1093,-8.1093,-8.1093,-8.1093,-8.1093,-8.1093,-8.1093,-8.1093,-8.1093,-8.1093,-8.1093,-8.1093,0.0,0.0,0.0,-8.1093,-8.1093,-8.1131,0.0,0.0,0.0,0.0,0.0,-8.2477,-8.2477,-8.3247,-8.4093,-8.4978,-8.4978,-8.5363,-8.6094,-8.6094,-8.6094,-8.6094,-8.6094,-8.6094,-8.6094,-8.6094,-8.6094,-8.6094,-8.6094,-8.6094,-8.6094,-8.6094,-8.6094,-8.6094,-8.6094,-8.6094,-8.6094,0.0,0.0,-8.6094,-8.6094,-8.6094,-8.6094,-8.6094,-8.6094,-8.6094,-8.6094,-8.6094,-8.6094,-8.6094,-8.6094,-8.6094,-8.6094,-8.6094,-8.6094,-8.6094,-8.6094,-8.6094,-8.6094,-8.6094,-8.6094,-8.6094,-8.6094,-8.6094,-8.6094,-8.6094,-8.6094,-8.6094,-8.6094,-8.6094,-8.6094,-8.6094,-8.6094,-8.6094,-8.6094,-8.6094,-8.6094,-8.6094,-8.6094,-8.6094,-8.6094,-8.6094,-8.6094,-8.6094,-8.5978,-8.5824,-8.5824,-8.567,-8.5401,-8.4786,-8.4593,-8.4247,-8.2516,-8.2016,-8.1862,-8.1285,-8.1093,-8.1093,-8.1093,-8.1093,-8.1093,-8.1093,-8.1093,-8.1093,-8.1093,-8.1093,-8.1093,-8.1093,-8.1093,-8.1093,-8.1093,-8.1093,-8.1093,-8.1093,-8.1093,-8.1093,0.0,-8.1093,-8.1093,-8.1093,-8.1093,-8.1362,0.0,0.0,-8.2401,-8.3247,-8.3939,-8.4286,-8.4286,-8.4478,-8.4978,-8.5824,-8.5824,-8.5901,-8.6094,-8.6094,-8.6094,-8.6094,-8.6094,-8.6094,-8.6094,-8.6094,-8.6094,-8.6094,-8.6094,-8.6094,-8.6094,-8.6094,-8.6094,-8.6094,-8.6094,-8.6094,-8.6094,-8.6094,-8.6094,-8.6094,-8.6094,-8.6094,-8.6094,-8.6094,-8.6094,-8.6094,-8.6094,-8.6094,-8.6094,-8.6094,-8.6094,-8.6094,-8.6094,-8.6094,-8.6094,-8.6094,-8.6094,-8.6094,-8.6094,-8.6094,-8.6094,-8.6094,-8.6094,-8.6094,-8.6094,-8.6094,-8.6094,-8.6094,-8.6094,-8.6094,-8.6094,-8.6094,-8.6094,-8.6094,-8.6094,-8.6094,-8.6094,-8.6094,-8.6094,-8.6094,-8.6094,-8.6094,-8.6094,-8.6094,-8.6094,-8.6094,-8.6094,-8.6094,-8.6017,-8.5593,-8.544,-8.5209,-8.3862,-8.3208,-8.2785,-8.2362,-8.1939,-8.1554,-8.1208,-8.1093,-8.1093,-8.1093,-8.1093,-8.1093,-8.1093,-8.1093,-8.1093,-8.1093,-8.1093,-8.1093,-8.1093,-8.1093,-8.1093,-8.1093,-8.1093,-8.1093,-8.1093,-8.1093,-8.1246,-8.1593,-8.1631,-8.1977,-8.2824,-8.2901,0.0,-8.4132,-8.4632,-8.4901,-8.4901,-8.5247,-8.567,-8.6094,-8.6094,-8.6094,-8.6094,-8.6094,-8.6094,-8.6094,-8.6094,-8.6094,-8.6094,-8.6094,-8.6094,-8.6094,-8.6094,-8.6094,-8.6094,-8.6094,-8.6094,-8.6094,-8.6094,-8.6094,-8.617,-8.6094,-8.6094,-8.6094,-8.6094,-8.6094,-8.6094,-8.6094,-8.6094,-8.6094,-8.6094,-8.6094,-8.6094,-8.6094,-8.6094,-8.6094,-8.6094,-8.6094,-8.6094,-8.6094,-8.6094,-8.6094,-8.6094,-8.6094,-8.6094,-8.6094,-8.6094,-8.6094,-8.6094,-8.6094,-8.6094,-8.6094,-8.6094,-8.6094,-8.6094,-8.6094,-8.6094,-8.6094,-8.6094,-8.6094,-8.6094,-8.6094,-8.6094,-8.6094,-8.6094,-8.6094,-8.6094,-8.6094,-8.6094,-8.6094,-8.6094,-8.6094,-8.6094,-8.6094,-8.6094,-8.5978,-8.5286,-8.4555,-8.3901,-8.367,-8.3054,-8.2324,-8.1631,-8.1362,-8.1285,-8.1285,-8.1208,-8.1093,-8.1093,-8.1093,-8.1093,-8.1093,-8.1093,-8.1093,-8.1093,-8.1093,-8.1093,-8.1093,0.0,-8.1285,-8.1285,-8.14,-8.1747,-8.2439,-8.2516,-8.2862,-8.3708,-8.3785,-8.417,-8.5055,-8.5093,-8.5093,-8.5093,-8.5747,-8.6094,-8.6094,-8.6094,-8.6094,-8.6094,-8.6094,-8.6094,-8.6094,-8.6094,-8.6094,-8.6094,-8.6094,-8.6094,-8.6094,-8.6094,-8.6094,-8.6094,-8.6094,-8.6094,-8.6132,-8.6247,-8.6286,-8.644,-8.6094,-8.6094,-8.6094,-8.6094,-8.6094,-8.6094,-8.6094,-8.6094,-8.6094,-8.6094,-8.6094,-8.6094,-8.6094,-8.6094,-8.6094,-8.6094,-8.6094,-8.6094,-8.6094,-8.6094,-8.6094,-8.6094,-8.6094,-8.6094,-8.6094,-8.6094,-8.6094,-8.6094,-8.6094,-8.6094,-8.6094,-8.6094,-8.6094,-8.6094,-8.6094,-8.6094,-8.6094,-8.6094,-8.6094,-8.6094,-8.6094,-8.6094,-8.6094,-8.6094,-8.6094,-8.6094,-8.6094,-8.6094,-8.6094,-8.6094,-8.6094,-8.6094,-8.6094,-8.6094,-8.6094,-8.594,-8.5824,-8.5401,-8.3978,-8.3478,-8.3362,-8.3247,-8.267,-8.2093,-8.2093,-8.1593,-8.1093,-8.1093,-8.1093,-8.1093,-8.1093,-8.1093,-8.1093,-8.1093,-8.1093,-8.1093,-8.1093,0.0,-8.2093,-8.2093,-8.2747,-8.3247,-8.3401,-8.3401,-8.3747,-8.4632,-8.4709,-8.5055,-8.5863,-8.5901,-8.5901,-8.5901,-8.6017,-8.6094,-8.6094,-8.6094,-8.6094,-8.6094,-8.6094,-8.6094,-8.6094,-8.6094,-8.6094,-8.6094,-8.6094,-8.6094,-8.6094,-8.6094,-8.6094,-8.6094,-8.6094,-8.6094,-8.6209,-8.694,-8.7209,-8.7325,-8.6094,-8.6094,-8.6094,-8.6094,-8.6094,-8.6094,-8.6094,-8.6094,-8.6094,-8.6094,-8.6094,-8.6094,-8.6094,-8.6094,-8.6094,-8.6094,-8.6094,-8.6094,-8.6094,-8.6094,-8.6094,-8.6094,-8.6094,-8.6094,-8.6094,-8.6094,-8.6094,-8.6094,-8.6094,-8.6094,-8.6094,-8.6094,-8.6094,-8.6094,-8.6094,-8.6094,-8.6094,-8.6094,-8.6094,-8.6094,-8.6094,-8.6094,-8.6094,-8.6094,-8.6094,-8.6094,-8.6094,-8.6094,-8.6094,-8.6094,-8.6094,-8.6094,-8.6094,-8.6094,-8.6094,-8.6094,-8.6094,-8.5824,-8.4632,-8.4286,-8.417,-8.3708,-8.3285,-8.2978,-8.2978,-8.2708,-8.2439,-8.2439,-8.2439,-8.2439,-8.2439,-8.2439,-8.2439,-8.2439,-8.2439,0.0,-8.2439,-8.2747,-8.2978,-8.2978,-8.3362,-8.3785,-8.4247,-8.4286,-8.4632,-8.5478,-8.5555,-8.5709,-8.6094,-8.6094,-8.6094,-8.6094,-8.6094,-8.6094,-8.6094,-8.6555,-8.6555,-8.6094,-8.6594,-8.6555,-8.6094,-8.6094,-8.6094,-8.6094,-8.6094,-8.6094,-8.6094,-8.6094,-8.6094,-8.6094,-8.6094,-8.6401,-8.6863,-8.7248,-8.7709,-8.8209,-8.6094,-8.6094,-8.6094,-8.6094,-8.6094,-8.6094,-8.6094,-8.6094,-8.6094,-8.6094,-8.6094,-8.6094,-8.6094,-8.6094,-8.6094,-8.6094,-8.6094,-8.6094,-8.6094,-8.6094,-8.6094,-8.6094,-8.6094,-8.6094,-8.6094,-8.6094,-8.6094,-8.6094,-8.6094,-8.6094,-8.6094,-8.6094,-8.6094,-8.6094,-8.6094,-8.6094,-8.6094,-8.6094,-8.6094,-8.6094,-8.6094,-8.6094,-8.6094,-8.6094,-8.6094,-8.6094,-8.6094,-8.6094,-8.6094,-8.6094,-8.6094,-8.6094,-8.6094,-8.6094,-8.6094,-8.6094,-8.6094,-8.5978,-8.5363,-8.517,-8.5016,-8.4362,-8.4016,-8.3901,-8.3901,-8.3747,-8.3593,-8.3593,-8.3593,-8.3593,-8.3593,-8.3593,-8.3593,-8.3593,0.0,-8.3593,-8.3593,-8.3747,-8.3901,-8.3901,-8.4055,-8.4439,-8.5132,-8.517,-8.544,-8.6055,-8.6094,-8.6094,-8.6094,-8.6094,-8.6209,-8.6401,-8.6401,-8.6286,-8.6094,-8.6978,-8.6978,-8.6094,-8.6786,-8.6748,-8.6094,-8.6094,-8.6094,-8.6094,-8.6094,-8.6094,-8.6094,-8.6094,-8.6209,-8.6401,-8.6401,-8.694,-8.7709,-8.7902,-8.8402,-8.9094,-8.6094,-8.6094,-8.6094,-8.6094,-8.6094,-8.6094,-8.6094,-8.6094,-8.6094,-8.6094,-8.6094,-8.6094,-8.6094,-8.6094,-8.6094,-8.6094,-8.6094,-8.6094,-8.6094,-8.6094,-8.6094,-8.6094,-8.6094,-8.6094,-8.6094,-8.6094,-8.6094,-8.6094,-8.6094,-8.6094,-8.6094,-8.6094,-8.6094,-8.6094,-8.6094,-8.6094,-8.6094,-8.6094,-8.6094,-8.6094,-8.6094,-8.6094,-8.6094,-8.6094,-8.6094,-8.6094,-8.6094,-8.6094,-8.6094,-8.6094,-8.6094,-8.6094,-8.6094,-8.6094,-8.6094,-8.6094,-8.6094,-8.6094,-8.6017,-8.6017,-8.6017,-8.594,-8.5363,-8.4786,-8.4786,-8.417,-8.3593,-8.3593,-8.3593,-8.3593,-8.3593,-8.3593,-8.3593,-8.3593,0.0,0.0,-8.3593,-8.4286,-8.4786,-8.4786,-8.5478,-8.594,-8.6017,-8.6017,-8.6055,-8.6094,-8.6094,-8.6094,-8.6094,-8.6094,-8.6478,-8.7286,-8.7286,-8.6901,-8.6094,-8.6978,-8.6978,-8.6094,-8.617,-8.617,-8.6094,-8.6094,-8.6094,-8.6094,-8.6094,-8.6094,-8.6094,-8.6094,-8.6594,-8.7286,-8.7286,-8.7825,-8.8671,-8.944,-8.9748,-8.994,-8.6094,-8.6094,-8.6094,-8.6094,-8.6094,-8.6094,-8.6094,-8.6094,-8.6094,-8.6094,-8.6094,-8.6094,-8.6094,-8.6094,-8.6094,-8.6094,-8.6094,-8.6094,-8.6094,-8.6094,-8.6094,-8.6094,-8.6094,-8.6094,-8.6094,-8.6094,-8.6094,-8.6094,-8.6094,-8.6094,-8.6094,-8.6094,-8.6094,-8.6094,-8.6094,-8.6094,-8.6094,-8.6094,-8.6094,-8.6094,-8.6094,-8.6094,-8.6094,-8.6094,-8.6094,-8.6094,-8.6094,-8.6094,-8.6094,-8.6094,-8.6094,-8.6094,-8.6094,-8.6094,-8.6094,-8.6094,-8.6094,-8.6094,-8.6094,-8.6094,-8.6094,-8.6094,-8.5863,-8.5632,-8.5632,-8.5401,-8.5132,-8.5132,-8.5132,-8.5132,-8.5132,-8.5132,-8.5132,-8.5132,0.0,-8.5132,-8.5132,-8.544,-8.5632,-8.5632,-8.5901,-8.6094,-8.6094,-8.6094,-8.6094,-8.6094,-8.6094,-8.6324,-8.6863,-8.6901,-8.7055,-8.7401,-8.7401,-8.7248,-8.6901,-8.7209,-8.6978,-8.6094,-8.6632,-8.6632,-8.6094,-8.6094,-8.6094,-8.6094,-8.6094,-8.6094,-8.6132,-8.6671,-8.7094,-8.744,-8.7979,-8.8709,-8.9479,-8.9787,-9.0248,-9.0748,-8.6094,-8.6094,-8.6094,-8.6094,-8.6094,-8.6094,-8.6094,-8.6094,-8.6094,-8.6094,-8.6094,-8.6094,-8.6094,-8.6094,-8.6094,-8.6094,-8.6094,-8.6094,-8.6094,-8.6094,-8.6094,-8.6094,-8.6094,-8.6094,-8.6094,-8.6094,-8.6094,-8.6094,-8.6094,-8.6094,-8.6094,-8.6094,-8.6094,-8.6094,-8.6094,-8.6094,-8.6094,-8.6094,-8.6094,-8.6094,-8.6094,-8.6094,-8.6094,-8.6094,-8.6094,-8.6094,-8.6094,-8.6094,-8.6094,-8.6094,-8.6094,-8.6094,-8.6094,-8.6094,-8.6094,-8.6094,-8.6094,-8.6094,-8.6094,-8.6094,-8.6094,-8.6094,-8.6094,-8.6094,-8.6094,-8.6094,-8.6094,-8.6094,-8.6094,-8.6094,-8.6094,-8.6094,-8.6094,-8.6094,-8.6094,-8.6094,-8.6094,-8.6094,-8.6094,-8.6094,-8.6094,-8.6094,-8.6094,-8.6094,-8.6209,-8.6478,-8.6247,-8.6363,-8.6978,-8.7248,-8.7401,-8.7401,-8.7401,-8.7401,-8.7401,-8.7401,-8.6978,-8.6094,-8.6709,-8.6671,-8.6094,-8.6094,-8.6094,-8.6132,-8.6401,-8.6517,-8.6594,-8.744,-8.794,-8.8248,-8.8825,-8.9594,-9.0325,-9.0325,-9.071,-9.121,-8.6094,-8.6094,-8.6094,-8.6094,-8.6094,-8.6094,-8.6094,-8.6094,-8.6094,-8.6094,-8.6094,-8.6094,-8.6094,-8.6094,-8.6094,-8.6094,-8.6094,-8.6094,-8.6094,-8.6094,-8.6094,-8.6094,-8.6094,-8.6094,-8.6094,-8.6094,-8.6094,-8.6094,-8.6094,-8.6094,-8.6094,-8.6094,-8.6094,-8.6094,-8.6094,-8.6094,-8.6094,-8.6094,-8.6094,-8.6094,-8.6094,-8.6094,-8.6094,-8.6094,-8.6094,-8.6094,-8.6094,-8.6094,-8.6094,-8.6094,-8.6094,-8.6094,-8.6094,-8.6094,-8.6094,-8.6094,-8.6094,-8.6094,-8.6094,-8.6094,-8.6094,-8.6094,-8.6094,-8.6094,-8.6094,-8.6094,-8.6094,-8.6094,-8.6094,-8.6094,-8.6094,-8.6094,-8.6094,-8.6094,-8.6094,-8.6094,-8.6094,-8.6094,-8.6094,-8.6094,-8.6094,-8.6094,-8.6094,-8.6094,-8.6478,-8.7325,-8.6594,-8.6094,-8.6094,-8.694,-8.7401,-8.7401,-8.7401,-8.7401,-8.7401,-8.7401,-8.6978,-8.6094,-8.6094,-8.6094,-8.6094,-8.6094,-8.6094,-8.617,-8.7017,-8.7401,-8.7478,-8.8363,-8.9171,-8.9902,-8.9902,-9.0441,-9.121,-9.121,-9.121,-9.121,-8.6094,-8.6094,-8.6094,-8.6094,-8.6094,-8.6094,-8.6094,-8.6094,-8.6094,-8.6094,-8.6094,-8.6094,-8.6094,-8.6094,-8.6094,-8.6094,-8.6094,-8.6094,-8.6094,-8.6094,-8.6094,-8.6094,-8.6094,-8.6094,-8.6094,-8.6094,-8.6094,-8.6094,-8.6094,-8.6094,-8.6094,-8.6094,-8.6094,-8.6094,-8.6094,-8.6094,-8.6094,-8.6094,-8.6094,-8.6094,-8.6094,-8.6094,-8.6094,-8.6094,-8.6094,-8.6094,-8.6094,-8.6094,-8.6094,-8.6094,-8.6094,-8.6094,-8.6094,-8.6094,-8.6094,-8.6094,-8.6094,-8.6094,-8.6094,-8.6094,-8.6094,-8.6094,-8.6094,-8.6094,-8.6094,-8.6094,-8.6094,-8.6094,-8.6094,-8.6094,-8.6094,-8.6094,-8.6094,-8.6094,-8.6094,-8.6094,-8.6094,-8.6094,-8.6094,-8.6094,-8.6094,-8.6094,-8.6094,-8.6094,-8.6209,-8.6478,-8.6824,-8.7017,-8.7017,-8.7248,-8.7401,-8.7401,-8.6824,-8.6478,-8.6478,-8.6478,-8.6363,-8.6094,-8.6094,-8.6094,-8.6094,-8.6094,-8.644,-8.7017,-8.7286,-8.7748,-8.8363,-8.921,-8.9671,-8.9979,-9.0556,-9.0979,-9.121,-9.121,-9.121,-9.121,-8.7132,-8.7132,-8.7132,-8.7132,-8.7132,-8.7132,-8.7132,-8.7132,-8.7132,-8.7132,-8.7132,-8.7132,-8.7132,-8.7132,-8.6978,-8.6632,-8.6286,-8.6094,-8.6094,-8.6094,-8.6094,-8.6094,-8.6094,-8.6094,-8.6094,-8.6094,-8.6094,-8.6094,-8.6094,-8.6094,-8.6094,-8.6094,-8.6094,-8.6094,-8.6094,-8.6094,-8.6094,-8.6094,-8.6094,-8.6094,-8.6094,-8.6094,-8.6094,-8.6094,-8.6094,-8.6094,-8.6094,-8.6094,-8.6094,-8.6094,-8.6094,-8.6094,-8.6094,-8.6094,-8.6094,-8.6094,-8.6094,-8.6094,-8.6094,-8.6094,-8.6094,-8.6094,-8.6094,-8.6094,-8.6094,-8.6094,-8.6094,-8.6094,-8.6094,-8.6094,-8.6094,-8.6094,-8.6094,-8.6094,-8.6094,-8.6094,-8.6094,-8.6094,-8.6094,-8.6094,-8.6094,-8.6094,-8.6094,-8.6094,-8.6094,-8.6094,-8.6901,-8.7248,-8.6901,-8.6901,-8.6901,-8.6901,-8.6363,-8.6094,-8.6094,-8.6094,-8.6094,-8.6094,-8.6094,-8.6094,-8.6094,-8.6478,-8.6901,-8.744,-8.8094,-8.8671,-8.9248,-9.0056,-9.0402,-9.0479,-9.0979,-9.121,-9.121,-9.121,-9.121,-9.121,-8.8709,-8.8709,-8.8709,-8.8709,-8.8709,-8.8709,-8.8709,-8.8709,-8.8709,-8.8709,-8.8709,-8.8709,-8.8709,-8.8709,-8.8363,-8.7594,-8.6786,-8.6324,-8.6324,-8.6324,-8.6324,-8.6324,-8.6324,-8.6324,-8.6324,-8.617,-8.6094,-8.6094,-8.6094,-8.6094,-8.6094,-8.6094,-8.6094,-8.6094,-8.6094,-8.6094,-8.6094,-8.6094,-8.6094,-8.6094,-8.6094,-8.6094,-8.6094,-8.6094,-8.6094,-8.6094,-8.6094,-8.6094,-8.6094,-8.6094,-8.6094,-8.6094,-8.6094,-8.6094,-8.6094,-8.6094,-8.6094,-8.6094,-8.6094,-8.6094,-8.6094,-8.6094,-8.6094,-8.6094,-8.6094,-8.6094,-8.6094,-8.6094,-8.6094,-8.6094,-8.6094,-8.6094,-8.6094,-8.6094,-8.6094,-8.6094,-8.6094,-8.6094,-8.6094,-8.6094,-8.6094,-8.6094,-8.6094,-8.6094,-8.6094,-8.6094,-8.6824,-8.694,-8.6132,-8.6094,-8.6094,-8.6094,-8.6094,-8.6094,-8.6094,-8.6094,-8.6094,-8.6094,-8.617,-8.6209,-8.6247,-8.7132,-8.7555,-8.7709,-8.9248,-8.9923,-9.0094,-9.0864,-9.121,-9.121,-9.121,-9.121,-9.121,-9.121,-9.121,-9.121,-8.8709,-8.8709,-8.8709,-8.8709,-8.8709,-8.8709,-8.8709,-8.8709,-8.8709,-8.8709,-8.8709,-8.8709,-8.8709,-8.8709,-8.8632,-8.844,-8.8248,-8.8132,-8.8132,-8.8132,-8.8132,-8.8132,-8.8132,-8.8132,-8.8132,-8.6786,-8.6094,-8.6094,-8.6094,-8.6094,-8.6094,-8.6094,-8.6094,-8.6094,-8.6094,-8.6094,-8.6094,-8.6094,-8.6094,-8.6094,-8.6094,-8.6094,-8.6094,-8.6094,-8.6094,-8.6094,-8.6094,-8.6094,-8.6094,-8.6094,-8.6094,-8.6094,-8.6094,-8.6094,-8.6094,-8.6094,-8.6094,-8.6094,-8.6094,-8.6094,-8.6094,-8.6094,-8.6094,-8.6094,-8.6094,-8.6094,-8.6094,-8.6094,-8.6094,-8.6094,-8.6094,-8.6094,-8.6094,-8.6094,-8.6094,-8.6094,-8.6094,-8.6094,-8.6094,-8.6094,-8.6094,-8.6094,-8.6094,-8.6094,-8.6094,-8.6094,-8.6286,-8.6286,-8.6094,-8.6094,-8.6094,-8.6094,-8.6094,-8.6094,-8.6094,-8.6094,-8.6094,-8.6094,-8.6786,-8.7132,-8.7132,-8.8017,-8.8748,-8.9402,-8.9748,-9.0287,-9.0941,-9.1133,-9.121,-9.121,-9.121,-9.121,-9.121,-9.121,-9.121,-9.121,-8.9902,-8.9902,-8.9902,-8.9902,-8.9902,-8.9902,-8.9902,-8.9902,-8.9902,-8.9902,-8.9902,-8.9902,-8.9902,-8.9902,-8.971,-8.9325,-8.8902,-8.8709,-8.8709,-8.8709,-8.8709,-8.8709,-8.8709,-8.8709,-8.8709,-8.7825,-8.7325,-8.7325,-8.7325,-8.7325,-8.7325,-8.7325,-8.7325,-8.7325,-8.7325,-8.7325,-8.7325,-8.6901,-8.6709,-8.6671,-8.6286,-8.6094,-8.6094,-8.6094,-8.6094,-8.6094,-8.6094,-8.6094,-8.6094,-8.6094,-8.6094,-8.6094,-8.6094,-8.6094,-8.6094,-8.6094,-8.6094,-8.6094,-8.6094,-8.6094,-8.6094,-8.6094,-8.6094,-8.6094,-8.6094,-8.6094,-8.6094,-8.6094,-8.6094,-8.6094,-8.6094,-8.6094,-8.6094,-8.6094,-8.6094,-8.6094,-8.6094,-8.6094,-8.6094,-8.6094,-8.6094,-8.6094,-8.6094,-8.6094,-8.6094,-8.6094,-8.6094,-8.6094,-8.6094,-8.6094,-8.6094,-8.6094,-8.6094,-8.6094,-8.6094,-8.6517,-8.694,-8.7325,-8.7363,-8.7632,-8.8055,-8.8902,-8.9517,-8.994,-9.0364,-9.0787,-9.121,-9.121,-9.121,-9.121,-9.121,-9.121,-9.121,-9.121,-9.121,-9.121,-9.121,-9.121,-9.121,-9.121,-9.121,-9.121,-9.121,-9.121,-9.121,-9.121,-9.121,-9.121,-9.121,-9.121,-9.0902,-9.021,-8.9517,-8.9133,-8.9133,-8.9133,-8.9133,-8.9133,-8.9133,-8.9133,-8.9133,-8.9133,-8.8979,-8.8709,-8.8709,-8.8709,-8.8709,-8.8709,-8.8709,-8.8709,-8.8709,-8.8709,-8.8632,-8.794,-8.7632,-8.7555,-8.6824,-8.6555,-8.6555,-8.6555,-8.644,-8.6324,-8.6324,-8.6247,-8.6094,-8.6094,-8.6094,-8.6094,-8.6094,-8.6094,-8.6094,-8.6094,-8.6094,-8.6094,-8.6094,-8.6094,-8.6094,-8.6094,-8.6094,-8.6094,-8.6094,-8.6094,-8.6094,-8.6094,-8.6094,-8.6094,-8.6094,-8.6094,-8.6094,-8.6094,-8.6094,-8.6094,-8.6094,-8.6094,-8.6094,-8.6094,-8.6094,-8.6094,-8.6094,-8.6094,-8.6094,-8.6094,-8.6094,-8.6094,-8.6094,-8.6094,-8.6094,-8.6094,-8.6247,-8.6401,-8.6555,-8.7248,-8.8132,-8.9133,-8.8248,-8.8286,-8.9133,-8.9825,-9.0133,-9.0171,-9.0902,-9.121,-9.121,-9.121,-9.121,-9.121,-9.121,-9.121,-9.121,-9.121,-9.121,-9.121,-9.121,-9.121,-9.121,-9.121,-9.121,-9.121,-9.121,-9.121,-9.121,-9.121,-9.121,-9.121,-9.121,-9.121,-9.1171,-9.1018,-9.0941,-9.0864,-9.0864,-9.0864,-9.0864,-9.0864,-9.0864,-9.0864,-9.0864,-9.0864,-9.0133,-8.8709,-8.8709,-8.8709,-8.8709,-8.8709,-8.8709,-8.8709,-8.8709,-8.8709,-8.8671,-8.8556,-8.8517,-8.8517,-8.8402,-8.8363,-8.8363,-8.8363,-8.7863,-8.7209,-8.7209,-8.6748,-8.6094,-8.6094,-8.6094,-8.6094,-8.6094,-8.6094,-8.6094,-8.6094,-8.6094,-8.6094,-8.6094,-8.6094,-8.6094,-8.6094,-8.6094,-8.6094,-8.6094,-8.6094,-8.6094,-8.6094,-8.6094,-8.6094,-8.6094,-8.6094,-8.6094,-8.6094,-8.6094,-8.6094,-8.6094,-8.6094,-8.6094,-8.6094,-8.6094,-8.6094,-8.6094,-8.6094,-8.6094,-8.6094,-8.6094,-8.6094,-8.6094,-8.6094,-8.6094,-8.6094,-8.6824,-8.7594,-8.8325,-8.8479,-8.9325,-9.0864,-8.9979,-9.0017,-9.0864,-9.0979,-9.1018,-9.1018,-9.1171,-9.121,-9.121,-9.121,-9.121,-9.121,-9.121,-9.121,-9.121,-9.121,-9.121,-9.121,-9.121,-9.121,-9.121,-9.121,-9.121,-9.121,-9.121,-9.121,-9.121,-9.121,-9.121,-9.121,-9.121,-9.121,-9.121,-9.121,-9.121,-9.121,-9.121,-9.121,-9.121,-9.121,-9.121,-9.121,-9.121,-9.121,-9.0825,-9.0094,-9.0094,-9.0094,-9.0094,-9.0094,-9.0094,-9.0094,-9.0094,-9.0094,-9.0056,-8.9594,-8.9363,-8.9325,-8.8863,-8.8709,-8.8709,-8.8709,-8.844,-8.8132,-8.8132,-8.7555,-8.6824,-8.6824,-8.6517,-8.6094,-8.6094,-8.6094,-8.6094,-8.6094,-8.6094,-8.6094,-8.6094,-8.6094,-8.6094,-8.6094,-8.6094,-8.6094,-8.6094,-8.6094,-8.6094,-8.6094,-8.6094,-8.6094,-8.6094,-8.6094,-8.6094,-8.6094,-8.6094,-8.6094,-8.6094,-8.6094,-8.6094,-8.6094,-8.6094,-8.6094,-8.6094,-8.6094,-8.6094,-8.6094,-8.6094,-8.6094,-8.6094,-8.6555,-8.7055,-8.7555,-8.8363,-8.8979,-8.9363,-8.9863,-9.0479,-9.121,-9.0825,-9.0825,-9.121,-9.121,-9.121,-9.121,-9.121,-9.121,-9.121,-9.121,-9.121,-9.121,-9.121,-9.121,-9.121,-9.121,-9.121,-9.121]},{"header":{"parameterUnit":"m.s-1","parameterCategory":1,"la1":30.6,"la2":28.766,"lo1":-90.7593,"lo2":-88.6598,"dy":0.0162,"dx":0.0183,"nx":116,"ny":114,"refTime":"2024-02-22T18:00:00:Z","depth":0,"parameterNumber":3,"parameterNumberName":"V-component_of_WINDS"},"data":[0.0,0.0,0.0,0.0,0.0,0.0,0.0,0.0,0.0,0.0,0.0,0.0,0.0,0.0,0.0,0.0,0.0,0.0,0.0,0.0,0.0,0.0,0.0,0.0,0.0,0.0,0.0,0.0,0.0,0.0,0.0,0.0,0.0,0.0,0.0,0.0,0.0,0.0,0.0,0.0,0.0,0.0,0.0,0.0,0.0,0.0,0.0,0.0,0.0,0.0,0.0,0.0,0.0,0.0,0.0,0.0,0.0,0.0,0.0,0.0,0.0,0.0,0.0,0.0,0.0,0.0,0.0,0.0,0.0,0.0,0.0,0.0,0.0,0.0,0.0,0.0,0.0,0.0,0.0,0.0,0.0,0.0,0.0,0.0,0.0,0.0,0.0,0.0,0.0,0.0,0.0,0.0,0.0,0.0,0.0,0.0,0.0,0.0,0.0,0.0,0.0,0.0,0.0,0.0,0.0,0.0,0.0,0.0,0.0,0.0,0.0,0.0,0.0,0.0,0.0,0.0,0.0,0.0,0.0,0.0,0.0,0.0,0.0,0.0,0.0,0.0,0.0,0.0,0.0,0.0,0.0,0.0,0.0,0.0,0.0,0.0,0.0,0.0,0.0,0.0,0.0,0.0,0.0,0.0,0.0,0.0,0.0,0.0,0.0,0.0,0.0,0.0,0.0,0.0,0.0,0.0,0.0,0.0,0.0,0.0,0.0,0.0,0.0,0.0,0.0,0.0,0.0,0.0,0.0,0.0,0.0,0.0,0.0,0.0,0.0,0.0,0.0,0.0,0.0,0.0,0.0,0.0,0.0,0.0,0.0,0.0,0.0,0.0,0.0,0.0,0.0,0.0,0.0,0.0,0.0,0.0,0.0,0.0,0.0,0.0,0.0,0.0,0.0,0.0,0.0,0.0,0.0,0.0,0.0,0.0,0.0,0.0,0.0,0.0,0.0,0.0,0.0,0.0,0.0,0.0,0.0,0.0,0.0,0.0,0.0,0.0,0.0,0.0,0.0,0.0,0.0,0.0,0.0,0.0,0.0,0.0,0.0,0.0,0.0,0.0,0.0,0.0,0.0,0.0,0.0,0.0,0.0,0.0,0.0,0.0,0.0,0.0,0.0,0.0,0.0,0.0,0.0,0.0,0.0,0.0,0.0,0.0,0.0,0.0,0.0,0.0,0.0,0.0,0.0,0.0,0.0,0.0,0.0,0.0,0.0,0.0,0.0,0.0,0.0,0.0,0.0,0.0,0.0,0.0,0.0,0.0,0.0,0.0,0.0,0.0,0.0,0.0,0.0,0.0,0.0,0.0,0.0,0.0,0.0,0.0,0.0,0.0,0.0,0.0,0.0,0.0,0.0,0.0,0.0,0.0,0.0,0.0,0.0,0.0,0.0,0.0,0.0,0.0,0.0,0.0,0.0,0.0,0.0,0.0,0.0,0.0,0.0,0.0,0.0,0.0,0.0,0.0,0.0,0.0,0.0,0.0,0.0,0.0,0.0,0.0,0.0,0.0,0.0,0.0,0.0,0.0,0.0,0.0,0.0,0.0,0.0,0.0,0.0,0.0,0.0,0.0,0.0,0.0,0.0,0.0,0.0,0.0,0.0,0.0,0.0,0.0,0.0,0.0,0.0,0.0,0.0,0.0,0.0,0.0,0.0,0.0,0.0,0.0,0.0,0.0,0.0,0.0,0.0,0.0,0.0,0.0,0.0,0.0,0.0,0.0,0.0,0.0,0.0,0.0,0.0,0.0,0.0,0.0,0.0,0.0,0.0,0.0,0.0,0.0,0.0,0.0,0.0,0.0,0.0,0.0,0.0,0.0,0.0,0.0,0.0,0.0,0.0,0.0,0.0,0.0,0.0,0.0,0.0,0.0,0.0,0.0,0.0,0.0,0.0,0.0,0.0,0.0,0.0,0.0,0.0,0.0,0.0,0.0,0.0,0.0,0.0,0.0,0.0,0.0,0.0,0.0,0.0,0.0,0.0,0.0,0.0,0.0,0.0,0.0,0.0,0.0,0.0,0.0,0.0,0.0,0.0,0.0,0.0,0.0,0.0,0.0,0.0,0.0,0.0,0.0,0.0,0.0,0.0,0.0,0.0,0.0,0.0,0.0,0.0,0.0,0.0,0.0,0.0,0.0,0.0,0.0,0.0,0.0,0.0,0.0,0.0,0.0,0.0,0.0,0.0,0.0,0.0,0.0,0.0,0.0,0.0,0.0,0.0,0.0,0.0,0.0,0.0,0.0,0.0,0.0,0.0,0.0,0.0,0.0,0.0,0.0,0.0,0.0,0.0,0.0,0.0,0.0,0.0,0.0,0.0,0.0,0.0,0.0,0.0,0.0,0.0,0.0,0.0,0.0,0.0,0.0,0.0,0.0,0.0,0.0,0.0,0.0,0.0,0.0,0.0,0.0,0.0,0.0,0.0,0.0,0.0,0.0,0.0,0.0,0.0,0.0,0.0,0.0,0.0,0.0,0.0,0.0,0.0,0.0,0.0,0.0,0.0,0.0,0.0,0.0,0.0,0.0,0.0,0.0,0.0,0.0,0.0,0.0,0.0,0.0,0.0,0.0,0.0,0.0,0.0,0.0,0.0,0.0,0.0,0.0,0.0,0.0,0.0,0.0,0.0,0.0,0.0,0.0,0.0,0.0,0.0,0.0,0.0,0.0,0.0,0.0,0.0,0.0,0.0,0.0,0.0,0.0,0.0,0.0,0.0,0.0,0.0,0.0,0.0,0.0,0.0,0.0,0.0,0.0,0.0,0.0,0.0,0.0,0.0,0.0,0.0,0.0,0.0,0.0,0.0,0.0,0.0,0.0,0.0,0.0,0.0,0.0,0.0,0.0,0.0,0.0,0.0,0.0,0.0,0.0,0.0,0.0,0.0,0.0,0.0,0.0,0.0,0.0,0.0,0.0,0.0,0.0,0.0,0.0,0.0,0.0,0.0,0.0,0.0,0.0,0.0,0.0,0.0,0.0,0.0,0.0,0.0,0.0,0.0,0.0,0.0,0.0,0.0,0.0,0.0,0.0,0.0,0.0,0.0,0.0,0.0,0.0,0.0,0.0,0.0,0.0,0.0,0.0,0.0,0.0,0.0,0.0,0.0,0.0,0.0,0.0,0.0,0.0,0.0,0.0,0.0,0.0,0.0,0.0,0.0,0.0,0.0,0.0,0.0,0.0,0.0,0.0,0.0,0.0,0.0,0.0,0.0,0.0,0.0,0.0,0.0,0.0,0.0,0.0,0.0,0.0,0.0,0.0,0.0,0.0,0.0,0.0,0.0,0.0,0.0,0.0,0.0,0.0,0.0,0.0,0.0,0.0,0.0,0.0,0.0,0.0,0.0,0.0,0.0,0.0,0.0,0.0,0.0,0.0,0.0,0.0,0.0,0.0,0.0,0.0,0.0,0.0,0.0,0.0,0.0,0.0,0.0,0.0,0.0,0.0,0.0,0.0,0.0,0.0,0.0,0.0,0.0,0.0,0.0,0.0,0.0,0.0,0.0,0.0,0.0,0.0,0.0,0.0,0.0,0.0,0.0,0.0,0.0,0.0,0.0,0.0,0.0,0.0,0.0,0.0,0.0,0.0,0.0,0.0,0.0,0.0,0.0,0.0,0.0,0.0,0.0,0.0,0.0,0.0,0.0,0.0,0.0,0.0,0.0,0.0,0.0,0.0,0.0,0.0,0.0,0.0,0.0,0.0,0.0,0.0,0.0,0.0,0.0,0.0,0.0,0.0,0.0,0.0,0.0,0.0,0.0,0.0,0.0,0.0,0.0,0.0,0.0,0.0,0.0,0.0,0.0,0.0,0.0,0.0,0.0,0.0,0.0,0.0,0.0,0.0,0.0,0.0,0.0,0.0,0.0,0.0,0.0,0.0,0.0,0.0,0.0,0.0,0.0,0.0,0.0,0.0,0.0,0.0,0.0,0.0,0.0,0.0,0.0,0.0,0.0,0.0,0.0,0.0,0.0,0.0,0.0,0.0,0.0,0.0,0.0,0.0,0.0,0.0,0.0,0.0,0.0,0.0,0.0,0.0,0.0,0.0,0.0,0.0,0.0,0.0,0.0,0.0,0.0,0.0,0.0,0.0,0.0,0.0,0.0,0.0,0.0,0.0,0.0,0.0,0.0,0.0,0.0,0.0,0.0,0.0,0.0,0.0,0.0,0.0,0.0,0.0,0.0,0.0,0.0,0.0,0.0,0.0,0.0,0.0,0.0,0.0,0.0,0.0,0.0,0.0,0.0,0.0,0.0,0.0,0.0,0.0,0.0,0.0,0.0,0.0,0.0,0.0,0.0,0.0,0.0,0.0,0.0,0.0,0.0,0.0,0.0,0.0,0.0,0.0,0.0,0.0,0.0,0.0,0.0,0.0,0.0,0.0,0.0,0.0,0.0,0.0,0.0,0.0,0.0,0.0,0.0,0.0,0.0,0.0,0.0,0.0,0.0,0.0,0.0,0.0,0.0,0.0,0.0,0.0,0.0,0.0,0.0,0.0,0.0,0.0,0.0,0.0,0.0,0.0,0.0,0.0,0.0,0.0,0.0,0.0,0.0,0.0,0.0,0.0,0.0,0.0,0.0,0.0,0.0,0.0,0.0,0.0,0.0,0.0,0.0,0.0,0.0,0.0,0.0,0.0,0.0,0.0,0.0,0.0,0.0,0.0,0.0,0.0,0.0,0.0,0.0,0.0,0.0,0.0,0.0,0.0,0.0,0.0,0.0,0.0,0.0,0.0,0.0,0.0,0.0,0.0,0.0,0.0,0.0,0.0,0.0,0.0,0.0,0.0,0.0,0.0,0.0,0.0,0.0,0.0,0.0,0.0,0.0,0.0,0.0,0.0,0.0,0.0,0.0,0.0,0.0,0.0,0.0,0.0,0.0,0.0,0.0,0.0,0.0,0.0,0.0,0.0,0.0,0.0,0.0,0.0,0.0,0.0,0.0,0.0,0.0,0.0,0.0,0.0,0.0,0.0,0.0,0.0,0.0,0.0,0.0,0.0,0.0,0.0,0.0,0.0,0.0,0.0,0.0,0.0,0.0,0.0,0.0,0.0,0.0,0.0,0.0,0.0,0.0,0.0,0.0,0.0,0.0,0.0,0.0,0.0,0.0,0.0,0.0,0.0,0.0,0.0,0.0,0.0,0.0,0.0,0.0,0.0,0.0,0.0,0.0,0.0,0.0,0.0,0.0,0.0,0.0,0.0,0.0,0.0,0.0,0.0,0.0,0.0,0.0,0.0,0.0,0.0,0.0,0.0,0.0,0.0,0.0,0.0,0.0,0.0,0.0,0.0,0.0,0.0,0.0,0.0,0.0,0.0,0.0,0.0,0.0,0.0,0.0,0.0,0.0,0.0,0.0,0.0,0.0,0.0,0.0,0.0,0.0,0.0,0.0,0.0,0.0,0.0,0.0,0.0,0.0,0.0,0.0,0.0,0.0,0.0,0.0,0.0,0.0,0.0,0.0,0.0,0.0,0.0,0.0,0.0,0.0,0.0,0.0,0.0,0.0,0.0,0.0,0.0,0.0,0.0,0.0,0.0,0.0,0.0,0.0,0.0,0.0,0.0,0.0,0.0,0.0,0.0,0.0,0.0,0.0,0.0,0.0,0.0,0.0,0.0,0.0,0.0,0.0,0.0,0.0,0.0,0.0,0.0,0.0,0.0,0.0,0.0,0.0,0.0,0.0,0.0,0.0,0.0,0.0,0.0,0.0,0.0,0.0,0.0,0.0,0.0,0.0,0.0,0.0,0.0,0.0,0.0,0.0,0.0,0.0,0.0,0.0,0.0,0.0,0.0,0.0,0.0,0.0,0.0,0.0,0.0,0.0,0.0,0.0,0.0,0.0,0.0,0.0,0.0,0.0,0.0,0.0,0.0,0.0,0.0,0.0,0.0,0.0,0.0,0.0,0.0,0.0,0.0,0.0,0.0,0.0,0.0,0.0,0.0,0.0,0.0,0.0,0.0,0.0,0.0,0.0,0.0,0.0,0.0,0.0,0.0,0.0,0.0,0.0,0.0,0.0,0.0,0.0,0.0,0.0,0.0,0.0,0.0,0.0,0.0,0.0,0.0,0.0,0.0,0.0,0.0,0.0,0.0,1.1619,1.1619,0.0,0.0,0.0,0.0,0.0,0.0,0.0,0.0,0.0,0.0,0.0,0.0,0.0,0.0,0.0,0.0,0.0,0.0,0.0,0.0,0.0,0.0,0.0,0.0,0.0,0.0,1.0019,1.0019,1.0019,1.0019,1.0097,1.0253,0.9703,0.947,0.9703,0.7513,0.6264,0.6264,0.5327,0.5309,0.6055,0.7984,0.8837,0.8756,0.0,0.0,0.0,0.0,0.0,0.0,0.0,0.0,0.0,0.0,0.0,0.0,0.0,0.0,0.0,0.0,0.0,0.0,0.0,0.0,0.0,0.0,0.0,0.0,0.0,0.0,0.0,0.0,0.0,0.0,0.0,0.0,0.0,0.0,0.0,0.0,0.0,0.0,0.0,0.0,0.0,0.0,0.0,0.0,0.0,0.0,0.0,0.0,0.0,0.0,0.0,0.0,0.0,0.0,0.0,0.0,0.0,0.0,0.0,0.0,0.0,0.0,0.0,0.0,0.0,0.0,0.0,0.0,0.0,0.0,1.1619,1.1619,0.0,0.0,0.0,0.0,0.0,0.0,0.0,0.0,0.0,0.0,0.0,0.0,0.0,0.0,0.0,0.0,0.0,0.0,0.0,0.0,0.0,0.0,0.0,1.0019,1.0019,1.0019,1.0019,1.0019,1.0019,0.9708,0.9703,1.0169,0.8613,0.7989,0.8457,0.7123,0.642,0.642,0.7734,0.9228,1.0726,1.1081,1.0381,0.8778,1.0646,0.0,0.0,0.0,0.0,0.0,0.0,0.0,0.0,0.0,0.0,0.0,0.0,0.0,0.0,0.0,0.0,0.0,0.0,0.0,0.0,0.0,0.0,0.0,0.0,0.0,0.0,0.0,0.0,0.0,0.0,0.0,0.0,0.0,0.0,0.0,0.0,0.0,0.0,0.0,0.0,0.0,0.0,0.0,0.0,0.0,0.0,0.0,0.0,0.0,0.0,0.0,0.0,0.0,0.0,0.0,0.0,0.0,0.0,0.0,0.0,0.0,0.0,0.0,1.1619,1.1619,1.1619,1.1619,1.1619,1.1619,1.1619,1.1619,1.1619,1.1619,0.0,0.0,0.0,0.0,0.0,0.0,0.0,0.0,0.0,0.0,0.0,0.0,0.0,0.0,0.0,0.0,0.0,0.0,0.0,0.0,0.0,1.0019,1.0019,1.0019,1.0019,1.0019,1.0019,0.8608,0.7985,0.8379,0.7205,0.6736,0.7127,0.6971,0.6815,0.6815,0.6899,0.7735,0.9226,0.9494,0.9371,0.8933,1.0908,1.163,1.153,0.0,0.0,0.0,0.0,0.0,0.0,0.0,0.0,0.0,0.0,0.0,0.0,0.0,0.0,0.0,0.0,0.0,0.0,0.0,0.0,0.0,0.0,0.0,0.0,0.0,0.0,0.0,0.0,0.0,0.0,0.0,0.0,0.0,0.0,0.0,0.0,0.0,0.0,0.0,0.0,0.0,0.6059,0.4811,0.0,0.0,0.0,0.0,0.0,0.0,0.0,0.0,0.0,0.0,0.0,0.0,0.0,1.1619,1.1619,1.1619,1.1619,1.1619,1.1619,1.1619,1.1619,1.1619,1.1619,1.1619,1.1619,0.0,1.1619,1.1619,0.0,0.0,0.0,0.0,0.0,0.0,0.0,0.0,0.0,0.0,0.0,0.0,0.0,0.0,0.0,0.0,0.0,0.0,0.0,0.0,0.0,0.9158,0.9003,0.9942,0.9158,0.8608,0.8608,0.8141,0.7517,0.6733,0.5561,0.5014,0.5167,0.5062,0.5955,0.7748,0.8161,0.8845,0.9854,1.0461,1.0468,1.0111,1.12,1.12,1.0462,1.128,0.0,0.0,0.0,0.0,0.0,0.0,0.0,0.0,0.0,0.0,0.0,0.0,0.0,0.0,0.0,0.0,0.0,0.0,0.0,0.0,0.0,0.0,0.0,0.0,0.0,0.0,0.0,0.0,0.0,0.0,0.0,0.0,0.0,0.0,0.0,0.0,0.0,0.0,0.0,0.5407,0.5188,0.4594,0.7048,0.8602,0.0,0.0,0.0,0.0,0.0,0.0,0.0,0.0,0.0,1.1619,1.1619,1.1619,1.1619,1.1619,1.1619,1.1619,1.1619,1.1619,1.1619,1.1619,1.1619,1.1619,1.1619,1.1619,1.1619,1.1619,1.1667,1.1735,0.0,0.0,0.0,0.0,1.206,1.2203,0.0,0.0,0.0,0.0,0.0,0.0,0.0,0.0,0.0,0.0,0.0,0.0,0.9392,0.8608,0.8453,0.9314,0.8608,0.8141,0.8141,0.7652,0.6781,0.5689,0.4277,0.3651,0.3725,0.4463,0.6163,0.8935,0.9681,1.0293,1.09,1.1484,1.1576,1.1188,1.1476,1.0966,0.9945,1.1109,1.1619,1.1619,0.0,0.0,0.0,0.0,0.0,0.0,0.0,0.0,0.0,0.0,0.0,0.0,0.0,0.0,0.0,0.0,0.0,0.0,0.0,0.0,0.0,0.0,0.0,0.0,0.0,0.0,0.0,0.0,0.0,0.0,0.0,0.0,0.0,0.0,0.0,0.0,0.0,0.4551,0.461,0.4657,0.7217,0.9062,0.0,0.0,0.0,0.0,0.0,0.0,1.1613,1.1619,1.1619,1.1619,1.1619,1.1619,1.1619,1.1619,1.1619,1.1619,1.1619,1.1619,1.1619,1.1619,1.1619,1.1619,1.1619,1.164,1.1674,1.1674,1.1735,1.1837,1.1877,1.1986,1.2121,1.2121,1.2216,1.2345,0.0,0.0,0.0,0.0,0.0,0.0,0.0,0.0,0.0,0.0,0.0,0.9392,0.7829,0.9003,0.9236,0.7751,0.9003,0.9864,0.9864,0.6891,0.5314,0.5621,0.3964,0.3183,0.3639,0.6574,0.893,1.0522,1.089,1.1259,1.1561,1.1554,1.1626,1.1548,1.1619,1.1548,1.1476,1.1548,1.1619,1.1619,1.1619,0.0,0.0,0.0,0.0,0.0,0.0,0.0,0.0,0.0,0.0,0.0,0.0,0.0,0.0,0.0,0.0,0.0,0.0,0.0,0.0,0.0,0.0,0.0,0.0,0.0,0.0,0.0,0.0,0.0,0.0,0.0,0.0,0.0,0.0,0.0,0.0,0.0,0.0,0.4724,0.7313,0.0,0.0,0.0,0.0,1.1599,1.1606,1.1613,1.1619,1.1619,1.1619,1.1619,1.1619,1.1619,1.1619,1.1619,1.1619,1.1619,1.1619,1.1619,1.1619,1.1619,1.1619,1.1619,1.1619,1.1694,1.1823,1.1823,1.1823,1.1843,1.1993,1.2142,1.2277,1.2277,1.2372,1.2488,0.0,0.0,0.0,0.0,0.0,0.0,0.0,0.0,0.963,0.853,0.8375,0.8141,0.7591,0.7045,0.7435,0.9003,0.8691,0.8375,0.8375,0.7508,0.6382,0.5154,0.4715,0.5043,0.612,0.7529,0.9108,1.0825,1.126,1.1523,1.1619,1.1619,1.1619,1.1619,1.1619,1.1619,1.1619,1.1619,1.1619,1.1619,1.1619,1.1619,0.0,0.0,0.0,0.0,0.0,0.0,0.0,0.0,0.0,0.0,0.0,0.0,0.0,0.0,0.0,0.0,0.0,0.0,0.0,0.0,0.0,0.0,0.0,0.0,0.0,0.0,0.0,0.0,0.0,0.0,0.0,0.0,0.0,0.0,0.0,0.0,0.0,0.7625,0.9468,0.0,1.0809,1.1207,1.1558,1.1613,1.1619,1.1619,1.1619,1.1619,1.1619,1.1619,1.1619,1.1619,1.1619,1.1619,1.1667,1.1755,1.1755,1.1809,1.1904,1.1904,1.1904,1.1904,1.1904,1.1932,1.1986,1.2088,1.2128,1.2128,1.2189,1.2298,1.2427,1.2427,1.2461,1.2501,0.0,0.0,0.0,0.0,0.0,0.0,0.0,0.0,0.8769,0.7673,0.7045,0.6655,0.6655,0.6186,0.6733,0.9003,0.8686,0.8361,0.8247,0.7463,0.6561,0.5622,0.5781,0.6681,0.8314,0.8748,0.9591,1.0972,1.1404,1.1619,1.1619,1.1619,1.1619,1.1619,1.1619,1.1619,1.1619,1.1619,1.1619,1.1619,1.1619,1.1619,1.1619,0.0,0.0,0.0,0.0,0.0,0.0,0.0,0.0,0.0,0.0,0.0,0.0,0.0,0.0,0.0,0.0,0.0,0.0,0.0,0.0,0.0,0.0,0.0,0.0,0.0,0.0,0.0,0.0,0.0,0.0,0.0,0.0,0.0,0.0,0.7697,0.9291,0.9291,1.0671,1.1619,1.1619,1.1619,1.1619,1.1619,1.1619,1.1619,1.1619,1.1619,1.1619,1.1619,1.1667,1.1687,1.1687,1.1742,1.1816,1.1911,1.1911,1.1965,1.2135,1.2135,1.2135,1.2135,1.2135,1.2169,1.2149,1.225,1.2318,1.2359,1.2359,1.242,1.2501,1.2501,1.2501,1.2501,0.0,0.0,0.0,0.0,0.0,0.0,0.0,0.8608,0.7513,0.7439,0.5952,0.4936,0.4936,0.642,0.7435,0.7513,0.9003,0.997,0.9845,0.6914,0.5781,0.7191,0.7173,0.7991,0.9879,1.0311,1.0678,1.1044,1.1404,1.1619,1.1619,1.1619,1.1619,1.1619,1.1619,1.1619,1.1619,1.1619,1.1619,1.1619,1.1619,1.1619,1.1619,0.0,0.0,0.0,0.0,0.0,0.0,0.0,0.0,0.0,0.0,0.0,0.0,0.0,0.0,0.0,0.0,0.0,0.0,0.0,0.0,0.0,0.0,0.0,0.0,0.0,0.0,0.0,0.0,0.0,0.0,0.0,0.0,0.0,0.7259,0.842,0.9363,0.9363,1.0671,1.1619,1.1619,1.1619,1.1619,1.1619,1.1619,1.1619,1.1626,1.1626,1.1626,1.1633,1.1769,1.1837,1.1837,1.1986,1.206,1.2142,1.2142,1.2149,1.2074,1.2074,1.2074,1.2074,1.2074,1.2162,1.2298,1.2298,1.2379,1.2501,1.2501,1.2501,1.2501,1.2501,1.2501,1.2501,0.0,0.0,0.0,0.0,0.0,0.0,0.0,0.8608,0.7045,0.5874,0.4229,0.3212,0.3212,0.4698,0.6186,0.7357,0.9003,0.997,0.9845,0.8895,0.8523,0.8707,0.8667,0.9224,1.0311,1.0455,1.0822,1.1476,1.1548,1.1619,1.1619,1.1619,1.1619,1.1619,1.1619,1.1619,1.1619,1.1619,1.1619,1.1619,1.1619,1.1619,1.1619,0.0,0.0,0.0,0.0,0.0,0.0,0.0,0.0,0.0,0.0,0.0,0.0,0.0,0.0,0.0,0.0,0.0,0.0,0.0,0.0,0.0,0.0,0.0,0.0,0.0,0.0,0.0,0.0,0.0,0.0,0.0,0.7986,0.9147,0.8709,1.0017,1.0966,1.0966,1.1325,1.1619,1.1619,1.1619,1.1619,1.1619,1.1619,1.166,1.1769,1.1775,1.1823,1.1938,1.1979,1.1999,1.1999,1.204,1.2121,1.223,1.223,1.2284,1.2379,1.2379,1.2379,1.2379,1.2379,1.2406,1.244,1.244,1.2467,1.2501,1.2501,1.2501,1.2501,1.2501,1.2501,1.2501,0.0,0.0,0.0,0.0,0.0,0.0,0.0,0.6495,0.5089,0.4073,0.2508,0.1725,0.2429,0.3368,0.4933,0.7279,0.7713,0.8424,0.9699,0.9612,0.9181,0.8431,0.8967,0.959,1.0239,1.0383,1.0743,1.1332,1.1548,1.1619,1.1619,1.1619,1.1619,1.1619,1.1619,1.1619,1.1619,1.1619,1.1619,1.1619,1.1619,1.1619,1.1619,1.1619,1.1619,1.1619,1.1619,1.1619,1.1619,1.1619,0.0,0.0,0.0,0.0,0.0,0.0,0.0,0.0,0.0,0.0,0.0,0.0,0.0,0.0,0.0,0.0,0.0,0.0,0.0,0.0,0.0,0.0,0.0,0.0,0.9291,1.0233,1.0233,1.1038,1.1619,1.1619,1.1619,1.1619,1.1619,1.1674,1.1708,1.1708,1.1769,1.1843,1.1925,1.1925,1.1972,1.2135,1.2121,1.2155,1.2155,1.2216,1.2291,1.2379,1.2379,1.242,1.2501,1.2501,1.2501,1.2501,1.2501,1.2501,1.2501,1.2501,1.2501,0.0,0.0,0.0,0.0,0.0,1.2501,1.2501,0.0,0.0,0.0,0.0,0.0,0.0,0.0,0.3603,0.2507,0.2507,0.102,0.0549,0.2038,0.235,0.376,0.6967,0.6042,0.6503,0.9527,0.9465,0.88,0.7482,0.8649,0.9535,0.9879,1.0311,1.0671,1.0972,1.1404,1.1626,1.1647,1.1647,1.1653,1.1667,1.1653,1.1647,1.164,1.1626,1.1619,1.1619,1.1619,1.1619,1.1619,1.1619,1.1619,1.1619,1.1619,1.1619,1.1619,1.1619,0.0,0.0,0.0,0.0,0.0,0.0,0.0,0.0,0.0,0.0,0.0,0.0,0.0,0.0,0.0,0.0,0.0,0.0,0.0,0.0,0.0,0.0,0.0,0.0,1.0599,1.1619,1.1619,1.1619,1.1619,1.1619,1.1619,1.1626,1.164,1.1755,1.1837,1.1857,1.1986,1.2142,1.2088,1.2088,0.0,0.0,0.0,1.2318,1.2318,1.244,1.2501,1.2501,1.2501,1.2501,1.2501,1.2501,1.2501,1.2501,1.2501,1.2501,1.2501,1.2501,1.2501,1.2501,1.2501,1.2501,1.2501,1.2501,1.2501,1.2501,0.0,0.0,0.0,0.0,0.0,0.0,0.0,0.3603,0.2507,0.2507,0.102,0.0157,0.0471,0.1725,0.329,0.5327,0.6347,0.7646,0.9602,0.9622,0.9414,0.9045,0.9318,0.9624,0.9885,1.0311,1.0671,1.0972,1.1404,1.1681,1.1789,1.1789,1.1857,1.1972,1.1843,1.1789,1.1782,1.1667,1.1619,1.1619,1.1619,1.1619,1.1619,1.1619,1.1619,1.1619,1.1619,1.1619,1.1619,1.1619,1.1619,1.1404,1.0161,1.0599,0.0,0.0,0.0,0.0,0.0,0.0,0.0,0.0,0.0,0.0,0.0,0.0,0.0,0.0,0.0,0.0,0.0,0.0,0.0,0.9435,1.0599,1.1619,1.1619,1.1619,1.1619,1.1619,1.1619,1.166,1.1775,1.1816,1.1884,1.2006,1.2047,1.2115,1.2237,1.2244,1.2298,1.2413,1.2447,1.2461,1.2461,1.2488,1.2501,1.2501,0.0,0.0,1.2501,1.2501,1.2501,1.2501,1.2501,1.2501,1.2501,1.2501,1.2501,1.2501,1.2501,1.2501,1.2501,1.2501,1.2501,1.2501,0.0,0.0,0.0,0.0,0.0,0.0,0.0,0.1804,0.1255,0.1255,0.0549,0.0,0.0,0.0785,0.196,0.3603,0.5188,0.6441,0.7317,0.8031,0.881,0.9579,0.9519,0.95,0.9596,1.0023,1.0383,1.075,1.1253,1.1544,1.183,1.1911,1.1986,1.2135,1.1979,1.1904,1.1823,1.1755,1.1687,1.1619,1.1619,1.1619,1.1619,1.1619,1.1619,1.1619,1.1619,1.1619,1.1619,1.1619,1.1619,1.1476,1.0671,1.0455,1.0293,0.0,0.0,0.0,0.0,0.0,0.0,0.0,0.0,0.0,0.0,0.0,0.0,0.0,0.0,0.7842,0.7964,0.0,1.037,1.0443,1.1109,1.1619,1.1619,1.1681,1.1728,1.1728,1.1728,1.1782,1.1932,1.202,1.2094,1.2169,1.2244,1.2318,1.2393,1.2393,1.2427,1.2501,1.2501,1.2501,1.2501,1.2501,1.2501,1.2501,1.2501,1.2501,1.2501,1.2501,1.2501,1.2501,1.2501,1.2501,1.2501,1.2501,1.2501,1.2501,1.2501,1.2501,1.2501,1.2501,1.2501,1.2501,0.0,0.0,0.0,0.0,0.0,0.0,0.0,0.0,0.0,0.0,0.0,0.0,0.0,0.0,0.0627,0.2344,0.3955,0.5012,0.5385,0.6564,0.7973,0.9629,0.9584,0.9465,0.934,0.9674,1.0095,1.0383,1.0929,1.1384,1.173,1.2006,1.2169,1.2142,1.2088,1.1993,1.187,1.1816,1.1721,1.1619,1.1619,1.1619,1.1619,1.1619,1.1619,1.1619,1.1619,1.1619,1.1619,1.1619,1.1619,1.1476,1.0887,1.0233,0.9629,0.8931,0.7874,0.0,0.0,0.0,0.0,0.0,0.0,0.0,0.0,0.52,0.5615,0.6996,0.7359,0.7812,0.9165,0.9501,1.0001,1.1337,1.1599,1.1626,1.1653,1.1755,1.185,1.1911,1.1898,1.1938,1.2094,1.2216,1.2298,1.2332,1.2433,1.2501,1.2501,1.2501,1.2501,1.2501,1.2501,1.2501,1.2501,1.2501,1.2501,1.2501,1.2501,1.2501,1.2501,1.2501,1.2501,1.2501,1.2501,1.2501,1.2501,1.2501,1.2501,1.2501,1.2501,1.2501,1.2501,1.2501,1.2501,1.2501,0.0,0.0,0.0,0.0,0.0,0.0,0.0,0.0,0.0,0.0,0.0,0.0,0.0,0.0,0.0626,0.2164,0.3968,0.5602,0.6922,0.7289,0.8147,0.9747,0.9709,0.959,0.947,0.9719,0.9951,0.9951,1.0696,1.1192,1.1512,1.1904,1.2203,1.244,1.2176,1.2054,1.202,1.1755,1.1633,1.1619,1.1619,1.1619,1.1619,1.1619,1.1619,1.1619,1.1619,1.1619,1.1619,1.1619,1.1619,1.1109,0.8348,0.9291,1.079,0.7936,0.7002,0.6856,0.6752,0.5654,0.453,0.4389,0.5124,0.6329,0.0,0.8143,0.8544,0.9958,1.0335,1.0493,1.0649,1.0935,1.1184,1.1416,1.1531,1.166,1.1789,1.1823,1.1932,1.221,1.2121,1.2094,1.225,1.2277,1.2345,1.2467,1.2494,1.2501,1.2501,1.2501,1.2501,1.2501,1.2501,1.2501,1.2501,1.2501,1.2501,1.2501,1.2501,1.2501,1.2501,1.2501,1.2501,1.2501,1.2501,1.2501,1.2501,1.2501,1.2501,1.2501,1.2501,1.2501,1.2501,1.2501,1.2501,1.2501,0.0,0.0,0.0,0.0,0.0,0.0,0.0,0.0,0.0,0.0,0.0,0.0,0.0,0.0,0.0235,0.0935,0.1643,0.2816,0.443,0.4527,0.5683,0.8225,0.8336,0.8695,0.9492,0.9584,0.9736,0.9879,1.0323,1.0785,1.1414,1.1648,1.1978,1.2237,1.2115,1.2013,1.1918,1.1796,1.1694,1.1619,1.1619,1.1619,1.1619,1.1619,1.1619,1.1619,1.1619,1.1619,0.0,1.1619,1.1038,1.0017,0.8709,0.8524,0.8525,0.7143,0.6104,0.5643,0.6389,0.4885,0.3696,0.6172,0.5967,0.5767,0.8107,0.8573,0.8972,1.0386,1.0772,1.0867,1.1043,1.1172,1.1314,1.1497,1.1579,1.1667,1.1809,1.1911,1.2047,1.2264,1.2305,1.2345,1.2406,1.2413,1.244,1.2494,1.2501,1.2501,1.2501,1.2501,1.2501,1.2501,1.2501,1.2501,1.2501,1.2501,1.2501,1.2501,1.2501,1.2501,1.2501,1.2501,1.2501,1.2501,1.2501,1.2501,1.2501,1.2501,1.2501,1.2501,1.2501,1.2501,1.2501,1.2501,1.2501,1.2501,0.0,0.0,0.0,0.0,0.0,0.0,0.0,0.0,0.0,0.0,0.0,0.0,0.0,0.0,0.0,0.0,0.0,0.0706,0.235,0.2507,0.3977,0.7188,0.6853,0.7317,0.8835,0.8849,0.8925,0.9128,0.977,1.0328,1.0957,1.1279,1.1648,1.1911,1.202,1.1938,1.183,1.1789,1.1714,1.1619,1.1619,1.1619,1.1548,1.1109,1.0966,1.1038,1.1476,1.1619,1.1548,1.1109,1.0233,0.9141,0.8313,0.7464,0.6748,0.6217,0.5269,0.4486,0.5124,0.4062,0.3497,0.6635,0.6105,0.5436,0.7503,0.7969,0.8307,0.931,0.9848,1.0057,0.9948,1.058,1.1107,1.0934,1.1332,1.1728,1.187,1.2026,1.2182,1.2332,1.244,1.2501,1.2501,1.2501,1.2501,1.2501,1.2501,1.2501,1.2501,1.2501,1.2501,1.2501,1.2501,1.2501,1.2501,1.2501,1.2501,1.2501,1.2501,1.2501,1.2501,1.2501,1.2501,1.2501,1.2501,1.2501,1.2501,1.2501,1.2501,1.2501,1.2501,1.2501,1.2501,1.2501,1.2501,1.2501,0.0,0.0,0.0,0.0,0.0,0.0,0.0,0.0,0.0,0.0,0.0,0.0,0.0,0.0,0.0,0.0,0.0,0.0706,0.235,0.2507,0.3992,0.7353,0.5803,0.5688,0.7294,0.7203,0.7113,0.7109,0.8993,0.9948,1.0149,1.0957,1.1401,1.1531,1.1683,1.1837,1.1823,1.1687,1.1619,1.1619,1.1619,1.1619,1.1476,0.9945,0.9363,0.9579,1.1038,1.1619,1.1397,0.9873,0.9363,0.8765,0.573,0.5706,0.6595,0.4842,0.4352,0.4037,0.2694,0.323,0.43,0.4367,0.5369,0.6364,0.6431,0.6498,0.6498,0.6498,0.7636,0.8277,0.6898,0.9125,1.079,0.9377,1.0618,1.1877,1.2033,1.2189,1.2338,1.2481,1.2501,1.2501,1.2501,1.2501,1.2501,1.2501,1.2501,1.2501,1.2501,1.2501,1.2501,1.2501,1.2501,1.2501,1.2501,1.2501,1.2501,1.2501,1.2501,1.2501,1.2501,1.2501,1.2501,1.2501,1.2501,1.2501,1.2501,1.2501,1.2501,1.2501,1.2501,1.2501,1.2501,1.2501,1.2501,1.2501,0.0,0.0,0.0,0.0,0.0,0.0,0.0,0.0,0.0,0.0,0.0,0.0,0.0,0.0,0.0,0.0,0.0,0.0236,0.0785,0.0863,0.1803,0.4073,0.3589,0.4575,0.7225,0.6177,0.6581,0.878,0.8224,0.8186,0.8514,0.9759,0.9445,0.7792,0.9149,0.9205,0.8324,0.9524,0.9507,0.8636,0.9651,0.9435,0.8492,0.7982,0.7765,0.7837,0.0,0.8564,0.8492,0.7982,0.7115,0.6029,0.4993,0.4926,0.5111,0.4501,0.4316,0.4166,0.3698,0.3228,0.3362,0.5235,0.5369,0.5235,0.6164,0.6431,0.6431,0.6431,0.6816,0.7097,0.6712,0.7501,0.8525,0.9138,0.9803,1.07,1.1966,1.2196,1.2345,1.2481,1.2501,1.2501,1.2501,1.2501,1.2501,1.2501,1.2501,1.2501,1.2501,1.2501,1.2501,1.2501,1.2501,1.2501,1.2501,1.2501,1.2501,1.2501,1.2501,1.2501,1.2501,1.2501,1.2501,1.2501,1.2501,1.2501,1.2501,1.2501,1.2501,1.2501,1.2501,1.2562,1.2651,1.2651,1.2718,1.2793,0.0,0.0,0.0,0.0,0.0,0.0,0.0,0.0,0.0,0.0,0.0,0.0,0.0,0.0,0.0,0.0,0.0,0.0,0.0,0.0,0.0785,0.2429,0.196,0.2889,0.5495,0.447,0.4905,0.7069,0.6455,0.634,0.6634,0.7723,0.731,0.5627,0.7059,0.7191,0.6467,0.777,0.7788,0.7088,0.8073,0.786,0.6942,0.6402,0.6174,0.0,0.5522,0.5304,0.5377,0.5956,0.5525,0.4581,0.4056,0.3765,0.3601,0.3541,0.3577,0.3568,0.3519,0.2905,0.2625,0.4431,0.4233,0.3763,0.4699,0.4897,0.4906,0.4931,0.5308,0.5581,0.5194,0.652,0.7594,0.7656,0.872,0.9951,1.1133,1.1428,1.1702,1.241,1.2501,1.2501,1.2501,1.2501,1.2501,1.2501,1.2501,1.2501,1.2501,1.2501,1.2501,1.2501,1.2501,1.2501,1.2501,1.2501,1.2501,1.2501,1.2501,1.2501,1.2501,1.2501,1.2501,1.2501,1.2501,1.2501,1.2508,1.2562,1.2583,1.2589,1.2644,1.2725,1.2813,1.2813,1.2908,1.3017,0.0,0.0,0.0,0.0,0.0,0.0,0.0,0.0,0.0,0.0,0.0,0.0,0.0,0.0,0.0,0.0,0.0,0.0,0.0,0.0,0.0706,0.2273,0.0863,0.0785,0.2429,0.2326,0.2236,0.2467,0.3879,0.461,0.4608,0.4992,0.5105,0.4957,0.5405,0.5812,0.6177,0.625,0.644,0.6802,0.6865,0.6812,0.6585,0.5125,0.4595,0.4374,0.2846,0.2335,0.2553,0.4078,0.4584,0.4286,0.2801,0.2251,0.2204,0.2203,0.2181,0.2232,0.2192,0.2178,0.2224,0.2223,0.2223,0.2223,0.2223,0.2223,0.2231,0.2193,0.3229,0.3811,0.2564,0.5848,0.7831,0.5164,0.7406,0.9543,0.9802,1.0004,1.0707,1.2347,1.2501,1.2501,1.2501,1.2501,1.2501,1.2501,1.2501,1.2501,1.2501,1.2501,1.2501,1.2501,1.2501,1.2501,1.2501,1.2501,1.2501,1.2501,1.2501,1.2501,1.2501,1.2508,1.2515,1.2515,1.2522,1.2522,1.2535,1.2684,1.2745,1.2759,1.2901,1.2969,1.2969,1.2969,1.3064,1.3166,0.0,0.0,0.0,0.0,0.0,0.0,0.0,0.0,0.0,0.0,0.0,0.0,0.0,0.0,0.0,0.0,0.0,0.0,0.0,0.0,0.0157,0.0628,0.0236,0.0785,0.2429,0.1252,0.1796,0.4291,0.3392,0.2989,0.3064,0.4267,0.3557,0.141,0.2927,0.3203,0.2622,0.4073,0.425,0.371,0.4801,0.4612,0.3537,0.3152,0.2999,0.2921,0.2523,0.2367,0.2436,0.2778,0.2914,0.2836,0.2443,0.2279,0.2263,0.224,0.2229,0.2219,0.2204,0.2195,0.2183,0.2228,0.2223,0.2223,0.2223,0.2223,0.2231,0.2193,0.2495,0.2664,0.2355,0.3241,0.4208,0.4603,0.6548,0.838,0.9532,1.095,1.203,1.2424,1.2501,1.2501,1.2501,1.2501,1.2501,1.2501,1.2501,1.2501,1.2501,1.2501,1.2501,1.2501,1.2501,1.2501,1.2501,1.2501,1.2501,1.2501,1.2501,1.2501,1.2508,1.2617,1.2671,1.2678,1.2793,1.2847,1.2847,1.2888,1.2901,1.2908,1.2942,1.3024,1.3119,1.3119,1.3214,1.3336,0.0,0.0,0.0,0.0,0.0,0.0,0.0,0.0,0.0,0.0,0.0,0.0,0.0,0.0,0.0,0.0,0.0,0.0,0.0,0.0,0.0,0.0,0.0,0.0471,0.1412,0.0471,0.0942,0.2822,0.1792,0.132,0.1398,0.2283,0.166,0.0076,0.1118,0.1334,0.1039,0.2297,0.2538,0.0,0.0,0.317,0.2442,0.2429,0.2424,0.2421,0.2405,0.239,0.2376,0.2358,0.2343,0.2328,0.23,0.229,0.2288,0.227,0.2256,0.2175,0.2241,0.223,0.2213,0.2183,0.2174,0.2172,0.2225,0.2223,0.2231,0.2193,0.2223,0.2255,0.2285,0.3393,0.4454,0.4725,0.6806,0.8704,0.971,1.0768,1.1643,1.2424,1.2501,1.2501,1.2501,1.2501,1.2501,1.2501,1.2501,1.2501,1.2501,1.2501,1.2501,1.2501,1.2501,1.2501,1.2501,1.2501,1.2501,1.2501,1.2569,1.2603,1.261,1.2759,1.2834,1.2834,1.2922,1.2963,1.2969,1.303,1.3057,1.3057,1.3125,1.32,1.3275,1.3275,1.3329,1.3403,0.0,0.0,0.0,0.0,0.0,0.0,0.0,0.0,0.0,0.0,0.0,0.0,0.0,0.0,0.0,0.0,0.0,0.0,0.0,0.0,0.0,0.0,0.0,0.0,0.0,0.0,0.0,0.0,0.0,0.0,0.0,0.0,0.0,0.0,0.0,0.0227,0.0606,0.0984,0.1373,0.185,0.2212,0.2371,0.2472,0.0,0.0,0.0,0.2431,0.241,0.2383,0.2379,0.2358,0.2328,0.2304,0.2296,0.2296,0.2296,0.2278,0.2191,0.2285,0.2271,0.2244,0.2214,0.2206,0.2198,0.2168,0.2228,0.2169,0.22,0.2226,0.2186,0.229,0.4549,0.6071,0.5017,0.7377,0.9499,0.9927,1.0142,1.0862,1.2347,1.2501,1.2501,1.2501,1.2501,1.2501,1.2501,1.2501,1.2501,1.2501,1.2501,1.2501,1.2501,1.2501,1.2501,1.2501,1.2522,1.2528,1.2535,1.2691,1.2759,1.2766,1.2922,1.307,1.299,1.301,1.3017,1.303,1.3152,1.32,1.3214,1.3349,1.3403,1.3403,1.3403,1.3403,1.3403,0.0,0.0,0.0,0.0,0.0,0.0,0.0,0.0,0.0,0.0,0.0,0.0,0.0,0.0,0.0,0.0,0.0,0.0,0.0,0.0,0.0,0.0,0.0,0.0,0.0,0.0,0.0,0.0,0.0,0.0,0.0,0.0,0.0,0.0,0.0,0.0227,0.0606,0.0681,0.1144,0.1774,0.1847,0.2169,0.2506,0.0,0.0,0.0,0.247,0.2442,0.2412,0.2387,0.2358,0.2333,0.2327,0.2326,0.2326,0.2326,0.2322,0.2313,0.2296,0.2288,0.2275,0.2245,0.2167,0.223,0.2199,0.2192,0.22,0.2232,0.2171,0.2191,0.2316,0.2765,0.35,0.4538,0.6478,0.8234,0.9548,1.1109,1.2192,1.2501,1.2501,1.2501,1.2501,1.2501,1.2501,1.2501,1.2501,1.2501,1.2501,1.2501,1.2501,1.2501,1.2501,1.2501,1.2501,1.2623,1.2691,1.2691,1.2847,1.2922,1.2929,1.3071,1.3139,1.3146,1.3268,0.0,1.3329,1.3349,1.3363,1.3363,1.339,1.3403,1.3403,1.3403,1.3403,1.3403,0.0,0.0,0.0,0.0,0.0,0.0,0.0,0.0,0.0,0.0,0.0,0.0,0.0,0.0,0.0,0.0,0.0,0.0,0.0,0.0,0.0,0.0,0.0,0.0,0.0,0.0,0.0,0.0,0.0,0.0,0.0,0.0,0.0,0.0,0.0,0.0077,0.0309,0.054,0.093,0.1558,0.1791,0.2111,0.0,0.0,0.0,0.0,0.0,0.2473,0.2444,0.2431,0.2394,0.2353,0.2338,0.2333,0.2333,0.2333,0.2333,0.233,0.2316,0.2312,0.2305,0.2277,0.2268,0.2262,0.223,0.2223,0.2228,0.2173,0.2258,0.2278,0.2305,0.2974,0.3794,0.47,0.6931,0.8915,0.9731,1.1357,1.2501,1.2501,1.2501,1.2501,1.2501,1.2501,1.2501,1.2501,1.2501,1.2501,1.2501,1.2501,1.2501,1.2501,1.2576,1.2623,1.2623,1.2773,1.2854,1.2854,1.2996,1.3071,1.3078,1.322,1.3295,1.3295,1.337,1.3403,1.3403,1.3403,1.3403,1.3403,1.3403,1.3403,1.3403,1.3403,1.3403,1.3403,0.0,0.0,0.0,0.0,0.0,0.0,0.0,0.0,0.0,0.0,0.0,0.0,0.0,0.0,0.0,0.0,0.0,0.0,0.0,0.0,0.0,0.0,0.0,0.0,0.0,0.0,0.0,0.0,0.0,0.0,0.0,0.0,0.0,0.0,0.0,0.0,0.0,0.0314,0.0785,0.0,0.0,0.2043,0.0,0.0,0.0,0.0,0.0,0.2499,0.2477,0.2472,0.2433,0.2383,0.2352,0.2338,0.2333,0.2333,0.2333,0.2333,0.2333,0.2333,0.2327,0.2305,0.23,0.2292,0.2262,0.2255,0.2255,0.2255,0.2274,0.2293,0.2298,0.3329,0.4309,0.4796,0.7021,0.8995,0.9851,1.1075,1.2114,1.2424,1.2501,1.2501,1.2501,1.2501,1.2501,1.2501,1.2501,1.2501,1.2501,1.2501,1.2515,1.2549,1.2664,1.2745,1.2779,1.2929,1.301,1.301,1.3152,1.322,1.3227,1.3349,1.3403,1.3403,1.3403,1.3403,1.3403,1.3403,1.3403,1.3403,1.3403,1.3403,1.3403,1.3403,1.3403,1.3403,0.0,0.0,0.0,0.0,0.0,0.0,0.0,0.0,0.0,0.0,0.0,0.0,0.0,0.0,0.0,0.0,0.0,0.0,0.0,0.0,0.0,0.0,0.0,0.0,0.0,0.0,0.0,0.0,0.0,0.0,0.0,0.0,0.0,0.0,0.0,0.0,0.0,0.0079,0.0,0.0,0.0,0.0,0.0,0.0,0.0,0.0,0.0,0.2512,0.2506,0.2478,0.2447,0.2414,0.2384,0.2356,0.2333,0.2333,0.2333,0.2333,0.2333,0.2333,0.2333,0.233,0.2328,0.2322,0.2293,0.2286,0.2286,0.2286,0.2289,0.2298,0.2324,0.2404,0.2988,0.4447,0.5054,0.6337,0.928,1.0015,1.0785,1.2347,1.2501,1.2501,1.2501,1.2501,1.2501,1.2501,1.2501,1.2501,1.2501,1.2501,1.2562,1.2705,1.2725,1.28,1.2935,1.3078,1.3152,1.3152,1.3308,1.3376,1.3376,1.3397,1.3403,1.3403,1.3403,1.3403,0.0,1.3403,1.3403,1.3403,1.3403,1.3403,1.3403,1.3403,1.3403,1.3417,0.0,0.0,0.0,0.0,0.0,0.0,0.0,0.0,0.0,0.0,0.0,0.0,0.0,0.0,0.0,0.0,0.0,0.0,0.0,0.0,0.0,0.0,0.0,0.0,0.0,0.0,0.0,0.0,0.0,0.0,0.0,0.0,0.0,0.0,0.0,0.0,0.0,0.0,0.0,0.0,0.0,0.0,0.0,0.0,0.0,0.0,0.0,0.0,0.2512,0.25,0.2476,0.2446,0.2416,0.2384,0.2357,0.2338,0.2333,0.2333,0.2333,0.2333,0.2333,0.2333,0.2333,0.233,0.2319,0.2316,0.2316,0.2316,0.2316,0.2319,0.2331,0.2333,0.2478,0.3132,0.0,0.0,0.8145,1.0162,1.1721,1.2424,1.2501,1.2501,1.2501,1.2501,1.2501,1.2501,1.2501,1.2542,1.263,1.2637,1.2664,1.2725,1.2901,1.3024,1.3085,1.3234,1.3308,1.3308,1.337,1.3403,1.3403,1.3403,1.3403,1.3403,1.3403,1.3403,0.0,1.3403,1.3403,1.3403,1.3403,1.3403,1.3403,1.3403,1.3458,1.3546,0.0,0.0,0.0,0.0,0.0,0.0,0.0079,0.0,0.0,0.0,0.0,0.0,0.0,0.0,0.0,0.0,0.0,0.0,0.0,0.0,0.0,0.0,0.0,0.0,0.0,0.0,0.0,0.0,0.0,0.0,0.0,0.0,0.0,0.0,0.0,0.0,0.0,0.0,0.0,0.0,0.0,0.0,0.0,0.0,0.0,0.0,0.0,0.0,0.0,0.0,0.0,0.2465,0.2444,0.241,0.0,0.2342,0.2333,0.2333,0.2333,0.2333,0.2333,0.2333,0.2333,0.2333,0.2333,0.2333,0.2333,0.2333,0.2333,0.2333,0.2333,0.2333,0.2333,0.0,0.0,0.6867,0.7319,0.9933,1.1953,1.2424,1.2501,1.2501,1.2501,1.2501,1.2501,1.2501,1.2542,1.2617,1.2725,1.2813,1.2861,1.2861,1.3064,1.3193,1.3241,1.3349,1.3403,1.3403,1.3403,1.3403,1.3403,1.3403,1.3403,1.3403,1.3403,1.3403,0.0,1.3403,1.3403,1.3403,1.3403,1.3403,1.3403,1.3451,1.3539,1.3641,0.0,0.0,0.0,0.0,0.0,0.0,0.0,0.0,0.0,0.0,0.0,0.0,0.0,0.0,0.0,0.0,0.0,0.0,0.0,0.0,0.0,0.0,0.0,0.0,0.0,0.0,0.0,0.0,0.0,0.0,0.0,0.0,0.0,0.0,0.0,0.0,0.0,0.0,0.0,0.0,0.0,0.0,0.2514,0.0,0.0,0.0,0.0,0.0,0.0,0.0,0.0,0.0,0.0,0.2427,0.2372,0.2342,0.2333,0.2333,0.2333,0.2333,0.2333,0.2333,0.2333,0.2333,0.2333,0.2333,0.2333,0.2333,0.2333,0.2333,0.2333,0.2333,0.2333,0.2333,0.0,0.0,0.7168,0.8932,1.063,1.2269,1.2501,1.2501,1.2501,1.2501,1.2501,1.2501,1.2644,1.2725,1.2732,1.301,1.3166,1.3166,1.3173,1.3247,1.3397,1.3403,1.3403,1.3403,1.3403,1.3403,1.3403,1.3403,1.3403,1.3403,1.3403,1.3403,0.0,1.3403,1.3403,1.3403,1.3403,1.3403,1.3417,1.3573,1.3627,1.3675,0.0,0.0,0.0,0.0,0.0,0.0,0.0,0.1725,0.1725,0.1725,0.1725,0.1255,0.0157,0.0,0.0,0.0,0.0,0.0,0.0,0.0,0.0,0.0,0.0,0.0,0.0,0.0,0.0,0.0,0.0,0.0,0.0,0.0,0.0,0.0,0.0,0.0,0.0,0.0,0.0,0.0,0.0,0.2514,0.2514,0.0,0.0,0.0,0.0,0.0,0.0,0.0,0.0,0.0,0.0,0.0,0.0,0.2379,0.2349,0.2333,0.2333,0.2333,0.2333,0.2333,0.2333,0.2333,0.2333,0.2333,0.2333,0.2333,0.2333,0.2333,0.2333,0.2333,0.2333,0.2333,0.0,0.0,0.0,0.9856,1.1876,1.2424,1.2501,1.2501,1.2501,1.2501,1.2501,1.2501,1.2644,1.2779,1.2881,1.3071,1.3173,1.3173,1.3275,1.3349,1.3403,1.3403,1.3403,1.3403,1.3403,1.3403,1.3403,1.3403,1.3403,1.3403,1.3403,1.3403,1.3403,1.3403,1.3403,1.3403,1.3403,1.3464,1.3559,1.3614,1.3756,1.3946,0.0,0.0,0.0,0.0,0.0,0.0,0.0,0.2899,0.2507,0.2507,0.196,0.1177,0.0079,0.0,0.0,0.0,0.0,0.0,0.0,0.0,0.0,0.0,0.0,0.0,0.0,0.0,0.0,0.0,0.0,0.0,0.0,0.0,0.0,0.0,0.0,0.0,0.0,0.0,0.0,0.0,0.2263,0.2504,0.2514,0.0,0.0,0.0,0.0,0.0,0.0,0.0,0.0,0.0,0.0,0.0,0.0,0.0,0.2391,0.2363,0.2339,0.2333,0.2333,0.2333,0.2333,0.2333,0.2333,0.2333,0.2333,0.2333,0.2333,0.2333,0.2333,0.2333,0.2483,0.3152,0.559,0.0,0.8271,1.0727,1.2501,1.2501,1.2501,1.2501,1.2501,1.2501,1.2528,1.2583,1.2732,1.2881,1.303,1.318,1.3261,1.3261,1.3349,1.3403,1.3403,1.3403,1.3403,1.3403,1.3403,1.3403,1.3403,1.3403,1.3403,1.3403,1.3403,1.3403,0.0,1.3403,1.3403,1.3403,1.3464,1.3546,1.3641,1.3756,1.3912,1.4082,0.0,0.0,0.0,0.0,0.0,0.0,0.0,0.0,0.0,0.0,0.149,0.0471,0.0393,0.0236,0.0157,0.0,0.0,0.0,0.0,0.0,0.0,0.0,0.0,0.0,0.0,0.0,0.0,0.0,0.0,0.0,0.0,0.0,0.0,0.0,0.0,0.0,0.0074,0.0903,0.1218,0.1387,0.2159,0.2485,0.0,0.0,0.0,0.0,0.0,0.0,0.0,0.0,0.0,0.0,0.0,0.0,0.0,0.0,0.0,0.0,0.0,0.2338,0.2335,0.2334,0.2333,0.2333,0.2333,0.2333,0.0,0.2333,0.2333,0.2333,0.2333,0.2333,0.2854,0.4591,0.6291,0.8031,0.9731,1.1478,1.2501,1.2501,1.2501,1.2501,1.2501,1.2501,1.2562,1.2718,1.2874,1.3024,1.3166,1.3315,1.3403,1.3403,1.3403,1.3403,1.3403,1.3403,1.3403,1.3403,1.3403,1.3403,1.3403,1.3403,1.3403,0.0,1.3403,1.3403,1.3403,1.3403,1.341,1.3431,1.3573,1.3641,1.3695,1.3973,1.4082,1.4109,0.0,0.0,0.0,0.0,0.0,0.0,0.0,0.0,0.0,0.0,0.5949,0.5245,0.3997,0.2665,0.1881,0.0,0.0,0.0,0.0,0.0,0.0,0.0,0.0,0.0,0.0,0.0,0.0,0.0,0.0,0.0,0.0,0.0,0.0,0.0,0.0,0.0149,0.0521,0.0969,0.1353,0.175,0.2306,0.2473,0.0,0.0,0.0,0.0,0.2514,0.2514,0.0,0.0,0.0,0.0,0.0,0.0,0.0,0.0,0.2463,0.245,0.2413,0.0,0.2361,0.2338,0.2333,0.2333,0.0,0.2333,0.2333,0.2333,0.2333,0.2333,0.2333,0.2333,0.2854,0.4591,0.6291,0.8031,0.9731,1.1478,1.2501,1.2501,1.2501,1.2501,1.2501,1.2501,1.2562,1.2718,1.2874,1.3024,1.3166,1.3315,1.3403,1.3403,1.3403,1.3403,1.3403,1.3403,1.3403,1.3403,1.3403,1.3403,1.3403,1.3403,1.3403,1.3403,1.3403,1.3403,1.3403,1.3403,1.3471,1.358,1.3614,1.377,1.3973,1.4048,1.4143,1.4251,0.0,0.0,0.0,0.0,0.0,0.0,0.0,0.0,0.0,0.0,0.0,0.0,0.0,0.0,0.0,0.0,0.0,0.0,0.0,0.0,0.0,0.0,0.0,0.0,0.0,0.0,0.0,0.0,0.0,0.0,0.0,0.0,0.0,0.0,0.0,0.0223,0.0595,0.1034,0.141,0.1804,0.2284,0.0,0.0,0.0,0.0,0.0,0.2514,0.2514,0.0,0.2514,0.2514,0.2514,0.0,0.0,0.0,0.0,0.2489,0.2484,0.2453,0.2412,0.2375,0.2357,0.2343,0.2333,0.2333,0.2333,0.2333,0.2333,0.2333,0.2333,0.2333,0.2929,0.3836,0.4777,0.6943,0.9162,1.0892,1.1908,1.2501,1.2501,1.2501,1.2501,1.2501,1.2562,1.2671,1.2827,1.2976,1.3125,1.3268,1.3356,1.3403,1.3403,1.3403,1.3403,1.3403,1.3403,1.3403,1.3403,1.3403,1.3403,1.3403,1.3403,1.3403,1.3403,1.3403,1.3403,1.3403,1.3403,1.3492,1.3634,1.3702,1.3865,1.4082,1.415,1.4231,1.4299,0.0,0.0,0.0,0.0,0.0,0.0,0.0,0.0,0.0,0.0,0.0,0.0,0.0,0.0,0.0,0.0,0.0,0.0,0.0,0.0,0.0,0.0,0.0,0.0,0.0,0.0,0.0,0.0,0.0,0.0,0.0,0.0,0.0,0.0,0.0075,0.0298,0.0594,0.1101,0.1468,0.1854,0.2258,0.0,0.0,0.0,0.0,0.0,0.0,0.0,0.0,0.2514,0.2514,0.2514,0.2514,0.0,0.0,0.0,0.0,0.0,0.2482,0.2435,0.2391,0.2386,0.2363,0.2339,0.2339,0.2337,0.2333,0.2333,0.2333,0.2407,0.263,0.3686,0.4768,0.5588,0.8327,1.0892,1.2326,1.2501,1.2501,1.2501,1.2501,1.2501,1.2501,1.2637,1.2793,1.2949,1.3091,1.3241,1.339,1.3403,1.3403,1.3403,1.3403,1.3403,1.3403,1.3403,1.3403,1.3403,1.3403,1.3403,1.3403,1.3403,1.3403,1.3403,1.3403,0.0,1.3403,1.3424,1.3526,1.3675,1.3817,1.3973,1.4122,1.4251,1.4299,1.4299,0.0,0.0,0.0,0.0,0.0,0.0,0.0,0.0,0.0,0.0,0.0,0.0,0.0,0.0,0.0,0.0,0.0,0.0,0.0,0.0,0.0,0.0,0.0,0.0,0.0,0.0,0.0,0.0,0.0,0.0,0.0,0.0,0.0,0.0,0.0376,0.0521,0.0669,0.1393,0.1752,0.1831,0.2251,0.0,0.0,0.0,0.0,0.0,0.0,0.0,0.0,0.2514,0.2514,0.2514,0.2514,0.0,0.0,0.0,0.0,0.0,0.2508,0.2482,0.2448,0.2423,0.2394,0.2371,0.2371,0.2352,0.2333,0.2333,0.2333,0.2778,0.4209,0.3559,0.4185,0.8545,1.0821,1.2243,1.2501,1.2501,1.2501,1.2501,1.2501,1.2501,1.2501,1.2637,1.2793,1.2949,1.3091,1.3241,1.339,1.3403,1.3403,1.3403,1.3403,1.3403,1.3403,1.3403,1.3403,1.3403,1.3403,1.3403,1.3403,1.3403,1.3403,1.3403,0.0,1.3403,1.341,1.3539,1.3682,1.3824,1.3973,1.4129,1.4272,1.4292,1.4299,1.4299,0.0,0.0,0.0,0.0,0.0,0.0,0.0,0.0,0.0,0.0,0.0,0.0,0.0,0.0,0.0,0.0,0.0,0.0,0.0,0.0,0.0941,0.0079,0.0,0.0,0.0,0.0,0.0,0.0,0.0,0.0,0.0,0.0,0.0,0.0,0.0382,0.0683,0.0985,0.156,0.1915,0.214,0.0,0.0,0.0,0.0,0.0,0.0,0.0,0.0,0.0,0.0,0.2514,0.2514,0.2514,0.0,0.0,0.0,0.0,0.0,0.2514,0.2504,0.2491,0.2476,0.2438,0.2398,0.2382,0.2367,0.2353,0.2337,0.2346,0.2877,0.4596,0.5026,0.6539,1.0668,1.1213,1.1488,1.2347,1.2501,1.2501,1.2501,1.2501,1.2501,1.2501,1.2718,1.2888,1.2956,1.3166,1.3329,1.3397,1.3403,1.3403,1.3403,1.3403,1.3403,1.3403,1.3403,1.3403,1.3403,1.3403,1.3403,1.3403,1.3403,1.3403,1.3403,0.0,1.3403,1.341,1.3566,1.3709,1.3858,1.4014,1.4163,1.4299,1.4299,1.4299,1.4299,0.0,0.0,0.0,0.0,0.0,0.0,0.0,0.0,0.0,0.0,0.0,0.0,0.0,0.0,0.0,0.0,0.0,0.0,0.0,0.0,0.196,0.0628,0.0236,0.0,0.0,0.0,0.0,0.0,0.0,0.0,0.0,0.0079,0.0157,0.0157,0.0698,0.108,0.1387,0.1734,0.209,0.2391,0.0,0.0,0.0,0.0,0.0,0.0,0.0,0.0,0.0,0.0,0.0,0.0,0.0,0.0,0.0,0.2514,0.2514,0.2514,0.2514,0.2514,0.2514,0.2514,0.2474,0.2428,0.2405,0.2394,0.2382,0.2358,0.2668,0.3358,0.4713,0.6622,0.8823,1.0999,1.094,1.1017,1.2347,1.2501,1.2501,1.2501,1.2501,1.2501,1.2501,1.2779,1.2963,1.2963,1.3234,1.3403,1.3403,1.3403,1.3403,1.3403,1.3403,1.3403,1.3403,1.3403,1.3403,1.3403,1.3403,1.3403,1.3403,1.3403,1.3403,1.3403,1.3403,1.3424,1.3464,1.3614,1.3763,1.3912,1.4061,1.4197,1.4299,1.4299,1.4299,1.4299,0.0,0.0,0.0,0.0,0.0,0.0,0.0,0.0,0.0,0.0,0.0,0.0,0.0,0.0,0.0,0.0,0.0,0.0,0.0,0.0,0.2429,0.235,0.0863,0.0,0.0,0.0,0.0,0.0,0.0,0.0,0.0,0.0393,0.055,0.0628,0.1396,0.1697,0.1773,0.2205,0.2344,0.2423,0.2454,0.0,0.0,0.0,0.0,0.0,0.0,0.0,0.0,0.0,0.0,0.0,0.0,0.0,0.2514,0.2514,0.2514,0.2514,0.2514,0.2514,0.2514,0.2514,0.2489,0.2465,0.2463,0.244,0.242,0.2417,0.3623,0.4769,0.4976,0.7667,0.9376,0.8059,1.0397,1.2347,1.2501,1.2501,1.2501,1.2501,1.2501,1.2501,1.2501,1.2779,1.2963,1.2963,1.3234,1.3403,1.3403,1.3403,1.3403,1.3403,1.3403,1.3403,1.3403,1.3403,1.3403,1.3403,1.3403,1.3403,1.3403,1.3403,1.3403,1.3403,1.3403,1.3485,1.3627,1.377,1.3912,1.4068,1.4224,1.4292,1.4299,1.4299,1.4299,1.4299,0.0,0.0,0.0,0.0,0.0,0.0,0.0,0.0,0.0,0.0,0.0,0.0,0.0,0.0,0.0,0.0,0.0,0.0,0.0,0.5949,0.5167,0.4073,0.243,0.1569,0.1569,0.0549,0.0,0.0,0.0,0.0157,0.0393,0.055,0.0785,0.1021,0.1642,0.1872,0.1871,0.2311,0.2451,0.2453,0.2465,0.2469,0.0,0.0,0.0,0.0,0.0,0.0,0.0,0.0,0.2514,0.2514,0.0,0.2514,0.2514,0.2514,0.2514,0.2514,0.2514,0.2514,0.2514,0.2514,0.2506,0.2492,0.2473,0.2461,0.2446,0.2428,0.3803,0.5596,0.7752,0.9976,1.1333,1.0707,1.1643,1.2501,1.2501,1.2501,1.2501,1.2501,1.2501,1.2535,1.2637,1.2834,1.2996,1.3085,1.3288,1.3403,1.3403,1.3403,1.3403,1.3403,1.3403,1.3403,1.3403,1.3403,1.3403,1.3403,1.3403,1.3403,1.3403,1.3403,1.3403,1.3403,1.3403,1.3485,1.3641,1.3783,1.3933,1.4089,1.4238,1.4299,1.4299,1.4299,1.4299,1.4299,0.0,0.0,0.0,0.0,0.0,0.0,0.0,0.0,0.0,0.0,0.0,0.0,0.0,0.0,0.0,0.0,0.0,0.0,0.8425,0.7872,0.6997,0.5874,0.3681,0.2507,0.2507,0.0863,0.0,0.0,0.0157,0.0314,0.0628,0.0864,0.1178,0.1493,0.1886,0.2121,0.212,0.2414,0.2484,0.2484,0.2484,0.2484,0.0,0.0,0.0,0.0,0.0,0.0,0.0,0.0,0.2514,0.0,0.0,0.0,0.0,0.2514,0.2514,0.2514,0.2514,0.2514,0.2514,0.2514,0.2514,0.2665,0.3186,0.3256,0.3249,0.322,0.4158,0.6045,0.9366,1.0474,1.1095,1.1643,1.2192,1.2501,1.2501,1.2501,1.2501,1.2501,1.2501,1.2562,1.2718,1.2868,1.3097,1.3159,1.3315,1.3403,1.3403,1.3403,1.3403,1.3403,1.3403,1.3403,1.3403,1.3403,1.3403,1.3403,1.3403,1.3403,1.3403,1.3403,1.3403,1.3403,1.3403,1.3512,1.3702,1.3797,1.396,1.4156,1.4258,1.4299,1.4299,1.4299,1.4299,1.4299,0.0,0.0,0.0,0.0,0.0,0.0,0.0,0.0,0.0,0.0,0.0,0.0,0.0,0.0,0.0,0.0,0.0,0.0,1.0215,0.8609,0.769,0.7521,0.4307,0.2585,0.2507,0.0863,0.0,0.0,0.0393,0.0628,0.0628,0.1493,0.1886,0.1886,0.2357,0.2514,0.2514,0.2514,0.2514,0.2514,0.2514,0.2514,0.2514,0.0,0.0,0.0,0.0,0.0,0.0,0.0,0.2514,0.0,0.0,0.0,0.0,0.0,0.2514,0.2514,0.2514,0.2514,0.2514,0.2514,0.2514,0.2983,0.4625,0.5014,0.5014,0.5014,0.5014,0.6105,0.9382,0.8682,0.8059,0.9775,1.1411,1.2501,1.2501,1.2501,1.2501,1.2501,1.2501,1.2562,1.2718,1.2868,1.3024,1.3166,1.3315,1.3403,1.3403,1.3403,1.3403,1.3403,1.3403,1.3403,1.3403,1.3403,1.3403,1.3403,1.3403,1.3403,1.3403,1.3403,1.3403,1.3403,1.3403,1.3566,1.3838,1.3759,1.4027,1.4299,1.4299,1.4299,1.4299,1.4299,1.4299,1.4299,0.0,0.0,0.0,0.0,0.0,0.0,0.0,0.0,0.0,0.0,0.0,0.0,0.0,0.0,0.0,0.0,0.0,0.0,1.0335,0.9848,0.9552,0.944,0.7607,0.6,0.4701,0.2197,0.0785,0.0393,0.0864,0.1256,0.1493,0.1807,0.2043,0.2357,0.2435,0.2514,0.2514,0.2514,0.2514,0.2514,0.2514,0.2514,0.2514,0.0,0.0,0.0,0.0,0.0,0.0,0.0,0.0,0.0,0.0,0.0,0.0,0.2514,0.2514,0.2514,0.2514,0.3376,0.3999,0.2828,0.4236,0.5877,0.517,0.4077,0.3922,0.6264,0.7669,0.9148,1.1327,1.1333,1.1178,1.1643,1.2192,1.2501,1.2501,1.2501,1.2501,1.2501,1.2501,1.2603,1.2868,1.2935,1.3064,1.3315,1.3376,1.3403,1.3403,1.3403,1.3403,1.3403,1.3403,1.3403,1.3403,1.3403,1.3403,1.3403,1.3403,1.3403,1.3403,1.3403,1.3403,1.3403,1.3512,1.3668,1.3858,1.4075,1.4217,1.4299,1.4299,1.4299,1.4299,1.4299,1.4299,1.4299,0.0,0.0,0.0,0.0,0.0,0.0,0.0,0.0,0.0,0.0,1.1237,1.1237,0.0,0.0,0.0,0.0,0.0,0.0,0.0,1.1022,1.0965,1.0839,0.9462,0.7497,0.5052,0.2752,0.1414,0.1099,0.1414,0.165,0.1886,0.2043,0.2278,0.2514,0.2514,0.2514,0.2514,0.2514,0.2514,0.2514,0.2514,0.2514,0.2514,0.0,0.0,0.0,0.0,0.0,0.0,0.0,0.0,0.0,0.0,0.0,0.0,0.2514,0.2983,0.3531,0.3531,0.4703,0.5717,0.4703,0.6033,0.7201,0.6186,0.5717,0.6264,0.8915,0.9775,1.0474,1.2192,1.1953,1.1721,1.2424,1.2501,1.2501,1.2501,1.2501,1.2501,1.2501,1.2501,1.2623,1.2929,1.2963,1.3085,1.3376,1.3403,1.3403,1.3403,1.3403,1.3403,1.3403,1.3403,1.3403,1.3403,1.3403,1.3403,1.3403,1.3403,1.3403,1.3403,1.3403,1.3403,1.341,1.362,1.3797,1.3953,1.4197,1.4299,1.4299,1.4299,1.4299,1.4299,1.4299,1.4299,1.4299,0.0,0.0,1.2899,1.3321,0.0,0.0,0.0,0.0,0.0,0.0,1.2069,1.2069,0.0,0.0,0.0,0.0,0.0,0.0,0.0,0.0,1.158,1.1212,0.9643,0.7328,0.4146,0.2687,0.1966,0.1964,0.1964,0.1964,0.1964,0.2357,0.2514,0.2514,0.2514,0.2514,0.2514,0.2514,0.2514,0.2514,0.2514,0.2514,0.2514,0.2514,0.0,0.0,0.0,0.0,0.0,0.0,0.0,0.0,0.2514,0.2514,0.2514,0.2514,0.3687,0.5014,0.5014,0.6342,0.7669,0.7517,0.7591,0.7747,0.7903,0.9148,1.063,1.1953,1.1178,1.0707,1.2192,1.1256,1.0707,1.2269,1.2501,1.2501,1.2501,1.2501,1.2501,1.2501,1.2515,1.2637,1.2935,1.2976,1.3098,1.3376,1.3403,1.3403,1.3403,1.3403,1.3403,1.3403,1.3403,1.3403,1.3403,1.3403,1.3403,1.3403,1.3403,1.3403,1.3403,1.3403,1.3417,1.3458,1.3722,1.3939,1.4102,1.4245,1.4299,1.4299,1.4299,1.4299,1.4299,1.4299,1.4299,1.4299,0.0,0.0,1.3321,1.3403,0.0,0.0,0.0,0.0,0.0,0.0,0.0,0.0,0.0,1.2069,0.0,0.0,0.0,0.0,0.0,0.0,0.9229,0.7651,0.6279,0.5327,0.4865,0.3268,0.2459,0.2357,0.2357,0.2357,0.2357,0.2435,0.2514,0.2514,0.2514,0.2514,0.2514,0.2514,0.2514,0.2514,0.2514,0.2514,0.2514,0.2514,0.2514,0.0,0.0,0.0,0.0,0.0,0.0,0.0,0.2514,0.2514,0.2514,0.2514,0.3687,0.5014,0.5014,0.7197,0.9148,0.7825,0.8526,0.977,1.1101,1.1721,1.1721,1.0707,1.1327,1.203,1.2424,1.2192,1.2108,1.2424,1.2501,1.2501,1.2501,1.2501,1.2501,1.2501,1.261,1.2752,1.2942,1.3064,1.3207,1.339,1.3403,1.3403,1.3403,1.3403,1.3403,1.3403,1.3403,1.3403,1.3403,1.3403,1.3403,1.3403,1.3403,1.3403,1.3403,1.3403,1.3526,1.3749,1.381,1.3994,1.4251,1.4285,1.4299,1.4299,1.4299,1.4299,1.4299,1.4299,1.4299,1.4299,0.0,0.0,0.0,0.0,0.0,0.0,0.0,0.0,0.0,0.0,0.0,0.0,0.0,1.2733,0.0,0.0,1.2733,0.0,0.0,1.0476,0.9198,0.7323,0.5684,0.4982,0.5194,0.3456,0.2552,0.2536,0.2521,0.2514,0.2514,0.2514,0.2514,0.2514,0.2514,0.2514,0.2514,0.2514,0.2514,0.2514,0.2514,0.2514,0.2514,0.2514,0.2514,0.2514,0.2514,0.0,0.0,0.0,0.0,0.0,0.0,0.0,0.2514,0.2514,0.3687,0.517,0.5952,0.8059,1.0008,0.9931,1.0552,1.1411,1.2269,1.2501,1.2269,1.1411,1.1876,1.2501,1.2501,1.2501,1.2501,1.2501,1.2501,1.2501,1.2501,1.2501,1.2501,1.2501,1.2637,1.2793,1.2949,1.3091,1.3234,1.339,1.3403,1.3403,1.3403,1.3403,1.3403,1.3403,1.3403,1.3403,1.3403,1.3403,1.3403,1.3403,1.3403,1.3403,1.3403,1.3478,1.3634,1.3844,1.3919,1.4082,1.4299,1.4299,1.4299,1.4299,1.4299,1.4299,1.4299,1.4299,1.4299,1.4299,0.0,0.0,0.0,0.0,0.0,0.0,0.0,0.0,0.0,0.0,0.0,0.0,0.0,0.0,1.3403,0.0,0.0,0.0,0.0,1.097,0.9133,0.763,0.5826,0.4884,0.4874,0.3403,0.2564,0.264,0.2529,0.2514,0.2514,0.2514,0.2514,0.2514,0.2514,0.2514,0.2514,0.2514,0.2514,0.2514,0.2514,0.2514,0.2514,0.2514,0.2514,0.2514,0.2514,0.2514,0.2514,0.2514,0.0,0.0,0.0,0.0,0.2983,0.3297,0.4547,0.6108,0.7201,0.8759,1.0397,1.2108,1.2501,1.2501,1.2501,1.2501,1.2501,1.2501,1.2501,1.2501,1.2501,1.2501,1.2501,1.2501,1.2501,1.2501,1.2501,1.2501,1.2501,1.2501,1.2657,1.282,1.2949,1.3112,1.3261,1.339,1.3403,1.3403,1.3403,1.3403,1.3403,1.3403,1.3403,1.3403,1.3403,1.3403,1.3403,1.3403,1.3403,1.3403,1.3403,1.3587,1.3729,1.3851,1.4007,1.4156,1.4299,1.4299,1.4299,1.4299,1.4299,1.4299,1.4299,1.4299,1.4299,1.4299,0.0,0.0,0.0,0.0,0.0,0.0,0.0,0.0,0.0,0.0,1.3403,1.3403,0.0,0.0,0.0,1.3403,1.3403,0.0,1.1142,0.0,0.0,0.579,0.4027,0.3007,0.2978,0.2695,0.2585,0.264,0.2529,0.2514,0.2514,0.2514,0.2514,0.2514,0.2514,0.2514,0.2514,0.2514,0.2514,0.2514,0.2514,0.2514,0.2514,0.2514,0.2514,0.2514,0.2514,0.2514,0.2514,0.2514,0.2514,0.0,0.0,0.0,0.4936,0.642,0.8059,0.9071,0.7825,0.8759,1.0397,1.2108,1.2501,1.2501,1.2501,1.2501,1.2501,1.2501,1.2501,1.2501,1.2501,1.2501,1.2501,1.2501,1.2501,1.2501,1.2501,1.2501,1.2501,1.2501,1.2759,1.2935,1.3043,1.3207,1.3376,1.3397,1.3403,1.3403,1.3403,1.3403,1.3403,1.3403,1.3403,1.3403,1.3403,1.3403,1.3403,1.3403,1.3403,1.3403,1.341,1.3688,1.3824,1.3851,1.4007,1.4156,1.4299,1.4299,1.4299,1.4299,1.4299,1.4299,1.4299,1.4299,1.4299,1.4299,0.0,0.0,0.0,0.0,0.0,0.0,0.0,0.0,0.0,0.0,0.0,1.3403,0.0,0.0,0.0,1.3403,1.3403,1.265,1.0809,0.9216,0.0,0.6878,0.5122,0.4191,0.4169,0.3137,0.2613,0.2583,0.2555,0.2532,0.2514,0.2514,0.2514,0.2514,0.2514,0.2514,0.2514,0.2514,0.2514,0.2514,0.2514,0.3062,0.3766,0.2828,0.3689,0.5173,0.4234,0.4469,0.5329,0.5329,0.5329,0.5408,0.6186,0.0,0.0,0.0,0.8059,0.8604,0.8837,1.0086,1.1566,1.2347,1.2501,1.2501,1.2501,1.2501,1.2501,1.2501,1.2501,1.2501,1.2501,1.2501,1.2501,1.2501,1.2501,1.2501,1.2501,1.2501,1.2501,1.2501,1.2773,1.2963,1.2963,1.3227,1.3403,1.3403,1.3403,1.3403,1.3403,1.3403,1.3403,1.3403,1.3403,1.3403,1.3403,1.3403,1.3403,1.3403,1.3403,1.3444,1.3539,1.3743,1.3838,1.3858,1.4095,1.4238,1.4299,1.4299,1.4299,1.4299,1.4299,1.4299,1.4299,1.4299,1.4299,1.4312,0.0,0.0,0.0,0.0,0.0,0.0,0.0,0.0,0.0,0.0,0.0,0.0,0.0,0.0,0.0,0.0,1.3403,1.2816,1.1475,0.0,0.0,0.0,0.0,0.5371,0.5371,0.3573,0.2632,0.2601,0.2574,0.2544,0.2514,0.2514,0.2514,0.2514,0.2514,0.2514,0.2514,0.2514,0.2514,0.2514,0.2983,0.3922,0.4936,0.4079,0.5329,0.7357,0.6108,0.642,0.7513,0.7513,0.7513,0.7591,0.7981,0.8136,0.0,0.0,0.0,0.8526,1.0164,1.125,1.1953,1.2424,1.2501,1.2501,1.2501,1.2501,1.2501,1.2501,1.2501,1.2501,1.2501,1.2501,1.2501,1.2501,1.2501,1.2501,1.2501,1.2501,1.2515,1.2556,1.28,1.2976,1.301,1.3247,1.3403,1.3403,1.3403,1.3403,1.3403,1.3403,1.3403,1.3403,1.3403,1.3403,1.3403,1.3403,1.3403,1.3403,1.3437,1.3519,1.3634,1.3817,1.3899,1.3912,1.4183,1.4299,1.4299,1.4299,1.4299,1.4299,1.4299,1.4299,1.4299,1.4299,1.4299,1.4319,0.0,0.0,0.0,0.0,0.0,0.0,0.0,0.0,0.0,0.0,0.0,0.0,1.3403,1.3403,1.3403,1.3403,1.3403,1.3397,1.3231,1.1641,0.0,0.0,0.0,0.0,0.5371,0.3573,0.2632,0.2601,0.2574,0.2544,0.2514,0.2514,0.2514,0.2514,0.2514,0.2514,0.2514,0.2514,0.2514,0.2671,0.4234,0.4936,0.517,0.6655,0.7361,0.7513,0.7435,0.7439,0.7513,0.7513,0.7513,0.7747,0.9382,0.9853,1.0164,0.0,0.0,0.0,1.1876,1.1256,1.0474,1.2114,1.2501,1.2501,1.2501,1.2501,1.2501,1.2501,1.2501,1.2501,1.2501,1.2501,1.2501,1.2501,1.2501,1.2501,1.2501,1.2501,1.2556,1.2698,1.2861,1.3017,1.3146,1.3308,1.3403,1.3403,1.3403,1.3403,1.3403,1.3403,1.3403,1.3403,1.3403,1.3403,1.3403,1.3403,1.3403,1.3403,1.3546,1.362,1.3641,1.3926,1.4061,1.4068,1.4231,1.4299,1.4299,1.4299,1.4299,1.4299,1.4299,1.4299,1.4299,1.4299,1.4299,1.4319,0.0,0.0,0.0,0.0,0.0,0.0,0.0,0.0,0.0,0.0,0.0,0.0,0.0,1.3403,1.3403,1.3403,1.3403,1.3403,1.3403,1.2816,0.0,0.0,0.0,0.0,0.0,0.5933,0.4401,0.4354,0.3168,0.2572,0.2542,0.2523,0.3062,0.4077,0.2983,0.2514,0.2592,0.3609,0.4077,0.4234,0.5952,0.7279,0.8132,0.7669,0.8837,1.0552,0.9459,0.977,1.0707,1.0707,1.0707,1.0785,1.1411,1.1566,1.1721,1.2347,1.203,1.1721,1.2347,1.203,1.1721,1.2347,1.2501,1.2501,1.2501,1.2501,1.2501,1.2501,1.2501,1.2501,1.2501,1.2501,1.2501,1.2501,1.2501,1.2501,1.2501,1.2501,1.2556,1.2712,1.2868,1.3017,1.3159,1.3308,1.3403,1.3403,1.3403,1.3403,1.3403,1.3403,1.3403,1.3403,1.3403,1.3403,1.3403,1.3403,1.3403,1.3403,1.3553,1.3675,1.377,1.398,1.4129,1.4224,1.4278,1.4299,1.4299,1.4299,1.4299,1.4299,1.4299,1.4299,1.4299,1.4299,1.436,1.4455,0.0,0.0,0.0,0.0,0.0,0.0,0.0,0.0,0.0,1.3403,0.0,0.0,0.0,0.0,1.3403,1.3403,1.3403,1.3403,1.3403,1.3403,1.3403,1.3403,0.0,0.0,0.0,0.7766,0.6234,0.619,0.4979,0.4358,0.431,0.4275,0.48,0.5796,0.4703,0.4158,0.4236,0.5405,0.5874,0.5952,0.7669,0.8993,0.9931,0.9382,1.0552,1.2347,1.125,1.1566,1.2501,1.2501,1.2501,1.2501,1.2501,1.2501,1.2501,1.2501,1.2501,1.2501,1.2501,1.2501,1.2501,1.2501,1.2501,1.2501,1.2501,1.2501,1.2501,1.2501,1.2501,1.2501,1.2501,1.2501,1.2501,1.2501,1.2501,1.2501,1.2501,1.2501,1.2576,1.2786,1.2901,1.3037,1.3227,1.3342,1.3403,1.3403,1.3403,1.3403,1.3403,1.3403,1.3403,1.3403,1.3403,1.3403,1.3403,1.3403,1.3424,1.3478,1.3627,1.3777,1.3926,1.4075,1.4204,1.4299,1.4299,1.4299,1.4299,1.4299,1.4299,1.4299,1.4299,1.4299,1.4299,1.4299,1.4387,1.4529,0.0,0.0,0.0,0.0,0.0,0.0,0.0,0.0,0.0,1.3403,0.0,0.0,0.0,0.0,0.0,1.3403,1.3403,1.3403,1.3403,1.3403,1.3403,1.3403,0.0,0.0,0.0,0.8871,0.7917,0.8086,0.7909,0.7738,0.7731,0.7723,0.7678,0.7595,0.7595,0.7591,0.7669,0.7591,0.7591,0.7747,0.9382,1.0086,1.0241,1.1876,1.2501,1.2501,1.2501,1.2501,1.2501,1.2501,1.2501,1.2501,1.2501,1.2501,1.2501,1.2501,1.2501,1.2501,0.0,0.0,0.0,1.2501,1.2501,1.2501,1.2501,1.2501,1.2501,1.2501,1.2501,1.2501,1.2501,1.2501,1.2501,1.2501,1.2501,1.2501,1.2501,1.2508,1.2623,1.2929,1.2963,1.3078,1.337,1.3403,1.3403,1.3403,1.3403,1.3403,1.3403,1.3403,1.3403,1.3403,1.3403,1.3403,1.3403,1.3403,1.3485,1.3634,1.3777,1.3926,1.4075,1.4231,1.4299,1.4299,1.4299,1.4299,1.4299,1.4299,1.4299,1.4299,1.4299,1.4299,1.4299,1.4306,1.4394,1.4536,0.0,0.0,0.0,0.0,0.0,0.0,0.0,0.0,1.3403,0.0,0.0,0.0,1.3403,1.3403,1.3403,1.3403,1.3403,1.3403,1.3403,1.3403,1.3403,1.3403,1.2899,0.0,0.0,1.0854,0.9926,0.9926,0.8579,0.7946,0.0,0.0,0.8344,0.9425,0.9344,1.0008,1.1017,0.9848,0.9304,0.9459,1.1095,1.1798,1.1876,1.2347,1.2501,1.2501,1.2501,1.2501,1.2501,1.2501,1.2501,1.2501,1.2501,1.2501,1.2501,1.2501,1.2501,1.2501,1.2501,0.0,0.0,0.0,0.0,0.0,1.2501,1.2501,1.2501,1.2501,1.2501,1.2501,1.2501,1.2501,1.2501,1.2501,1.2501,1.2501,1.2501,1.2596,1.2739,1.2935,1.3051,1.3193,1.3383,1.3403,1.3403,0.0,1.3403,1.3403,1.3403,1.3403,1.3403,1.3403,1.3403,1.3403,1.3403,1.3512,1.3587,1.3634,1.3885,1.4034,1.4075,1.4231,1.4299,1.4299,1.4299,1.4299,1.4299,1.4299,1.4299,1.4299,1.4299,1.4299,1.4312,1.4414,1.455,1.4699,0.0,0.0,0.0,0.0,0.0,0.0,0.0,0.0,1.3403,0.0,0.0,0.0,1.3403,1.3403,1.3403,1.3403,1.3403,1.3403,1.3403,1.3403,1.3403,1.3403,1.3403,0.0,0.0,0.0,1.1753,1.1807,0.0,0.0,0.0,0.0,0.0,1.1215,1.1137,1.1622,1.2424,1.1488,1.1017,1.1095,1.2114,1.2501,1.2501,1.2501,1.2501,1.2501,1.2501,1.2501,1.2501,1.2501,1.2501,1.2501,1.2501,1.2501,1.2501,1.2501,1.2501,1.2501,1.2501,1.2501,1.2501,1.2501,0.0,0.0,1.2501,1.2501,1.2501,1.2501,1.2501,1.2501,1.2501,1.2501,1.2501,1.2501,1.2501,1.2501,1.2501,1.263,1.2786,1.2942,1.3085,1.3234,1.339,1.3403,1.3403,1.3403,1.3403,1.3403,1.3403,1.3403,1.3403,1.3403,1.3403,1.3403,1.3403,1.3553,1.3661,1.3722,1.396,1.4102,1.417,1.4258,1.4299,1.4299,1.4299,1.4299,1.4299,1.4299,1.4299,1.4299,1.4299,1.434,1.4401,1.4482,1.4652,1.4848,0.0,0.0,1.3403,1.3403,1.3403,0.0,0.0,0.0,1.3403,0.0,1.3403,1.3403,1.3403,1.3403,1.3403,1.3403,1.3403,1.3403,1.3403,1.3403,1.3403,0.0,0.0,0.0,0.0,0.0,0.0,0.0,0.0,0.0,0.0,0.0,0.0,1.2779,1.2759,1.2678,1.2549,1.2535,1.2528,1.2528,1.2508,1.2501,1.2501,1.2501,1.2501,1.2501,1.2501,1.2501,1.2501,1.2501,1.2501,1.2501,1.2501,1.2501,1.2501,1.2501,1.2501,1.2501,1.2501,1.2501,1.2501,1.2501,1.2501,0.0,1.2501,1.2501,1.2501,1.2501,1.2501,1.2501,1.2501,1.2501,1.2501,1.2501,1.2501,1.2508,1.2522,1.2657,1.2813,1.2969,1.3112,1.3254,1.339,1.3403,1.3403,1.3403,1.3403,1.3403,1.3403,1.3403,1.3403,1.3403,1.3403,1.341,1.3424,1.358,1.3722,1.3865,1.4021,1.417,1.4299,1.4299,1.4299,1.4299,1.4299,1.4299,1.4299,1.4299,1.4299,1.4299,1.4319,1.4401,1.4516,1.455,1.4733,1.497,1.3403,1.3403,1.3403,1.3403,0.0,0.0,0.0,0.0,1.3403,1.3403,1.3403,1.3403,1.3403,1.3403,1.3403,1.3403,1.3403,1.3403,1.3403,1.3403,0.0,0.0,0.0,0.0,0.0,0.0,0.0,0.0,0.0,0.0,0.0,0.0,0.0,0.0,1.2969,1.2901,1.2861,1.2739,1.2684,1.2678,1.2549,1.2501,1.2501,1.2501,1.2501,1.2501,1.2501,1.2501,1.2501,1.2501,1.2501,1.2501,1.2501,1.2501,1.2501,1.2501,1.2501,1.2501,1.2501,1.2501,1.2501,1.2501,1.2501,0.0,1.2501,1.2501,1.2501,1.2501,1.2501,1.2501,1.2501,1.2501,1.2501,1.2501,1.2501,1.2542,1.2671,1.282,1.2969,1.3112,1.3261,1.337,1.3397,1.3403,1.3403,1.3403,1.3403,1.3403,1.3403,1.3403,1.3403,1.3403,1.3403,1.3458,1.3587,1.3729,1.3878,1.4027,1.4183,1.4272,1.4299,1.4299,1.4299,1.4299,1.4299,1.4299,1.4299,1.4299,1.4299,1.4312,1.4428,1.4489,1.4543,1.4787,1.4923,1.4984,1.3403,1.3403,1.3403,1.3403,0.0,0.0,0.0,0.0,1.3403,1.3403,1.3403,1.3403,1.3403,1.3403,1.3403,1.3403,1.3403,1.3403,1.3403,1.3403,0.0,0.0,0.0,0.0,0.0,0.0,0.0,0.0,0.0,0.0,0.0,0.0,0.0,0.0,1.3098,1.303,1.2956,1.2874,1.2847,1.2827,1.2596,1.2501,1.2508,1.2583,1.2617,1.2623,1.2705,1.2732,1.2732,1.2732,1.2732,1.2732,1.2732,1.2678,1.2617,1.2617,1.2562,1.2501,1.2501,1.2501,1.2501,1.2501,1.2501,0.0,0.0,1.2501,1.2501,1.2501,1.2501,1.2501,1.2501,1.2501,1.2501,1.2501,1.2562,1.2644,1.2718,1.2861,1.3017,1.3152,1.3308,1.3403,1.3403,1.3403,1.3403,1.3403,1.3403,1.3403,1.3403,1.3403,1.3403,1.3403,1.3403,1.3471,1.3627,1.377,1.3919,1.4075,1.4224,1.4299,1.4299,1.4299,1.4299,1.4299,1.4299,1.4299,1.4299,1.4299,1.434,1.4414,1.4482,1.4557,1.4652,1.4889,1.5018,1.5086,1.3403,1.3403,1.3403,1.3403,0.0,0.0,0.0,0.0,1.3403,1.3403,1.3403,1.3403,1.3403,1.3403,1.3403,1.3403,1.3403,1.3403,1.3403,1.3403,0.0,0.0,0.0,1.3403,0.0,0.0,0.0,0.0,0.0,0.0,0.0,0.0,0.0,0.0,0.0,1.3152,1.3044,1.3017,1.3003,1.2976,1.2698,1.2589,1.2603,1.2725,1.2773,1.2793,1.2915,1.2963,1.2963,1.2963,1.2963,1.2963,1.2963,1.2874,1.2773,1.2773,1.2684,1.2589,1.2589,1.2589,1.2589,1.2589,1.2589,1.2589,0.0,0.0,0.0,1.2589,1.2589,1.2583,1.2549,0.0,0.0,1.2508,0.0,0.0,0.0,1.2908,0.0,1.3159,1.3308,1.3403,1.3403,1.3403,1.3403,1.3403,1.3403,1.3403,1.3403,1.3403,1.3403,1.3403,1.3431,1.3519,1.3668,1.381,1.396,1.4116,1.4238,1.4299,1.4299,1.4299,1.4299,1.4299,1.4299,1.4299,1.4299,1.4333,1.4407,1.4516,1.4543,1.4652,1.4801,1.4957,1.5086,1.5181,1.3403,1.3403,1.3403,1.3403,0.0,0.0,0.0,0.0,0.0,1.3403,1.3403,1.3403,1.3403,1.3403,1.3403,1.3403,1.3403,1.3403,1.3403,1.3403,0.0,0.0,0.0,0.0,1.3403,0.0,0.0,0.0,0.0,0.0,0.0,0.0,0.0,0.0,1.3376,1.3363,1.3342,1.3207,1.3146,1.3132,1.2976,1.2908,1.2908,1.2929,1.2935,1.2935,1.2956,1.2963,1.2963,0.0,1.2963,1.2963,0.0,1.2949,1.2935,1.2935,0.0,0.0,1.2908,1.2908,1.2908,1.2908,1.2908,1.2908,1.2908,0.0,1.2908,1.2908,0.0,1.2868,1.2725,0.0,0.0,0.0,0.0,0.0,1.2915,1.3057,1.3152,1.3173,1.3308,1.3403,1.3403,1.3403,1.3403,1.3403,1.3403,1.3403,1.3403,1.3403,1.3403,1.3403,1.3532,1.3675,1.3817,1.3966,1.4122,1.4272,1.4292,1.4299,1.4299,1.4299,1.4299,1.4299,1.4299,1.4299,1.4312,1.4434,1.4496,1.4523,1.4658,1.4808,1.4964,1.5106,1.5167,1.5181,1.3403,1.3403,1.3403,1.3403,0.0,0.0,0.0,0.0,0.0,1.3403,1.3403,1.3403,1.3403,1.3403,1.3403,1.3403,1.3403,1.3403,1.3403,1.3403,0.0,0.0,0.0,0.0,0.0,0.0,0.0,0.0,1.3403,0.0,0.0,0.0,0.0,0.0,1.3403,1.3403,1.3397,1.3336,1.3302,1.3302,1.3241,1.3214,0.0,1.3119,1.3139,1.3214,1.3214,1.3214,1.3214,0.0,1.3214,0.0,0.0,0.0,0.0,1.3085,0.0,0.0,0.0,0.0,1.2963,1.2963,1.2963,1.2963,1.2963,1.2963,1.2963,1.2963,0.0,0.0,0.0,0.0,0.0,0.0,1.2895,0.0,0.0,0.0,1.3302,1.3302,0.0,0.0,1.3403,1.3403,1.3403,1.3403,1.3403,1.3403,1.3403,1.3403,1.3444,1.3532,1.3593,1.3743,1.3973,1.4041,1.415,1.4299,1.4299,1.4299,1.4299,1.4299,1.4299,1.4299,1.4299,1.4346,1.4428,1.4489,1.4618,1.4787,1.4848,1.4916,1.4991,1.5126,1.5181,1.5181,1.3403,1.3403,1.3403,1.3403,0.0,0.0,0.0,0.0,1.3403,1.3403,1.3403,1.3403,1.3403,1.3403,1.3403,1.3403,1.3403,1.3403,1.3403,1.3403,1.3403,1.3403,1.3403,1.3403,0.0,0.0,0.0,0.0,0.0,0.0,0.0,0.0,0.0,0.0,0.0,1.3403,1.3403,1.3403,1.3403,1.3403,1.3403,1.3403,1.339,1.3275,1.3302,1.3403,1.3403,1.3403,1.3403,1.3403,1.3403,0.0,1.3403,1.3322,1.3234,0.0,0.0,0.0,1.3085,0.0,0.0,0.0,0.0,0.0,0.0,0.0,0.0,0.0,0.0,0.0,0.0,0.0,0.0,0.0,0.0,1.3139,0.0,1.3241,0.0,0.0,0.0,0.0,0.0,1.3403,1.3403,1.3403,1.3403,1.3403,1.3403,1.3403,1.3471,1.3627,1.3668,1.381,1.4068,1.4116,1.419,1.4299,1.4299,1.4299,1.4299,1.4299,1.4299,1.4299,1.434,1.4414,1.4516,1.4604,1.4767,1.4977,1.5011,1.5031,1.5038,1.5147,1.5181,1.5181,1.3403,1.3403,0.0,0.0,0.0,0.0,0.0,0.0,1.3403,1.3403,1.3403,1.3403,1.3403,1.3403,1.3403,1.3403,1.3403,1.3403,1.3403,1.3403,1.3403,1.3403,1.3403,1.3403,1.3403,0.0,0.0,0.0,0.0,0.0,0.0,0.0,0.0,0.0,0.0,1.3403,1.3403,1.3403,1.3403,1.3403,1.3403,1.3403,1.3403,0.0,1.3397,1.3403,1.3403,0.0,0.0,1.3403,1.3403,0.0,0.0,0.0,0.0,0.0,0.0,0.0,0.0,0.0,0.0,1.339,0.0,0.0,0.0,0.0,1.339,0.0,0.0,0.0,0.0,0.0,0.0,0.0,0.0,0.0,0.0,0.0,0.0,0.0,0.0,0.0,0.0,1.3403,1.3403,1.3403,1.3403,1.3403,1.3403,1.3403,1.3471,1.3627,1.3763,1.3912,1.4068,1.4217,1.4292,1.4299,1.4299,1.4299,1.4299,1.4299,1.4299,1.4306,1.4441,1.4509,1.4536,1.4835,1.4964,1.4984,1.512,1.5174,1.5174,1.5181,1.5181,1.5181,1.3403,1.3403,1.3403,1.3403,1.3403,1.3403,0.0,1.3403,1.3403,1.3403,1.3403,1.3403,1.3403,1.3403,1.3403,1.3403,1.3403,1.3403,1.3403,1.3403,1.3403,1.3403,1.3403,1.3403,1.3403,0.0,0.0,0.0,0.0,0.0,0.0,0.0,0.0,0.0,0.0,1.3403,0.0,0.0,0.0,0.0,0.0,1.3403,1.3403,0.0,1.3403,1.3403,1.3403,1.3403,0.0,1.3403,1.3403,1.3403,1.3403,1.3403,1.3403,1.3403,1.3403,1.3403,0.0,0.0,1.3403,1.3403,0.0,0.0,0.0,0.0,0.0,0.0,0.0,0.0,0.0,0.0,0.0,0.0,0.0,0.0,0.0,0.0,0.0,0.0,0.0,0.0,0.0,0.0,1.3403,1.3403,1.3403,1.3403,1.3403,1.3498,1.362,1.3763,1.3912,1.4068,1.4224,1.4272,1.4299,1.4299,1.4299,1.4299,1.4299,1.4299,1.4353,1.4441,1.4489,1.4624,1.4821,1.493,1.5025,1.5113,1.516,1.5181,1.5181,1.5181,1.5181,1.5181,1.341,1.3403,1.3403,1.3403,1.3403,1.3403,1.3403,1.3403,1.3403,1.3403,1.3403,1.3403,1.3403,1.3403,1.3403,1.3403,1.3403,1.3403,1.3403,1.3403,1.3403,1.3403,1.3403,1.3403,1.3403,1.3403,0.0,0.0,0.0,1.3403,0.0,0.0,0.0,0.0,0.0,1.3451,1.341,1.3512,1.3526,0.0,0.0,1.3559,0.0,0.0,1.3492,1.3403,0.0,1.3403,1.3403,1.3403,1.3403,1.3403,1.3403,1.3403,1.3403,1.3403,1.3403,1.3403,1.3403,1.3403,0.0,1.3403,1.3403,0.0,1.3403,0.0,1.3403,0.0,0.0,0.0,0.0,0.0,0.0,0.0,0.0,0.0,0.0,1.3403,0.0,0.0,1.3403,1.3403,0.0,1.3403,1.3403,1.3403,1.3403,1.3403,0.0,1.3546,1.3695,1.3838,1.3994,1.4143,1.4299,1.4299,1.4299,1.4299,1.4299,1.4299,1.4299,1.4299,1.438,1.4516,1.457,1.474,1.4977,1.5025,1.5099,1.5181,1.5181,1.5181,1.5181,1.5181,1.5181,1.5181,1.3444,1.3403,1.3403,1.3403,1.3403,1.3403,1.3403,1.3403,1.3403,1.3403,1.3403,1.3403,1.3403,1.3403,1.3403,1.3403,1.3403,1.3403,1.3403,1.3403,1.3403,1.3403,1.3403,1.3403,1.3403,1.3403,1.3403,0.0,0.0,0.0,0.0,0.0,0.0,0.0,1.3573,0.0,1.3444,1.3722,1.3763,1.3654,1.3783,1.3838,1.3838,1.3838,1.3668,1.3424,1.3424,1.3424,1.3424,1.3417,1.341,1.341,1.3403,1.3403,1.3403,1.3403,1.3403,1.3403,1.3403,1.3403,1.3403,1.3403,1.3403,0.0,0.0,0.0,1.3403,0.0,0.0,0.0,0.0,0.0,0.0,0.0,0.0,0.0,0.0,0.0,1.3403,0.0,1.3403,1.3403,1.3403,1.3403,1.3403,1.3403,1.3403,1.3403,0.0,1.3559,1.3702,1.3844,1.4,1.415,1.4299,1.4299,1.4299,1.4299,1.4299,1.4299,1.4299,1.4306,1.4387,1.4529,1.4685,1.4841,1.4991,1.5126,1.5181,1.5181,1.5181,1.5181,1.5181,1.5181,1.5181,1.5181,1.358,1.3478,1.3403,1.3403,1.3403,1.3403,1.3403,1.3403,1.3403,1.3403,1.3403,1.3403,1.3403,1.3403,1.3403,1.3403,1.3403,1.3403,1.3403,1.3403,1.3403,1.3403,1.3403,1.3403,1.3403,1.3403,1.3403,1.3403,0.0,0.0,1.3573,0.0,0.0,0.0,0.0,0.0,1.3736,1.381,1.3817,1.379,1.3824,1.3838,1.3838,0.0,1.379,1.3729,1.3729,1.3729,1.3709,1.3607,1.3573,1.3553,1.3437,1.3403,1.3403,1.3403,1.3403,1.3403,1.3403,1.3403,1.3403,1.3403,1.3403,1.3403,0.0,0.0,0.0,0.0,0.0,0.0,0.0,0.0,0.0,0.0,0.0,0.0,0.0,0.0,0.0,1.3403,1.3403,1.3403,1.3403,1.3403,1.3403,1.3403,1.3403,0.0,0.0,0.0,1.3858,1.4007,1.4163,1.4258,1.4299,1.4299,1.4299,1.4299,1.4299,1.4299,1.4306,1.4407,1.4536,1.4692,1.4841,1.4991,1.5133,1.5167,1.5181,1.5181,1.5181,1.5181,1.5181,1.5181,1.5181,1.5181,1.3641,1.3505,1.3424,1.3492,1.3498,1.3478,1.341,1.3458,1.3498,1.3498,1.3553,1.3593,1.3593,1.3593,1.3593,1.3593,1.3593,1.3593,1.3593,1.3593,1.3593,1.3593,1.3593,1.3593,1.3593,1.3593,1.3593,1.3593,0.0,0.0,1.3722,0.0,0.0,0.0,0.0,1.3905,1.3844,1.3912,1.398,1.4041,1.4041,1.4041,0.0,1.4041,1.4041,1.4041,1.4041,1.3953,1.3831,1.3749,1.3722,1.3709,1.362,1.3593,1.358,1.3519,1.3498,1.3485,1.3417,1.3403,1.3403,1.3403,1.3403,1.3403,1.3403,1.3403,1.3403,0.0,1.3403,1.3403,0.0,0.0,0.0,0.0,0.0,0.0,0.0,0.0,0.0,0.0,1.3403,1.3403,1.3403,1.3403,1.3403,1.3403,1.3403,0.0,0.0,0.0,1.3912,1.4068,1.4224,1.4299,1.4299,1.4299,1.4299,1.4299,1.4299,1.4333,1.4394,1.4475,1.4631,1.4848,1.4936,1.5052,1.5181,1.5181,1.5181,1.5181,1.5181,1.5181,1.5181,1.5181,1.5181,1.5181,1.3688,1.3553,1.3498,1.3634,1.3654,1.3614,1.3478,1.3573,1.3654,1.3654,1.3763,1.3838,1.3838,1.3838,1.3838,1.3838,1.3838,1.3838,1.3838,1.3838,1.3838,1.3838,1.3838,1.3838,1.3838,1.3838,1.3838,0.0,0.0,0.0,0.0,0.0,0.0,0.0,0.0,0.0,0.0,1.4048,1.4177,1.4299,1.4299,1.4299,1.4299,1.4299,1.4299,1.4299,1.4299,1.4129,1.3899,1.3878,1.3871,1.3865,1.3844,1.3838,1.3817,1.3695,1.3654,1.3627,1.3492,1.3444,1.3431,1.3431,1.3417,1.3403,1.3403,1.3403,1.3403,1.3403,1.3403,1.3403,0.0,0.0,0.0,0.0,0.0,0.0,0.0,0.0,0.0,0.0,0.0,0.0,1.3403,1.3403,1.3403,1.3403,1.3417,0.0,0.0,0.0,1.3939,1.4095,1.4231,1.4299,1.4299,1.4299,1.4299,1.4299,1.4319,1.4394,1.4516,1.4557,1.4719,1.497,1.4991,1.5065,1.5181,1.5181,1.5181,1.5181,1.5181,1.5181,1.5181,1.5181,1.5181,1.5181,1.3831,1.3783,1.377,1.3797,1.3718,1.3797,1.377,1.3783,1.3718,1.3718,1.3824,1.3838,1.3838,1.3838,1.3838,1.3838,1.3838,0.0,1.3838,0.0,0.0,1.3838,1.3838,1.3838,1.3838,1.3838,1.3838,0.0,0.0,0.0,0.0,0.0,0.0,0.0,0.0,0.0,1.4217,1.4251,0.0,1.4299,1.4299,1.4299,1.4299,1.4299,1.4299,1.4299,1.4299,1.4265,1.4197,1.4075,1.4034,1.4007,1.3878,1.3838,1.3838,1.381,1.3718,1.3797,1.377,1.3682,1.3587,1.3587,1.3492,1.3403,1.3403,1.3403,1.3403,1.3403,1.3403,1.3403,1.3403,0.0,0.0,0.0,0.0,0.0,0.0,0.0,0.0,0.0,0.0,1.3403,1.3403,1.3403,1.3403,1.3403,0.0,0.0,0.0,0.0,1.4102,0.0,1.4285,0.0,0.0,0.0,1.4299,1.4299,1.4421,1.4489,1.4523,1.4774,1.4923,1.4977,1.5092,1.516,1.5181,1.5181,1.5181,1.5181,1.5181,1.5181,1.5181,1.5181,1.5181,1.5181,1.3871,1.3838,1.3865,1.3946,1.396,1.3987,1.4068,1.4082,1.4048,1.3973,1.4027,1.4082,1.4082,1.4082,1.4082,1.4082,1.4082,1.4082,1.4082,1.4082,1.4082,1.4082,1.4082,1.4082,1.4082,1.4082,1.4082,1.4082,0.0,0.0,0.0,0.0,0.0,0.0,0.0,1.4299,0.0,0.0,0.0,1.4299,1.4299,1.4299,1.4299,1.4299,1.4299,1.4299,1.4299,1.4299,1.4292,1.4217,1.419,1.4177,1.4102,1.4082,1.4061,1.3987,1.396,1.3946,1.3865,1.379,1.3736,1.3736,1.3682,1.3627,1.3627,1.3573,1.3519,1.3519,1.3458,1.3403,1.3403,1.3403,0.0,0.0,0.0,0.0,0.0,0.0,1.3431,0.0,0.0,0.0,0.0,0.0,0.0,0.0,0.0,0.0,0.0,0.0,1.4143,0.0,0.0,0.0,1.4299,0.0,1.434,1.4414,1.4475,1.4597,1.4753,1.4903,1.5011,1.5086,1.5153,1.5181,1.5181,1.5181,1.5181,1.5181,1.5181,1.5181,1.5181,1.5181,1.5181,1.5181,1.396,1.3939,1.398,1.4102,1.4122,1.4163,1.4285,1.4299,1.4258,1.4136,1.4224,1.4299,1.4299,1.4299,1.4299,1.4299,1.4299,1.4299,1.4299,1.4299,1.4299,1.4299,1.4299,1.4299,1.4299,1.4299,1.4299,0.0,0.0,0.0,0.0,0.0,0.0,0.0,0.0,0.0,0.0,0.0,1.4299,1.4299,1.4299,1.4299,1.4299,1.4299,1.4299,1.4299,1.4299,1.4299,1.4299,1.4299,1.4299,1.4299,1.4299,1.4299,1.4278,1.4156,1.4122,1.4095,1.3973,1.3912,1.3892,1.3892,1.3865,1.3838,1.3838,1.3756,1.3675,1.3675,1.358,1.3492,1.3492,1.3492,0.0,0.0,0.0,0.0,0.0,0.0,0.0,0.0,0.0,0.0,1.3831,0.0,0.0,0.0,0.0,0.0,1.4061,0.0,0.0,0.0,0.0,1.4299,1.4299,0.0,1.4373,1.4509,1.4543,1.4706,1.497,1.5004,1.5079,1.5181,1.5181,1.5181,1.5181,1.5181,1.5181,1.5181,1.5181,1.5181,1.5181,1.5181,1.5181,1.5181,1.4258,1.4258,1.4258,1.4278,1.4278,1.4285,1.4299,1.4299,1.4292,1.4278,1.4292,1.4299,1.4299,1.4299,1.4299,1.4299,1.4299,1.4299,1.4299,1.4299,1.4299,1.4299,1.4299,1.4299,1.4299,1.4299,1.4299,0.0,0.0,1.4231,0.0,0.0,0.0,0.0,0.0,0.0,0.0,1.4299,1.4299,1.4299,1.4299,1.4299,1.4299,1.4299,1.4299,1.4299,1.4299,1.4299,1.4299,1.4299,1.4299,1.4299,1.4299,1.4299,1.4299,1.4285,1.4278,1.4278,1.4258,1.4156,1.4048,1.4048,1.3946,1.3838,1.3838,1.3831,1.3824,1.3824,1.381,1.3797,1.3797,1.3797,1.3797,0.0,0.0,0.0,0.0,0.0,1.3804,1.3817,0.0,0.0,1.3838,1.3966,0.0,0.0,1.4041,0.0,0.0,0.0,0.0,1.4299,1.4299,1.4299,1.4299,1.4299,1.4373,1.4516,1.4652,1.4808,1.4977,1.5106,1.5167,1.5181,1.5181,1.5181,1.5181,1.5181,1.5181,1.5181,1.5181,1.5181,1.5181,1.5181,1.5181,1.5181,1.4299,1.4367,1.4428,1.4428,1.4502,0.0,0.0,1.4563,1.4563,1.4563,1.4482,1.4462,1.4557,1.4563,1.4563,1.4563,1.4563,1.4563,1.4563,1.4563,1.4563,1.4563,1.4563,1.4523,1.4428,1.4428,1.4387,0.0,0.0,0.0,0.0,0.0,0.0,0.0,0.0,1.4563,1.4563,1.4563,1.4563,1.4563,1.4563,1.4509,1.4428,1.4428,1.4373,1.4299,1.4299,1.4299,1.4299,1.4299,1.4299,1.4299,1.4299,1.4299,1.4299,1.4299,1.4299,1.4299,1.4299,1.4258,1.4211,1.4211,1.4163,1.4116,1.4116,1.4048,1.398,1.398,1.3905,1.3838,1.3838,1.3838,1.3838,1.3838,0.0,0.0,0.0,0.0,0.0,1.3966,0.0,1.4014,0.0,1.417,0.0,0.0,0.0,0.0,0.0,0.0,0.0,1.4299,0.0,1.4299,1.4299,1.4387,1.4502,1.4652,1.4808,1.4957,1.5099,1.5153,1.5181,1.5181,1.5181,1.5181,1.5181,1.5181,1.5181,1.5181,1.5181,1.5181,1.5181,1.5181,1.5181,1.5181,1.4428,1.4509,1.4577,1.4577,1.4665,1.474,1.474,1.474,1.4753,1.4801,1.4713,1.4672,1.4733,1.474,1.474,1.474,1.474,1.474,1.474,1.474,1.474,1.474,1.474,0.0,1.4584,1.4577,1.4529,1.4428,1.4428,0.0,0.0,0.0,0.0,0.0,1.474,1.474,1.474,1.474,1.474,1.474,1.474,1.4672,1.4577,1.4577,1.4516,1.4428,1.4428,1.4401,1.436,1.436,1.4333,1.4299,1.4299,1.4299,1.4299,1.4299,1.4299,1.4299,1.4299,1.4299,1.4299,1.4299,1.4299,1.4299,1.4299,1.4217,1.4136,1.4136,1.4055,1.3973,1.3973,1.3973,1.3973,1.3973,0.0,0.0,0.0,1.3973,0.0,1.4129,1.4136,1.4183,1.4292,1.4299,0.0,0.0,0.0,0.0,0.0,0.0,0.0,0.0,0.0,0.0,1.436,1.4462,1.4611,1.4808,1.4916,1.5045,1.5181,1.5181,1.5181,1.5181,1.5181,1.5181,1.5181,1.5181,1.5181,1.5181,1.5181,1.5181,1.5181,1.5181,1.5181,1.5181,1.4733,1.4733,1.4733,1.4733,1.474,1.474,1.474,1.474,1.4794,1.495,1.497,1.4909,1.4753,1.474,1.474,1.474,1.474,1.474,1.474,1.474,1.474,0.0,0.0,1.474,1.4733,1.4733,1.4733,1.4733,0.0,0.0,1.4509,0.0,1.459,1.474,1.474,1.474,1.474,1.474,1.474,1.474,1.474,1.474,1.4733,1.4733,1.4733,1.4733,1.4733,1.4638,1.4509,1.4509,1.4414,1.4299,1.4299,1.4299,1.4299,1.4299,1.4299,1.4299,1.4299,1.4299,1.4299,1.4299,1.4299,1.4299,1.4299,1.4299,1.4299,1.4299,1.4299,1.4292,1.4292,1.4292,1.4292,1.4292,0.0,0.0,0.0,1.4292,0.0,1.4299,1.4299,1.4299,1.4299,1.4299,0.0,0.0,0.0,0.0,0.0,0.0,0.0,1.4299,1.4299,0.0,1.4509,1.4509,1.4665,1.497,1.497,1.5045,1.5181,1.5181,1.5181,1.5181,1.5181,1.5181,1.5181,1.5181,1.5181,1.5181,1.5181,1.5181,1.5181,1.5181,1.5181,1.5181,1.474,1.4828,1.4896,1.4896,1.4977,1.5038,1.5038,1.5038,1.5059,1.5106,1.5113,1.5092,1.5045,1.5038,1.5038,0.0,1.5038,1.5038,0.0,1.5038,1.5038,1.5038,1.5038,1.4997,1.4903,1.4896,1.4848,1.474,0.0,0.0,0.0,1.4923,1.4997,1.5038,1.5038,1.5038,1.5038,1.5038,1.5038,1.5038,1.5038,1.4984,1.4896,1.4896,1.4835,1.474,1.474,1.4706,1.4665,1.4665,1.4638,1.4584,1.4475,1.438,1.4299,1.4299,1.4299,1.4299,1.4299,1.4299,1.4299,1.4299,1.4299,1.4299,1.4299,1.4299,1.4299,1.4299,1.4299,1.4299,1.4299,1.4299,1.4299,1.4299,1.4299,0.0,1.4299,0.0,1.4299,1.4299,1.4299,1.4299,1.4299,1.4299,0.0,0.0,0.0,0.0,0.0,0.0,0.0,0.0,1.4441,0.0,1.4665,1.4774,1.4875,1.497,1.5072,1.514,1.5181,1.5181,1.5181,1.5181,1.5181,1.5181,1.5181,1.5181,1.5181,1.5181,1.5181,1.5181,1.5181,1.5181,1.5181,1.5181,1.4909,1.4984,1.5052,1.5052,1.5126,1.5181,1.5181,1.5181,1.5181,1.5181,1.5181,1.5181,1.5181,1.5181,0.0,1.5181,1.5181,1.5181,1.5181,1.5181,1.5181,1.5181,1.5181,1.514,1.5052,1.5052,0.0,1.4909,1.4909,1.4957,1.5052,1.514,1.5181,1.5181,1.5181,1.5181,1.5181,1.5181,1.5181,1.5181,1.5181,1.5126,1.5052,1.5052,1.4991,1.4909,1.4909,1.4869,1.4828,1.4828,1.4787,1.4719,1.4624,1.4536,1.4441,1.4333,1.4299,1.4299,1.4299,1.4299,1.4299,1.4299,1.4299,1.4299,1.4299,1.4299,1.4299,1.4299,1.4299,1.4299,1.4299,1.4299,1.4299,1.4299,1.4299,1.4299,1.4299,0.0,1.4299,0.0,0.0,0.0,0.0,1.4299,1.4299,0.0,0.0,0.0,0.0,0.0,1.4421,1.4509,1.457,1.4672,1.4828,1.4923,1.4997,1.5052,1.514,1.5181,1.5181,1.5181,1.5181,1.5181,1.5181,1.5181,1.5181,1.5181,1.5181,1.5181,1.5181,1.5181,1.5181,1.5181,1.5181,1.5181,1.5181,1.5181,1.5181,1.5181,1.5181,1.5181,1.5181,1.5181,1.5181,1.5181,1.5181,1.5181,1.5181,1.5181,1.5181,1.5181,0.0,0.0,1.5181,1.5181,1.5181,1.5181,1.5181,1.5181,1.5181,1.5181,1.5181,1.5181,1.5181,1.5181,1.5181,1.5181,1.5181,1.5181,1.5181,1.5181,1.5181,1.5181,1.5181,1.5181,1.5181,1.5181,1.5181,1.5181,1.5181,1.5181,1.5181,1.5099,1.4984,1.4984,1.4889,1.4767,1.476,1.4753,1.4699,1.4401,1.4312,1.4312,1.4306,1.4299,1.4299,1.4299,1.4299,1.4299,1.4299,1.4299,1.4299,1.4299,1.4299,1.4299,1.4299,1.4299,1.4299,1.4299,1.4299,1.4299,1.4299,1.4299,1.4299,0.0,0.0,0.0,1.4299,1.4299,1.4306,0.0,0.0,0.0,0.0,0.0,1.4543,1.4543,1.4679,1.4828,1.4984,1.4984,1.5052,1.5181,1.5181,1.5181,1.5181,1.5181,1.5181,1.5181,1.5181,1.5181,1.5181,1.5181,1.5181,1.5181,1.5181,1.5181,1.5181,1.5181,1.5181,1.5181,0.0,0.0,1.5181,1.5181,1.5181,1.5181,1.5181,1.5181,1.5181,1.5181,1.5181,1.5181,1.5181,1.5181,1.5181,1.5181,1.5181,1.5181,1.5181,1.5181,1.5181,1.5181,1.5181,1.5181,1.5181,1.5181,1.5181,1.5181,1.5181,1.5181,1.5181,1.5181,1.5181,1.5181,1.5181,1.5181,1.5181,1.5181,1.5181,1.5181,1.5181,1.5181,1.5181,1.5181,1.5181,1.5181,1.5181,1.516,1.5133,1.5133,1.5106,1.5059,1.495,1.4916,1.4855,1.455,1.4462,1.4434,1.4333,1.4299,1.4299,1.4299,1.4299,1.4299,1.4299,1.4299,1.4299,1.4299,1.4299,1.4299,1.4299,1.4299,1.4299,1.4299,1.4299,1.4299,1.4299,1.4299,1.4299,0.0,1.4299,1.4299,1.4299,1.4299,1.4346,0.0,0.0,1.4529,1.4679,1.4801,1.4862,1.4862,1.4896,1.4984,1.5133,1.5133,1.5147,1.5181,1.5181,1.5181,1.5181,1.5181,1.5181,1.5181,1.5181,1.5181,1.5181,1.5181,1.5181,1.5181,1.5181,1.5181,1.5181,1.5181,1.5181,1.5181,1.5181,1.5181,1.5181,1.5181,1.5181,1.5181,1.5181,1.5181,1.5181,1.5181,1.5181,1.5181,1.5181,1.5181,1.5181,1.5181,1.5181,1.5181,1.5181,1.5181,1.5181,1.5181,1.5181,1.5181,1.5181,1.5181,1.5181,1.5181,1.5181,1.5181,1.5181,1.5181,1.5181,1.5181,1.5181,1.5181,1.5181,1.5181,1.5181,1.5181,1.5181,1.5181,1.5181,1.5181,1.5181,1.5181,1.5181,1.5181,1.5181,1.5181,1.5181,1.5167,1.5092,1.5065,1.5025,1.4787,1.4672,1.4597,1.4523,1.4448,1.438,1.4319,1.4299,1.4299,1.4299,1.4299,1.4299,1.4299,1.4299,1.4299,1.4299,1.4299,1.4299,1.4299,1.4299,1.4299,1.4299,1.4299,1.4299,1.4299,1.4299,1.4326,1.4387,1.4394,1.4455,1.4604,1.4618,0.0,1.4835,1.4923,1.497,1.497,1.5031,1.5106,1.5181,1.5181,1.5181,1.5181,1.5181,1.5181,1.5181,1.5181,1.5181,1.5181,1.5181,1.5181,1.5181,1.5181,1.5181,1.5181,1.5181,1.5181,1.5181,1.5181,1.5181,1.5194,1.5181,1.5181,1.5181,1.5181,1.5181,1.5181,1.5181,1.5181,1.5181,1.5181,1.5181,1.5181,1.5181,1.5181,1.5181,1.5181,1.5181,1.5181,1.5181,1.5181,1.5181,1.5181,1.5181,1.5181,1.5181,1.5181,1.5181,1.5181,1.5181,1.5181,1.5181,1.5181,1.5181,1.5181,1.5181,1.5181,1.5181,1.5181,1.5181,1.5181,1.5181,1.5181,1.5181,1.5181,1.5181,1.5181,1.5181,1.5181,1.5181,1.5181,1.5181,1.5181,1.5181,1.5181,1.516,1.5038,1.4909,1.4794,1.4753,1.4645,1.4516,1.4394,1.4346,1.4333,1.4333,1.4319,1.4299,1.4299,1.4299,1.4299,1.4299,1.4299,1.4299,1.4299,1.4299,1.4299,1.4299,0.0,1.4333,1.4333,1.4353,1.4414,1.4536,1.455,1.4611,1.476,1.4774,1.4841,1.4997,1.5004,1.5004,1.5004,1.512,1.5181,1.5181,1.5181,1.5181,1.5181,1.5181,1.5181,1.5181,1.5181,1.5181,1.5181,1.5181,1.5181,1.5181,1.5181,1.5181,1.5181,1.5181,1.5181,1.5187,1.5208,1.5215,1.5242,1.5181,1.5181,1.5181,1.5181,1.5181,1.5181,1.5181,1.5181,1.5181,1.5181,1.5181,1.5181,1.5181,1.5181,1.5181,1.5181,1.5181,1.5181,1.5181,1.5181,1.5181,1.5181,1.5181,1.5181,1.5181,1.5181,1.5181,1.5181,1.5181,1.5181,1.5181,1.5181,1.5181,1.5181,1.5181,1.5181,1.5181,1.5181,1.5181,1.5181,1.5181,1.5181,1.5181,1.5181,1.5181,1.5181,1.5181,1.5181,1.5181,1.5181,1.5181,1.5181,1.5181,1.5181,1.5181,1.5153,1.5133,1.5059,1.4808,1.4719,1.4699,1.4679,1.4577,1.4475,1.4475,1.4387,1.4299,1.4299,1.4299,1.4299,1.4299,1.4299,1.4299,1.4299,1.4299,1.4299,1.4299,0.0,1.4475,1.4475,1.459,1.4679,1.4706,1.4706,1.4767,1.4923,1.4936,1.4997,1.514,1.5147,1.5147,1.5147,1.5167,1.5181,1.5181,1.5181,1.5181,1.5181,1.5181,1.5181,1.5181,1.5181,1.5181,1.5181,1.5181,1.5181,1.5181,1.5181,1.5181,1.5181,1.5181,1.5181,1.5201,1.533,1.5377,1.5398,1.5181,1.5181,1.5181,1.5181,1.5181,1.5181,1.5181,1.5181,1.5181,1.5181,1.5181,1.5181,1.5181,1.5181,1.5181,1.5181,1.5181,1.5181,1.5181,1.5181,1.5181,1.5181,1.5181,1.5181,1.5181,1.5181,1.5181,1.5181,1.5181,1.5181,1.5181,1.5181,1.5181,1.5181,1.5181,1.5181,1.5181,1.5181,1.5181,1.5181,1.5181,1.5181,1.5181,1.5181,1.5181,1.5181,1.5181,1.5181,1.5181,1.5181,1.5181,1.5181,1.5181,1.5181,1.5181,1.5181,1.5181,1.5133,1.4923,1.4862,1.4841,1.476,1.4685,1.4631,1.4631,1.4584,1.4536,1.4536,1.4536,1.4536,1.4536,1.4536,1.4536,1.4536,1.4536,0.0,1.4536,1.459,1.4631,1.4631,1.4699,1.4774,1.4855,1.4862,1.4923,1.5072,1.5086,1.5113,1.5181,1.5181,1.5181,1.5181,1.5181,1.5181,1.5181,1.5262,1.5262,1.5181,1.5269,1.5262,1.5181,1.5181,1.5181,1.5181,1.5181,1.5181,1.5181,1.5181,1.5181,1.5181,1.5181,1.5235,1.5316,1.5384,1.5466,1.5554,1.5181,1.5181,1.5181,1.5181,1.5181,1.5181,1.5181,1.5181,1.5181,1.5181,1.5181,1.5181,1.5181,1.5181,1.5181,1.5181,1.5181,1.5181,1.5181,1.5181,1.5181,1.5181,1.5181,1.5181,1.5181,1.5181,1.5181,1.5181,1.5181,1.5181,1.5181,1.5181,1.5181,1.5181,1.5181,1.5181,1.5181,1.5181,1.5181,1.5181,1.5181,1.5181,1.5181,1.5181,1.5181,1.5181,1.5181,1.5181,1.5181,1.5181,1.5181,1.5181,1.5181,1.5181,1.5181,1.5181,1.5181,1.516,1.5052,1.5018,1.4991,1.4875,1.4814,1.4794,1.4794,1.4767,1.474,1.474,1.474,1.474,1.474,1.474,1.474,1.474,0.0,1.474,1.474,1.4767,1.4794,1.4794,1.4821,1.4889,1.5011,1.5018,1.5065,1.5174,1.5181,1.5181,1.5181,1.5181,1.5201,1.5235,1.5235,1.5215,1.5181,1.5337,1.5337,1.5181,1.5303,1.5296,1.5181,1.5181,1.5181,1.5181,1.5181,1.5181,1.5181,1.5181,1.5201,1.5235,1.5235,1.533,1.5466,1.5499,1.5588,1.571,1.5181,1.5181,1.5181,1.5181,1.5181,1.5181,1.5181,1.5181,1.5181,1.5181,1.5181,1.5181,1.5181,1.5181,1.5181,1.5181,1.5181,1.5181,1.5181,1.5181,1.5181,1.5181,1.5181,1.5181,1.5181,1.5181,1.5181,1.5181,1.5181,1.5181,1.5181,1.5181,1.5181,1.5181,1.5181,1.5181,1.5181,1.5181,1.5181,1.5181,1.5181,1.5181,1.5181,1.5181,1.5181,1.5181,1.5181,1.5181,1.5181,1.5181,1.5181,1.5181,1.5181,1.5181,1.5181,1.5181,1.5181,1.5181,1.5167,1.5167,1.5167,1.5153,1.5052,1.495,1.495,1.4841,1.474,1.474,1.474,1.474,1.474,1.474,1.474,1.474,0.0,0.0,1.474,1.4862,1.495,1.495,1.5072,1.5153,1.5167,1.5167,1.5174,1.5181,1.5181,1.5181,1.5181,1.5181,1.5248,1.5391,1.5391,1.5323,1.5181,1.5337,1.5337,1.5181,1.5194,1.5194,1.5181,1.5181,1.5181,1.5181,1.5181,1.5181,1.5181,1.5181,1.5269,1.5391,1.5391,1.5486,1.5635,1.5771,1.5825,1.5859,1.5181,1.5181,1.5181,1.5181,1.5181,1.5181,1.5181,1.5181,1.5181,1.5181,1.5181,1.5181,1.5181,1.5181,1.5181,1.5181,1.5181,1.5181,1.5181,1.5181,1.5181,1.5181,1.5181,1.5181,1.5181,1.5181,1.5181,1.5181,1.5181,1.5181,1.5181,1.5181,1.5181,1.5181,1.5181,1.5181,1.5181,1.5181,1.5181,1.5181,1.5181,1.5181,1.5181,1.5181,1.5181,1.5181,1.5181,1.5181,1.5181,1.5181,1.5181,1.5181,1.5181,1.5181,1.5181,1.5181,1.5181,1.5181,1.5181,1.5181,1.5181,1.5181,1.514,1.5099,1.5099,1.5059,1.5011,1.5011,1.5011,1.5011,1.5011,1.5011,1.5011,1.5011,0.0,1.5011,1.5011,1.5065,1.5099,1.5099,1.5147,1.5181,1.5181,1.5181,1.5181,1.5181,1.5181,1.5221,1.5316,1.5323,1.535,1.5411,1.5411,1.5384,1.5323,1.5377,1.5337,1.5181,1.5276,1.5276,1.5181,1.5181,1.5181,1.5181,1.5181,1.5181,1.5187,1.5282,1.5357,1.5418,1.5513,1.5642,1.5778,1.5832,1.5913,1.6001,1.5181,1.5181,1.5181,1.5181,1.5181,1.5181,1.5181,1.5181,1.5181,1.5181,1.5181,1.5181,1.5181,1.5181,1.5181,1.5181,1.5181,1.5181,1.5181,1.5181,1.5181,1.5181,1.5181,1.5181,1.5181,1.5181,1.5181,1.5181,1.5181,1.5181,1.5181,1.5181,1.5181,1.5181,1.5181,1.5181,1.5181,1.5181,1.5181,1.5181,1.5181,1.5181,1.5181,1.5181,1.5181,1.5181,1.5181,1.5181,1.5181,1.5181,1.5181,1.5181,1.5181,1.5181,1.5181,1.5181,1.5181,1.5181,1.5181,1.5181,1.5181,1.5181,1.5181,1.5181,1.5181,1.5181,1.5181,1.5181,1.5181,1.5181,1.5181,1.5181,1.5181,1.5181,1.5181,1.5181,1.5181,1.5181,1.5181,1.5181,1.5181,1.5181,1.5181,1.5181,1.5201,1.5248,1.5208,1.5228,1.5337,1.5384,1.5411,1.5411,1.5411,1.5411,1.5411,1.5411,1.5337,1.5181,1.5289,1.5282,1.5181,1.5181,1.5181,1.5187,1.5235,1.5255,1.5269,1.5418,1.5506,1.556,1.5662,1.5798,1.5927,1.5927,1.5995,1.6083,1.5181,1.5181,1.5181,1.5181,1.5181,1.5181,1.5181,1.5181,1.5181,1.5181,1.5181,1.5181,1.5181,1.5181,1.5181,1.5181,1.5181,1.5181,1.5181,1.5181,1.5181,1.5181,1.5181,1.5181,1.5181,1.5181,1.5181,1.5181,1.5181,1.5181,1.5181,1.5181,1.5181,1.5181,1.5181,1.5181,1.5181,1.5181,1.5181,1.5181,1.5181,1.5181,1.5181,1.5181,1.5181,1.5181,1.5181,1.5181,1.5181,1.5181,1.5181,1.5181,1.5181,1.5181,1.5181,1.5181,1.5181,1.5181,1.5181,1.5181,1.5181,1.5181,1.5181,1.5181,1.5181,1.5181,1.5181,1.5181,1.5181,1.5181,1.5181,1.5181,1.5181,1.5181,1.5181,1.5181,1.5181,1.5181,1.5181,1.5181,1.5181,1.5181,1.5181,1.5181,1.5248,1.5398,1.5269,1.5181,1.5181,1.533,1.5411,1.5411,1.5411,1.5411,1.5411,1.5411,1.5337,1.5181,1.5181,1.5181,1.5181,1.5181,1.5181,1.5194,1.5343,1.5411,1.5425,1.5581,1.5723,1.5852,1.5852,1.5947,1.6083,1.6083,1.6083,1.6083,1.5181,1.5181,1.5181,1.5181,1.5181,1.5181,1.5181,1.5181,1.5181,1.5181,1.5181,1.5181,1.5181,1.5181,1.5181,1.5181,1.5181,1.5181,1.5181,1.5181,1.5181,1.5181,1.5181,1.5181,1.5181,1.5181,1.5181,1.5181,1.5181,1.5181,1.5181,1.5181,1.5181,1.5181,1.5181,1.5181,1.5181,1.5181,1.5181,1.5181,1.5181,1.5181,1.5181,1.5181,1.5181,1.5181,1.5181,1.5181,1.5181,1.5181,1.5181,1.5181,1.5181,1.5181,1.5181,1.5181,1.5181,1.5181,1.5181,1.5181,1.5181,1.5181,1.5181,1.5181,1.5181,1.5181,1.5181,1.5181,1.5181,1.5181,1.5181,1.5181,1.5181,1.5181,1.5181,1.5181,1.5181,1.5181,1.5181,1.5181,1.5181,1.5181,1.5181,1.5181,1.5201,1.5248,1.5309,1.5343,1.5343,1.5384,1.5411,1.5411,1.5309,1.5248,1.5248,1.5248,1.5228,1.5181,1.5181,1.5181,1.5181,1.5181,1.5242,1.5343,1.5391,1.5472,1.5581,1.573,1.5811,1.5866,1.5967,1.6042,1.6083,1.6083,1.6083,1.6083,1.5364,1.5364,1.5364,1.5364,1.5364,1.5364,1.5364,1.5364,1.5364,1.5364,1.5364,1.5364,1.5364,1.5364,1.5337,1.5276,1.5215,1.5181,1.5181,1.5181,1.5181,1.5181,1.5181,1.5181,1.5181,1.5181,1.5181,1.5181,1.5181,1.5181,1.5181,1.5181,1.5181,1.5181,1.5181,1.5181,1.5181,1.5181,1.5181,1.5181,1.5181,1.5181,1.5181,1.5181,1.5181,1.5181,1.5181,1.5181,1.5181,1.5181,1.5181,1.5181,1.5181,1.5181,1.5181,1.5181,1.5181,1.5181,1.5181,1.5181,1.5181,1.5181,1.5181,1.5181,1.5181,1.5181,1.5181,1.5181,1.5181,1.5181,1.5181,1.5181,1.5181,1.5181,1.5181,1.5181,1.5181,1.5181,1.5181,1.5181,1.5181,1.5181,1.5181,1.5181,1.5181,1.5181,1.5323,1.5384,1.5323,1.5323,1.5323,1.5323,1.5228,1.5181,1.5181,1.5181,1.5181,1.5181,1.5181,1.5181,1.5181,1.5248,1.5323,1.5418,1.5533,1.5635,1.5737,1.5879,1.594,1.5954,1.6042,1.6083,1.6083,1.6083,1.6083,1.6083,1.5642,1.5642,1.5642,1.5642,1.5642,1.5642,1.5642,1.5642,1.5642,1.5642,1.5642,1.5642,1.5642,1.5642,1.5581,1.5445,1.5303,1.5221,1.5221,1.5221,1.5221,1.5221,1.5221,1.5221,1.5221,1.5194,1.5181,1.5181,1.5181,1.5181,1.5181,1.5181,1.5181,1.5181,1.5181,1.5181,1.5181,1.5181,1.5181,1.5181,1.5181,1.5181,1.5181,1.5181,1.5181,1.5181,1.5181,1.5181,1.5181,1.5181,1.5181,1.5181,1.5181,1.5181,1.5181,1.5181,1.5181,1.5181,1.5181,1.5181,1.5181,1.5181,1.5181,1.5181,1.5181,1.5181,1.5181,1.5181,1.5181,1.5181,1.5181,1.5181,1.5181,1.5181,1.5181,1.5181,1.5181,1.5181,1.5181,1.5181,1.5181,1.5181,1.5181,1.5181,1.5181,1.5181,1.5309,1.533,1.5187,1.5181,1.5181,1.5181,1.5181,1.5181,1.5181,1.5181,1.5181,1.5181,1.5194,1.5201,1.5208,1.5364,1.5438,1.5466,1.5737,1.5957,1.5886,1.6022,1.6083,1.6083,1.6083,1.6083,1.6083,1.6083,1.6083,1.6083,1.5642,1.5642,1.5642,1.5642,1.5642,1.5642,1.5642,1.5642,1.5642,1.5642,1.5642,1.5642,1.5642,1.5642,1.5628,1.5594,1.556,1.554,1.554,1.554,1.554,1.554,1.554,1.554,1.554,1.5303,1.5181,1.5181,1.5181,1.5181,1.5181,1.5181,1.5181,1.5181,1.5181,1.5181,1.5181,1.5181,1.5181,1.5181,1.5181,1.5181,1.5181,1.5181,1.5181,1.5181,1.5181,1.5181,1.5181,1.5181,1.5181,1.5181,1.5181,1.5181,1.5181,1.5181,1.5181,1.5181,1.5181,1.5181,1.5181,1.5181,1.5181,1.5181,1.5181,1.5181,1.5181,1.5181,1.5181,1.5181,1.5181,1.5181,1.5181,1.5181,1.5181,1.5181,1.5181,1.5181,1.5181,1.5181,1.5181,1.5181,1.5181,1.5181,1.5181,1.5181,1.5215,1.5215,1.5181,1.5181,1.5181,1.5181,1.5181,1.5181,1.5181,1.5181,1.5181,1.5181,1.5303,1.5364,1.5364,1.552,1.5649,1.5764,1.5825,1.592,1.6035,1.6069,1.6083,1.6083,1.6083,1.6083,1.6083,1.6083,1.6083,1.6083,1.5852,1.5852,1.5852,1.5852,1.5852,1.5852,1.5852,1.5852,1.5852,1.5852,1.5852,1.5852,1.5852,1.5852,1.5818,1.575,1.5676,1.5642,1.5642,1.5642,1.5642,1.5642,1.5642,1.5642,1.5642,1.5486,1.5398,1.5398,1.5398,1.5398,1.5398,1.5398,1.5398,1.5398,1.5398,1.5398,1.5398,1.5323,1.5289,1.5282,1.5215,1.5181,1.5181,1.5181,1.5181,1.5181,1.5181,1.5181,1.5181,1.5181,1.5181,1.5181,1.5181,1.5181,1.5181,1.5181,1.5181,1.5181,1.5181,1.5181,1.5181,1.5181,1.5181,1.5181,1.5181,1.5181,1.5181,1.5181,1.5181,1.5181,1.5181,1.5181,1.5181,1.5181,1.5181,1.5181,1.5181,1.5181,1.5181,1.5181,1.5181,1.5181,1.5181,1.5181,1.5181,1.5181,1.5181,1.5181,1.5181,1.5181,1.5181,1.5181,1.5181,1.5181,1.5181,1.5255,1.533,1.5398,1.5404,1.5452,1.5527,1.5676,1.5784,1.5859,1.5934,1.6008,1.6083,1.6083,1.6083,1.6083,1.6083,1.6083,1.6083,1.6083,1.6083,1.6083,1.6083,1.6083,1.6083,1.6083,1.6083,1.6083,1.6083,1.6083,1.6083,1.6083,1.6083,1.6083,1.6083,1.6083,1.6029,1.5906,1.5784,1.5716,1.5716,1.5716,1.5716,1.5716,1.5716,1.5716,1.5716,1.5716,1.5689,1.5642,1.5642,1.5642,1.5642,1.5642,1.5642,1.5642,1.5642,1.5642,1.5628,1.5506,1.5452,1.5438,1.5309,1.5262,1.5262,1.5262,1.5242,1.5221,1.5221,1.5208,1.5181,1.5181,1.5181,1.5181,1.5181,1.5181,1.5181,1.5181,1.5181,1.5181,1.5181,1.5181,1.5181,1.5181,1.5181,1.5181,1.5181,1.5181,1.5181,1.5181,1.5181,1.5181,1.5181,1.5181,1.5181,1.5181,1.5181,1.5181,1.5181,1.5181,1.5181,1.5181,1.5181,1.5181,1.5181,1.5181,1.5181,1.5181,1.5181,1.5181,1.5181,1.5181,1.5181,1.5181,1.5208,1.5235,1.5262,1.5384,1.554,1.5716,1.556,1.5567,1.5716,1.5839,1.5893,1.59,1.6029,1.6083,1.6083,1.6083,1.6083,1.6083,1.6083,1.6083,1.6083,1.6083,1.6083,1.6083,1.6083,1.6083,1.6083,1.6083,1.6083,1.6083,1.6083,1.6083,1.6083,1.6083,1.6083,1.6083,1.6083,1.6083,1.6076,1.6049,1.6035,1.6022,1.6022,1.6022,1.6022,1.6022,1.6022,1.6022,1.6022,1.6022,1.5893,1.5642,1.5642,1.5642,1.5642,1.5642,1.5642,1.5642,1.5642,1.5642,1.5635,1.5615,1.5608,1.5608,1.5588,1.5581,1.5581,1.5581,1.5493,1.5377,1.5377,1.5296,1.5181,1.5181,1.5181,1.5181,1.5181,1.5181,1.5181,1.5181,1.5181,1.5181,1.5181,1.5181,1.5181,1.5181,1.5181,1.5181,1.5181,1.5181,1.5181,1.5181,1.5181,1.5181,1.5181,1.5181,1.5181,1.5181,1.5181,1.5181,1.5181,1.5181,1.5181,1.5181,1.5181,1.5181,1.5181,1.5181,1.5181,1.5181,1.5181,1.5181,1.5181,1.5181,1.5181,1.5181,1.5309,1.5445,1.5574,1.5601,1.575,1.6022,1.5866,1.5872,1.6022,1.6042,1.6049,1.6049,1.6076,1.6083,1.6083,1.6083,1.6083,1.6083,1.6083,1.6083,1.6083,1.6083,1.6083,1.6083,1.6083,1.6083,1.6083,1.6083,1.6083,1.6083,1.6083,1.6083,1.6083,1.6083,1.6083,1.6083,1.6083,1.6083,1.6083,1.6083,1.6083,1.6083,1.6083,1.6083,1.6083,1.6083,1.6083,1.6083,1.6083,1.6083,1.6015,1.5886,1.5886,1.5886,1.5886,1.5886,1.5886,1.5886,1.5886,1.5886,1.5879,1.5798,1.5757,1.575,1.5669,1.5642,1.5642,1.5642,1.5594,1.554,1.554,1.5438,1.5309,1.5309,1.5255,1.5181,1.5181,1.5181,1.5181,1.5181,1.5181,1.5181,1.5181,1.5181,1.5181,1.5181,1.5181,1.5181,1.5181,1.5181,1.5181,1.5181,1.5181,1.5181,1.5181,1.5181,1.5181,1.5181,1.5181,1.5181,1.5181,1.5181,1.5181,1.5181,1.5181,1.5181,1.5181,1.5181,1.5181,1.5181,1.5181,1.5181,1.5181,1.5262,1.535,1.5438,1.5581,1.5689,1.5757,1.5845,1.5954,1.6083,1.6015,1.6015,1.6083,1.6083,1.6083,1.6083,1.6083,1.6083,1.6083,1.6083,1.6083,1.6083,1.6083,1.6083,1.6083,1.6083,1.6083,1.6083]}]]